Wetterdaten: Montag, 16.10.2017
Datum Zeit Temp. A. Pool Temp. Feuchte A. Luftdruck Regen Wind Richtung Richtung Sonnenschein ET UV Solar Taupunkt Windchill Windben Empfang
16.10.2017 00:00 11,1 C 11,7 C 95 % 1026,0 hPa 0,0 l/m 2,3 km/h (1 Bft) S-SW 201 0 min 0,000 mm 0,0 UV-I 0 W/m 10,3 C 11,1 C 3,2 km/h (1 Bft) 100,00 %
16.10.2017 00:02 11,0 C 11,7 C 95 % 1026,0 hPa 0,0 l/m 2,1 km/h (1 Bft) S-SW 201 0 min 0,000 mm 0,0 UV-I 0 W/m 10,2 C 11,0 C 3,2 km/h (1 Bft) 97,78 %
16.10.2017 00:04 10,8 C 11,7 C 95 % 1025,9 hPa 0,0 l/m 1,8 km/h (1 Bft) S-SW 201 0 min 0,000 mm 0,0 UV-I 0 W/m 10,0 C 10,8 C 3,2 km/h (1 Bft) 100,00 %
16.10.2017 00:06 10,6 C 11,7 C 95 % 1026,0 hPa 0,0 l/m 2,0 km/h (1 Bft) S-SW 202 0 min 0,000 mm 0,0 UV-I 0 W/m 9,8 C 10,6 C 3,2 km/h (1 Bft) 100,00 %
16.10.2017 00:08 10,4 C 11,7 C 95 % 1025,9 hPa 0,0 l/m 2,7 km/h (1 Bft) S-SW 201 0 min 0,000 mm 0,0 UV-I 0 W/m 9,6 C 10,4 C 3,2 km/h (1 Bft) 98,00 %
16.10.2017 00:10 10,4 C 11,7 C 95 % 1025,9 hPa 0,0 l/m 2,3 km/h (1 Bft) S-SW 201 0 min 0,000 mm 0,0 UV-I 0 W/m 9,6 C 10,4 C 4,8 km/h (1 Bft) 96,23 %
16.10.2017 00:12 10,5 C 11,7 C 95 % 1025,9 hPa 0,0 l/m 2,3 km/h (1 Bft) S-SW 202 0 min 0,000 mm 0,0 UV-I 0 W/m 9,7 C 10,5 C 3,2 km/h (1 Bft) 97,37 %
16.10.2017 00:14 10,6 C 11,7 C 96 % 1026,0 hPa 0,0 l/m 1,6 km/h (1 Bft) S-SW 201 0 min 0,000 mm 0,0 UV-I 0 W/m 10,0 C 10,6 C 3,2 km/h (1 Bft) 98,00 %
16.10.2017 00:16 10,6 C 11,7 C 96 % 1026,0 hPa 0,0 l/m 2,3 km/h (1 Bft) S-SW 201 0 min 0,000 mm 0,0 UV-I 0 W/m 10,0 C 10,6 C 3,2 km/h (1 Bft) 97,56 %
16.10.2017 00:18 10,6 C 11,7 C 96 % 1026,0 hPa 0,0 l/m 3,5 km/h (1 Bft) S-SW 202 0 min 0,000 mm 0,0 UV-I 0 W/m 10,0 C 10,6 C 4,8 km/h (1 Bft) 98,00 %
16.10.2017 00:20 10,6 C 11,7 C 96 % 1026,0 hPa 0,0 l/m 3,9 km/h (1 Bft) S-SW 202 0 min 0,000 mm 0,0 UV-I 0 W/m 10,0 C 10,6 C 4,8 km/h (1 Bft) 95,74 %
16.10.2017 00:22 10,6 C 11,7 C 96 % 1026,0 hPa 0,0 l/m 3,6 km/h (1 Bft) S-SW 202 0 min 0,000 mm 0,0 UV-I 0 W/m 10,0 C 10,6 C 4,8 km/h (1 Bft) 96,23 %
16.10.2017 00:24 10,6 C 11,7 C 96 % 1026,0 hPa 0,0 l/m 2,9 km/h (1 Bft) S-SW 202 0 min 0,000 mm 0,0 UV-I 0 W/m 10,0 C 10,6 C 3,2 km/h (1 Bft) 95,12 %
16.10.2017 00:26 10,6 C 11,7 C 96 % 1026,0 hPa 0,0 l/m 3,4 km/h (1 Bft) S-SW 202 0 min 0,000 mm 0,0 UV-I 0 W/m 10,0 C 10,6 C 4,8 km/h (1 Bft) 95,74 %
16.10.2017 00:28 10,6 C 11,7 C 96 % 1026,0 hPa 0,0 l/m 2,6 km/h (1 Bft) S-SW 202 0 min 0,000 mm 0,0 UV-I 0 W/m 10,0 C 10,6 C 4,8 km/h (1 Bft) 93,18 %
16.10.2017 00:30 10,6 C 11,7 C 96 % 1026,0 hPa 0,0 l/m 2,6 km/h (1 Bft) S-SW 202 0 min 0,000 mm 0,0 UV-I 0 W/m 10,0 C 10,6 C 4,8 km/h (1 Bft) 94,00 %
16.10.2017 00:32 10,6 C 11,7 C 96 % 1026,0 hPa 0,0 l/m 2,6 km/h (1 Bft) S-SW 202 0 min 0,000 mm 0,0 UV-I 0 W/m 10,0 C 10,6 C 3,2 km/h (1 Bft) 98,00 %
16.10.2017 00:34 10,5 C 11,7 C 96 % 1026,1 hPa 0,0 l/m 1,6 km/h (1 Bft) S-SW 202 0 min 0,000 mm 0,0 UV-I 0 W/m 9,9 C 10,5 C 3,2 km/h (1 Bft) 94,00 %
16.10.2017 00:36 10,5 C 11,7 C 96 % 1026,1 hPa 0,0 l/m 1,9 km/h (1 Bft) S-SW 202 0 min 0,000 mm 0,0 UV-I 0 W/m 9,9 C 10,5 C 3,2 km/h (1 Bft) 94,74 %
16.10.2017 00:38 10,5 C 11,7 C 96 % 1026,0 hPa 0,0 l/m 1,2 km/h (1 Bft) S-SW 202 0 min 0,000 mm 0,0 UV-I 0 W/m 9,9 C 10,5 C 3,2 km/h (1 Bft) 95,83 %
16.10.2017 00:40 10,4 C 11,7 C 96 % 1026,1 hPa 0,0 l/m 1,2 km/h (1 Bft) S-SW 202 0 min 0,000 mm 0,0 UV-I 0 W/m 9,8 C 10,4 C 3,2 km/h (1 Bft) 95,74 %
16.10.2017 00:42 10,4 C 11,7 C 96 % 1026,0 hPa 0,0 l/m 1,9 km/h (1 Bft) S-SW 202 0 min 0,000 mm 0,0 UV-I 0 W/m 9,8 C 10,4 C 3,2 km/h (1 Bft) 94,00 %
16.10.2017 00:44 10,4 C 11,7 C 96 % 1026,1 hPa 0,0 l/m 1,7 km/h (1 Bft) S-SW 202 0 min 0,000 mm 0,0 UV-I 0 W/m 9,8 C 10,4 C 3,2 km/h (1 Bft) 94,00 %
16.10.2017 00:46 10,4 C 11,7 C 96 % 1026,1 hPa 0,0 l/m 2,8 km/h (1 Bft) S-SW 202 0 min 0,000 mm 0,0 UV-I 0 W/m 9,8 C 10,4 C 4,8 km/h (1 Bft) 94,74 %
16.10.2017 00:48 10,5 C 11,7 C 96 % 1026,1 hPa 0,0 l/m 2,4 km/h (1 Bft) S-SW 202 0 min 0,000 mm 0,0 UV-I 0 W/m 9,9 C 10,5 C 3,2 km/h (1 Bft) 98,00 %
16.10.2017 00:50 10,6 C 11,7 C 96 % 1026,1 hPa 0,0 l/m 1,8 km/h (1 Bft) S-SW 202 0 min 0,000 mm 0,0 UV-I 0 W/m 10,0 C 10,6 C 3,2 km/h (1 Bft) 93,62 %
16.10.2017 00:52 10,6 C 11,7 C 96 % 1026,1 hPa 0,0 l/m 0,8 km/h (0 Bft) S-SW 202 0 min 0,000 mm 0,0 UV-I 0 W/m 10,0 C 10,6 C 3,2 km/h (1 Bft) 98,11 %
16.10.2017 00:54 10,6 C 11,7 C 96 % 1026,0 hPa 0,0 l/m 0,1 km/h (0 Bft) S-SW 202 0 min 0,000 mm 0,0 UV-I 0 W/m 10,0 C 10,6 C 1,6 km/h (1 Bft) 95,74 %
16.10.2017 00:56 10,6 C 11,7 C 96 % 1026,0 hPa 0,0 l/m 0,0 km/h (0 Bft) S-SW 202 0 min 0,000 mm 0,0 UV-I 0 W/m 10,0 C 10,6 C 1,6 km/h (1 Bft) 97,56 %
16.10.2017 00:58 10,4 C 11,7 C 96 % 1026,0 hPa 0,0 l/m 0,0 km/h (0 Bft) S-SW 202 0 min 0,000 mm 0,0 UV-I 0 W/m 9,8 C 10,4 C 0,0 km/h (0 Bft) 98,00 %
16.10.2017 01:00 10,4 C 11,7 C 96 % 1026,0 hPa 0,0 l/m 0,0 km/h (0 Bft) S-SW 202 0 min 0,000 mm 0,0 UV-I 0 W/m 9,8 C 10,4 C 1,6 km/h (1 Bft) 98,00 %
16.10.2017 01:02 10,5 C 11,7 C 96 % 1026,0 hPa 0,0 l/m 0,1 km/h (0 Bft) S-SW 202 0 min 0,000 mm 0,0 UV-I 0 W/m 9,9 C 10,5 C 1,6 km/h (1 Bft) 97,37 %
16.10.2017 01:04 10,4 C 11,7 C 96 % 1025,9 hPa 0,0 l/m 0,3 km/h (0 Bft) S-SW 202 0 min 0,000 mm 0,0 UV-I 0 W/m 9,8 C 10,4 C 1,6 km/h (1 Bft) 98,00 %
16.10.2017 01:06 10,4 C 11,7 C 96 % 1026,0 hPa 0,0 l/m 0,4 km/h (0 Bft) S-SW 202 0 min 0,000 mm 0,0 UV-I 0 W/m 9,8 C 10,4 C 1,6 km/h (1 Bft) 97,87 %
16.10.2017 01:08 10,4 C 11,7 C 96 % 1025,9 hPa 0,0 l/m 0,7 km/h (0 Bft) S-SW 202 0 min 0,000 mm 0,0 UV-I 0 W/m 9,8 C 10,4 C 3,2 km/h (1 Bft) 97,87 %
16.10.2017 01:10 10,3 C 11,7 C 96 % 1025,9 hPa 0,0 l/m 1,0 km/h (0 Bft) S-SW 202 0 min 0,000 mm 0,0 UV-I 0 W/m 9,7 C 10,3 C 3,2 km/h (1 Bft) 97,73 %
16.10.2017 01:12 10,3 C 11,7 C 96 % 1026,0 hPa 0,0 l/m 1,2 km/h (1 Bft) S-SW 202 0 min 0,000 mm 0,0 UV-I 0 W/m 9,7 C 10,3 C 1,6 km/h (1 Bft) 94,00 %
16.10.2017 01:14 10,2 C 11,7 C 96 % 1025,9 hPa 0,0 l/m 0,0 km/h (0 Bft) S-SW 202 0 min 0,000 mm 0,0 UV-I 0 W/m 9,6 C 10,2 C 0,0 km/h (0 Bft) 98,00 %
16.10.2017 01:16 10,1 C 11,7 C 95 % 1026,0 hPa 0,0 l/m 0,0 km/h (0 Bft) S-SW 202 0 min 0,000 mm 0,0 UV-I 0 W/m 9,3 C 10,1 C 0,0 km/h (0 Bft) 97,22 %
16.10.2017 01:18 9,8 C 11,7 C 95 % 1025,9 hPa 0,0 l/m 0,0 km/h (0 Bft) S-SW 202 0 min 0,000 mm 0,0 UV-I 0 W/m 9,0 C 9,8 C 0,0 km/h (0 Bft) 98,11 %
16.10.2017 01:20 9,7 C 11,7 C 95 % 1026,0 hPa 0,0 l/m 1,3 km/h (1 Bft) S-SW 202 0 min 0,000 mm 0,0 UV-I 0 W/m 8,9 C 9,7 C 1,6 km/h (1 Bft) 98,00 %
16.10.2017 01:22 9,6 C 11,7 C 95 % 1026,0 hPa 0,0 l/m 1,5 km/h (1 Bft) S-SW 202 0 min 0,000 mm 0,0 UV-I 0 W/m 8,8 C 9,6 C 3,2 km/h (1 Bft) 96,00 %
16.10.2017 01:24 9,4 C 11,7 C 95 % 1026,0 hPa 0,0 l/m 1,7 km/h (1 Bft) S-SW 202 0 min 0,000 mm 0,0 UV-I 0 W/m 8,6 C 9,4 C 3,2 km/h (1 Bft) 96,15 %
16.10.2017 01:26 9,3 C 11,7 C 96 % 1026,0 hPa 0,0 l/m 1,9 km/h (1 Bft) S-SW 202 0 min 0,000 mm 0,0 UV-I 0 W/m 8,7 C 9,3 C 3,2 km/h (1 Bft) 98,46 %
16.10.2017 01:28 9,3 C 11,7 C 96 % 1026,0 hPa 0,0 l/m 3,3 km/h (1 Bft) S-SW 202 0 min 0,000 mm 0,0 UV-I 0 W/m 8,7 C 9,3 C 4,8 km/h (1 Bft) 100,00 %
16.10.2017 01:30 9,4 C 11,7 C 96 % 1026,1 hPa 0,0 l/m 2,6 km/h (1 Bft) S-SW 202 0 min 0,000 mm 0,0 UV-I 0 W/m 8,8 C 9,4 C 3,2 km/h (1 Bft) 100,00 %
16.10.2017 01:32 9,4 C 11,7 C 96 % 1026,1 hPa 0,0 l/m 2,8 km/h (1 Bft) S-SW 202 0 min 0,000 mm 0,0 UV-I 0 W/m 8,8 C 9,4 C 3,2 km/h (1 Bft) 100,00 %
16.10.2017 01:34 9,4 C 11,7 C 96 % 1026,2 hPa 0,0 l/m 3,4 km/h (1 Bft) S-SW 202 0 min 0,000 mm 0,0 UV-I 0 W/m 8,8 C 9,4 C 4,8 km/h (1 Bft) 97,87 %
16.10.2017 01:36 9,3 C 11,7 C 96 % 1026,1 hPa 0,0 l/m 2,9 km/h (1 Bft) S-SW 202 0 min 0,000 mm 0,0 UV-I 0 W/m 8,7 C 9,3 C 4,8 km/h (1 Bft) 100,00 %
16.10.2017 01:38 9,2 C 11,7 C 96 % 1026,2 hPa 0,0 l/m 2,5 km/h (1 Bft) S-SW 202 0 min 0,000 mm 0,0 UV-I 0 W/m 8,6 C 9,2 C 3,2 km/h (1 Bft) 97,87 %
16.10.2017 01:40 9,2 C 11,7 C 96 % 1026,2 hPa 0,0 l/m 2,5 km/h (1 Bft) S-SW 202 0 min 0,000 mm 0,0 UV-I 0 W/m 8,6 C 9,2 C 4,8 km/h (1 Bft) 100,00 %
16.10.2017 01:42 9,2 C 11,7 C 96 % 1026,2 hPa 0,0 l/m 2,7 km/h (1 Bft) S-SW 202 0 min 0,000 mm 0,0 UV-I 0 W/m 8,6 C 9,2 C 4,8 km/h (1 Bft) 100,00 %
16.10.2017 01:44 9,3 C 11,7 C 96 % 1026,2 hPa 0,0 l/m 2,3 km/h (1 Bft) S-SW 202 0 min 0,000 mm 0,0 UV-I 0 W/m 8,7 C 9,3 C 4,8 km/h (1 Bft) 97,44 %
16.10.2017 01:46 9,3 C 11,7 C 96 % 1026,2 hPa 0,0 l/m 1,9 km/h (1 Bft) S-SW 202 0 min 0,000 mm 0,0 UV-I 0 W/m 8,7 C 9,3 C 3,2 km/h (1 Bft) 100,00 %
16.10.2017 01:48 9,4 C 11,7 C 96 % 1026,2 hPa 0,0 l/m 1,0 km/h (0 Bft) S-SW 202 0 min 0,000 mm 0,0 UV-I 0 W/m 8,8 C 9,4 C 3,2 km/h (1 Bft) 100,00 %
16.10.2017 01:50 9,4 C 11,7 C 96 % 1026,3 hPa 0,0 l/m 1,0 km/h (0 Bft) S-SW 202 0 min 0,000 mm 0,0 UV-I 0 W/m 8,8 C 9,4 C 3,2 km/h (1 Bft) 100,00 %
16.10.2017 01:52 9,4 C 11,7 C 96 % 1026,3 hPa 0,0 l/m 0,4 km/h (0 Bft) S-SW 202 0 min 0,000 mm 0,0 UV-I 0 W/m 8,8 C 9,4 C 3,2 km/h (1 Bft) 100,00 %
16.10.2017 01:54 9,4 C 11,7 C 96 % 1026,3 hPa 0,0 l/m 0,0 km/h (0 Bft) S-SW 202 0 min 0,000 mm 0,0 UV-I 0 W/m 8,8 C 9,4 C 0,0 km/h (0 Bft) 100,00 %
16.10.2017 01:56 9,4 C 11,7 C 96 % 1026,3 hPa 0,0 l/m 0,0 km/h (0 Bft) S-SW 202 0 min 0,000 mm 0,0 UV-I 0 W/m 8,8 C 9,4 C 0,0 km/h (0 Bft) 100,00 %
16.10.2017 01:58 9,4 C 11,7 C 96 % 1026,3 hPa 0,0 l/m 0,0 km/h (0 Bft) S-SW 202 0 min 0,000 mm 0,0 UV-I 0 W/m 8,8 C 9,4 C 0,0 km/h (0 Bft) 97,62 %
16.10.2017 02:00 9,3 C 11,7 C 96 % 1026,3 hPa 0,0 l/m 0,0 km/h (0 Bft) S-SW 202 0 min 0,000 mm 0,0 UV-I 0 W/m 8,7 C 9,3 C 0,0 km/h (0 Bft) 97,87 %
16.10.2017 02:02 9,3 C 11,7 C 96 % 1026,3 hPa 0,0 l/m 0,0 km/h (0 Bft) S-SW 202 0 min 0,000 mm 0,0 UV-I 0 W/m 8,7 C 9,3 C 0,0 km/h (0 Bft) 100,00 %
16.10.2017 02:04 9,3 C 11,7 C 96 % 1026,3 hPa 0,0 l/m 0,0 km/h (0 Bft) S-SW 202 0 min 0,000 mm 0,0 UV-I 0 W/m 8,7 C 9,3 C 0,0 km/h (0 Bft) 100,00 %
16.10.2017 02:06 9,3 C 11,7 C 96 % 1026,3 hPa 0,0 l/m 0,0 km/h (0 Bft) S-SW 202 0 min 0,000 mm 0,0 UV-I 0 W/m 8,7 C 9,3 C 0,0 km/h (0 Bft) 100,00 %
16.10.2017 02:08 9,3 C 11,7 C 96 % 1026,3 hPa 0,0 l/m 0,0 km/h (0 Bft) S-SW 202 0 min 0,000 mm 0,0 UV-I 0 W/m 8,7 C 9,3 C 0,0 km/h (0 Bft) 100,00 %
16.10.2017 02:10 9,2 C 11,7 C 96 % 1026,4 hPa 0,0 l/m 0,0 km/h (0 Bft) S-SW 202 0 min 0,000 mm 0,0 UV-I 0 W/m 8,6 C 9,2 C 0,0 km/h (0 Bft) 100,00 %
16.10.2017 02:12 9,2 C 11,7 C 96 % 1026,3 hPa 0,0 l/m 0,6 km/h (0 Bft) S-SW 202 0 min 0,000 mm 0,0 UV-I 0 W/m 8,6 C 9,2 C 3,2 km/h (1 Bft) 100,00 %
16.10.2017 02:14 9,1 C 11,7 C 96 % 1026,4 hPa 0,0 l/m 2,6 km/h (1 Bft) S-SW 202 0 min 0,000 mm 0,0 UV-I 0 W/m 8,5 C 9,1 C 3,2 km/h (1 Bft) 100,00 %
16.10.2017 02:16 9,1 C 11,7 C 96 % 1026,4 hPa 0,0 l/m 2,0 km/h (1 Bft) S-SW 202 0 min 0,000 mm 0,0 UV-I 0 W/m 8,5 C 9,1 C 3,2 km/h (1 Bft) 100,00 %
16.10.2017 02:18 8,9 C 11,7 C 96 % 1026,4 hPa 0,0 l/m 1,9 km/h (1 Bft) S-SW 202 0 min 0,000 mm 0,0 UV-I 0 W/m 8,3 C 8,9 C 3,2 km/h (1 Bft) 100,00 %
16.10.2017 02:20 8,9 C 11,7 C 96 % 1026,5 hPa 0,0 l/m 3,3 km/h (1 Bft) S-SW 209 0 min 0,000 mm 0,0 UV-I 0 W/m 8,3 C 8,9 C 4,8 km/h (1 Bft) 100,00 %
16.10.2017 02:22 8,9 C 11,7 C 96 % 1026,5 hPa 0,0 l/m 3,1 km/h (1 Bft) S-SW 209 0 min 0,000 mm 0,0 UV-I 0 W/m 8,3 C 8,9 C 4,8 km/h (1 Bft) 100,00 %
16.10.2017 02:24 8,9 C 11,7 C 96 % 1026,5 hPa 0,0 l/m 2,2 km/h (1 Bft) S-SW 209 0 min 0,000 mm 0,0 UV-I 0 W/m 8,3 C 8,9 C 3,2 km/h (1 Bft) 97,14 %
16.10.2017 02:26 8,9 C 11,7 C 96 % 1026,6 hPa 0,0 l/m 2,1 km/h (1 Bft) S-SW 209 0 min 0,000 mm 0,0 UV-I 0 W/m 8,3 C 8,9 C 3,2 km/h (1 Bft) 98,21 %
16.10.2017 02:28 8,8 C 11,7 C 96 % 1026,6 hPa 0,0 l/m 1,9 km/h (1 Bft) S-SW 209 0 min 0,000 mm 0,0 UV-I 0 W/m 8,2 C 8,8 C 3,2 km/h (1 Bft) 96,00 %
16.10.2017 02:30 8,8 C 11,7 C 96 % 1026,6 hPa 0,0 l/m 3,3 km/h (1 Bft) S-SW 209 0 min 0,000 mm 0,0 UV-I 0 W/m 8,2 C 8,8 C 4,8 km/h (1 Bft) 97,73 %
16.10.2017 02:32 8,8 C 11,7 C 96 % 1026,6 hPa 0,0 l/m 3,5 km/h (1 Bft) S-SW 209 0 min 0,000 mm 0,0 UV-I 0 W/m 8,2 C 8,8 C 4,8 km/h (1 Bft) 100,00 %
16.10.2017 02:34 8,6 C 11,7 C 96 % 1026,6 hPa 0,0 l/m 3,9 km/h (1 Bft) S-SW 209 0 min 0,000 mm 0,0 UV-I 0 W/m 8,0 C 8,6 C 4,8 km/h (1 Bft) 96,55 %
16.10.2017 02:36 8,5 C 11,7 C 96 % 1026,5 hPa 0,0 l/m 3,6 km/h (1 Bft) S-SW 210 0 min 0,000 mm 0,0 UV-I 0 W/m 7,9 C 8,5 C 4,8 km/h (1 Bft) 94,00 %
16.10.2017 02:38 8,4 C 11,7 C 96 % 1026,6 hPa 0,0 l/m 3,2 km/h (1 Bft) S-SW 210 0 min 0,000 mm 0,0 UV-I 0 W/m 7,8 C 8,4 C 4,8 km/h (1 Bft) 94,87 %
16.10.2017 02:40 8,5 C 11,7 C 96 % 1026,5 hPa 0,0 l/m 3,5 km/h (1 Bft) S-SW 210 0 min 0,000 mm 0,0 UV-I 0 W/m 7,9 C 8,5 C 4,8 km/h (1 Bft) 98,00 %
16.10.2017 02:42 8,5 C 11,7 C 96 % 1026,5 hPa 0,0 l/m 3,4 km/h (1 Bft) S-SW 210 0 min 0,000 mm 0,0 UV-I 0 W/m 7,9 C 8,5 C 4,8 km/h (1 Bft) 98,00 %
16.10.2017 02:44 8,4 C 11,7 C 96 % 1026,5 hPa 0,0 l/m 3,5 km/h (1 Bft) S-SW 210 0 min 0,000 mm 0,0 UV-I 0 W/m 7,8 C 8,4 C 4,8 km/h (1 Bft) 96,00 %
16.10.2017 02:46 8,4 C 11,7 C 96 % 1026,5 hPa 0,0 l/m 3,9 km/h (1 Bft) S-SW 210 0 min 0,000 mm 0,0 UV-I 0 W/m 7,8 C 8,4 C 4,8 km/h (1 Bft) 97,87 %
16.10.2017 02:48 8,5 C 11,7 C 96 % 1026,5 hPa 0,0 l/m 3,2 km/h (1 Bft) S-SW 210 0 min 0,000 mm 0,0 UV-I 0 W/m 7,9 C 8,5 C 4,8 km/h (1 Bft) 97,14 %
16.10.2017 02:50 8,6 C 11,7 C 96 % 1026,5 hPa 0,0 l/m 3,5 km/h (1 Bft) S-SW 210 0 min 0,000 mm 0,0 UV-I 0 W/m 8,0 C 8,6 C 4,8 km/h (1 Bft) 98,00 %
16.10.2017 02:52 8,7 C 11,7 C 97 % 1026,6 hPa 0,0 l/m 3,6 km/h (1 Bft) S-SW 210 0 min 0,000 mm 0,0 UV-I 0 W/m 8,3 C 8,7 C 4,8 km/h (1 Bft) 95,12 %
16.10.2017 02:54 8,8 C 11,7 C 97 % 1026,6 hPa 0,0 l/m 4,3 km/h (1 Bft) S-SW 210 0 min 0,000 mm 0,0 UV-I 0 W/m 8,4 C 8,8 C 6,4 km/h (2 Bft) 98,11 %
16.10.2017 02:56 8,9 C 11,7 C 97 % 1026,6 hPa 0,0 l/m 4,5 km/h (1 Bft) S-SW 210 0 min 0,000 mm 0,0 UV-I 0 W/m 8,4 C 8,9 C 6,4 km/h (2 Bft) 97,37 %
16.10.2017 02:58 8,9 C 11,7 C 97 % 1026,5 hPa 0,0 l/m 3,1 km/h (1 Bft) S-SW 196 0 min 0,000 mm 0,0 UV-I 0 W/m 8,4 C 8,9 C 4,8 km/h (1 Bft) 96,23 %
16.10.2017 03:00 8,9 C 11,7 C 97 % 1026,6 hPa 0,0 l/m 3,4 km/h (1 Bft) S-SW 196 0 min 0,000 mm 0,0 UV-I 0 W/m 8,4 C 8,9 C 6,4 km/h (2 Bft) 93,62 %
16.10.2017 03:02 8,9 C 11,7 C 96 % 1026,5 hPa 0,0 l/m 3,7 km/h (1 Bft) S-SW 192 0 min 0,000 mm 0,0 UV-I 0 W/m 8,3 C 8,9 C 8,0 km/h (2 Bft) 96,00 %
16.10.2017 03:04 8,9 C 11,7 C 97 % 1026,5 hPa 0,0 l/m 2,9 km/h (1 Bft) S-SW 193 0 min 0,000 mm 0,0 UV-I 0 W/m 8,4 C 8,9 C 4,8 km/h (1 Bft) 98,00 %
16.10.2017 03:06 8,9 C 11,7 C 96 % 1026,6 hPa 0,0 l/m 2,3 km/h (1 Bft) S 176 0 min 0,000 mm 0,0 UV-I 0 W/m 8,3 C 8,9 C 4,8 km/h (1 Bft) 100,00 %
16.10.2017 03:08 8,9 C 11,7 C 96 % 1026,5 hPa 0,0 l/m 1,4 km/h (1 Bft) S 176 0 min 0,000 mm 0,0 UV-I 0 W/m 8,3 C 8,9 C 3,2 km/h (1 Bft) 100,00 %
16.10.2017 03:10 8,9 C 11,7 C 96 % 1026,6 hPa 0,0 l/m 0,4 km/h (0 Bft) S 176 0 min 0,000 mm 0,0 UV-I 0 W/m 8,3 C 8,9 C 3,2 km/h (1 Bft) 100,00 %
16.10.2017 03:12 8,8 C 11,7 C 96 % 1026,6 hPa 0,0 l/m 0,6 km/h (0 Bft) S 176 0 min 0,000 mm 0,0 UV-I 0 W/m 8,2 C 8,8 C 1,6 km/h (1 Bft) 97,44 %
16.10.2017 03:14 8,7 C 11,7 C 96 % 1026,6 hPa 0,0 l/m 1,8 km/h (1 Bft) S 176 0 min 0,000 mm 0,0 UV-I 0 W/m 8,1 C 8,7 C 3,2 km/h (1 Bft) 100,00 %
16.10.2017 03:16 8,6 C 11,7 C 96 % 1026,6 hPa 0,0 l/m 1,4 km/h (1 Bft) S 177 0 min 0,000 mm 0,0 UV-I 0 W/m 8,0 C 8,6 C 3,2 km/h (1 Bft) 100,00 %
16.10.2017 03:18 8,6 C 11,7 C 96 % 1026,6 hPa 0,0 l/m 1,9 km/h (1 Bft) S 177 0 min 0,000 mm 0,0 UV-I 0 W/m 8,0 C 8,6 C 3,2 km/h (1 Bft) 100,00 %
16.10.2017 03:20 8,6 C 11,7 C 96 % 1026,5 hPa 0,0 l/m 2,3 km/h (1 Bft) S 177 0 min 0,000 mm 0,0 UV-I 0 W/m 8,0 C 8,6 C 4,8 km/h (1 Bft) 100,00 %
16.10.2017 03:22 8,6 C 11,7 C 96 % 1026,6 hPa 0,0 l/m 1,9 km/h (1 Bft) S 177 0 min 0,000 mm 0,0 UV-I 0 W/m 8,0 C 8,6 C 3,2 km/h (1 Bft) 98,00 %
16.10.2017 03:24 8,5 C 11,7 C 96 % 1026,6 hPa 0,0 l/m 1,9 km/h (1 Bft) S 177 0 min 0,000 mm 0,0 UV-I 0 W/m 7,9 C 8,5 C 3,2 km/h (1 Bft) 100,00 %
16.10.2017 03:26 8,6 C 11,7 C 96 % 1026,6 hPa 0,0 l/m 2,3 km/h (1 Bft) S 177 0 min 0,000 mm 0,0 UV-I 0 W/m 8,0 C 8,6 C 3,2 km/h (1 Bft) 100,00 %
16.10.2017 03:28 8,6 C 11,7 C 97 % 1026,7 hPa 0,0 l/m 1,2 km/h (1 Bft) S 177 0 min 0,000 mm 0,0 UV-I 0 W/m 8,2 C 8,6 C 3,2 km/h (1 Bft) 100,00 %
16.10.2017 03:30 8,4 C 11,7 C 96 % 1026,7 hPa 0,0 l/m 2,0 km/h (1 Bft) S 177 0 min 0,000 mm 0,0 UV-I 0 W/m 7,8 C 8,4 C 3,2 km/h (1 Bft) 100,00 %
16.10.2017 03:32 8,4 C 11,7 C 96 % 1026,6 hPa 0,0 l/m 2,4 km/h (1 Bft) S 177 0 min 0,000 mm 0,0 UV-I 0 W/m 7,8 C 8,4 C 3,2 km/h (1 Bft) 97,14 %
16.10.2017 03:34 8,4 C 11,7 C 97 % 1026,7 hPa 0,0 l/m 1,7 km/h (1 Bft) S 177 0 min 0,000 mm 0,0 UV-I 0 W/m 8,0 C 8,4 C 3,2 km/h (1 Bft) 100,00 %
16.10.2017 03:36 8,3 C 11,7 C 97 % 1026,7 hPa 0,0 l/m 2,4 km/h (1 Bft) S 177 0 min 0,000 mm 0,0 UV-I 0 W/m 7,9 C 8,3 C 4,8 km/h (1 Bft) 100,00 %
16.10.2017 03:38 8,3 C 11,7 C 97 % 1026,7 hPa 0,0 l/m 2,7 km/h (1 Bft) S 177 0 min 0,000 mm 0,0 UV-I 0 W/m 7,9 C 8,3 C 4,8 km/h (1 Bft) 100,00 %
16.10.2017 03:40 8,3 C 11,7 C 97 % 1026,8 hPa 0,0 l/m 2,6 km/h (1 Bft) S 177 0 min 0,000 mm 0,0 UV-I 0 W/m 7,9 C 8,3 C 4,8 km/h (1 Bft) 100,00 %
16.10.2017 03:42 8,2 C 11,7 C 96 % 1026,7 hPa 0,0 l/m 2,1 km/h (1 Bft) S 177 0 min 0,000 mm 0,0 UV-I 0 W/m 7,6 C 8,2 C 3,2 km/h (1 Bft) 97,87 %
16.10.2017 03:44 8,2 C 11,7 C 96 % 1026,7 hPa 0,0 l/m 1,0 km/h (0 Bft) S 177 0 min 0,000 mm 0,0 UV-I 0 W/m 7,6 C 8,2 C 3,2 km/h (1 Bft) 100,00 %
16.10.2017 03:46 8,2 C 11,7 C 96 % 1026,7 hPa 0,0 l/m 1,2 km/h (1 Bft) S 177 0 min 0,000 mm 0,0 UV-I 0 W/m 7,6 C 8,2 C 3,2 km/h (1 Bft) 100,00 %
16.10.2017 03:48 8,2 C 11,7 C 97 % 1026,7 hPa 0,0 l/m 0,6 km/h (0 Bft) S 177 0 min 0,000 mm 0,0 UV-I 0 W/m 7,8 C 8,2 C 1,6 km/h (1 Bft) 100,00 %
16.10.2017 03:50 8,2 C 11,7 C 97 % 1026,6 hPa 0,0 l/m 0,6 km/h (0 Bft) S 177 0 min 0,000 mm 0,0 UV-I 0 W/m 7,8 C 8,2 C 1,6 km/h (1 Bft) 100,00 %
16.10.2017 03:52 8,3 C 11,7 C 97 % 1026,6 hPa 0,0 l/m 0,4 km/h (0 Bft) S 177 0 min 0,000 mm 0,0 UV-I 0 W/m 7,9 C 8,3 C 1,6 km/h (1 Bft) 100,00 %
16.10.2017 03:54 8,3 C 11,7 C 97 % 1026,7 hPa 0,0 l/m 0,3 km/h (0 Bft) S 177 0 min 0,000 mm 0,0 UV-I 0 W/m 7,9 C 8,3 C 1,6 km/h (1 Bft) 98,00 %
16.10.2017 03:56 8,4 C 11,7 C 97 % 1026,7 hPa 0,0 l/m 0,0 km/h (0 Bft) S 177 0 min 0,000 mm 0,0 UV-I 0 W/m 8,0 C 8,4 C 0,0 km/h (0 Bft) 100,00 %
16.10.2017 03:58 8,4 C 11,7 C 97 % 1026,7 hPa 0,0 l/m 0,0 km/h (0 Bft) S 177 0 min 0,000 mm 0,0 UV-I 0 W/m 8,0 C 8,4 C 0,0 km/h (0 Bft) 95,74 %
16.10.2017 04:00 8,3 C 11,7 C 97 % 1026,7 hPa 0,0 l/m 0,0 km/h (0 Bft) S 177 0 min 0,000 mm 0,0 UV-I 0 W/m 7,9 C 8,3 C 0,0 km/h (0 Bft) 100,00 %
16.10.2017 04:02 8,3 C 11,7 C 97 % 1026,8 hPa 0,0 l/m 0,0 km/h (0 Bft) S 177 0 min 0,000 mm 0,0 UV-I 0 W/m 7,9 C 8,3 C 0,0 km/h (0 Bft) 100,00 %
16.10.2017 04:04 8,2 C 11,7 C 96 % 1026,8 hPa 0,0 l/m 0,0 km/h (0 Bft) S 177 0 min 0,000 mm 0,0 UV-I 0 W/m 7,6 C 8,2 C 0,0 km/h (0 Bft) 97,87 %
16.10.2017 04:06 8,1 C 11,7 C 96 % 1026,7 hPa 0,0 l/m 0,0 km/h (0 Bft) S 177 0 min 0,000 mm 0,0 UV-I 0 W/m 7,5 C 8,1 C 0,0 km/h (0 Bft) 98,11 %
16.10.2017 04:08 8,2 C 11,7 C 97 % 1026,7 hPa 0,0 l/m 0,0 km/h (0 Bft) S 177 0 min 0,000 mm 0,0 UV-I 0 W/m 7,8 C 8,2 C 0,0 km/h (0 Bft) 93,62 %
16.10.2017 04:10 8,1 C 11,7 C 97 % 1026,7 hPa 0,0 l/m 0,0 km/h (0 Bft) S 177 0 min 0,000 mm 0,0 UV-I 0 W/m 7,7 C 8,1 C 0,0 km/h (0 Bft) 95,74 %
16.10.2017 04:12 8,1 C 11,7 C 97 % 1026,7 hPa 0,0 l/m 0,0 km/h (0 Bft) S 177 0 min 0,000 mm 0,0 UV-I 0 W/m 7,7 C 8,1 C 0,0 km/h (0 Bft) 97,37 %
16.10.2017 04:14 8,0 C 11,7 C 97 % 1026,7 hPa 0,0 l/m 0,0 km/h (0 Bft) S 177 0 min 0,000 mm 0,0 UV-I 0 W/m 7,6 C 8,0 C 0,0 km/h (0 Bft) 97,87 %
16.10.2017 04:16 8,0 C 11,7 C 97 % 1026,7 hPa 0,0 l/m 0,0 km/h (0 Bft) S 177 0 min 0,000 mm 0,0 UV-I 0 W/m 7,6 C 8,0 C 0,0 km/h (0 Bft) 98,11 %
16.10.2017 04:18 8,1 C 11,7 C 97 % 1026,8 hPa 0,0 l/m 0,0 km/h (0 Bft) S 177 0 min 0,000 mm 0,0 UV-I 0 W/m 7,7 C 8,1 C 0,0 km/h (0 Bft) 98,00 %
16.10.2017 04:20 8,2 C 11,7 C 97 % 1026,8 hPa 0,0 l/m 0,0 km/h (0 Bft) S 177 0 min 0,000 mm 0,0 UV-I 0 W/m 7,8 C 8,2 C 0,0 km/h (0 Bft) 97,56 %
16.10.2017 04:22 8,1 C 11,7 C 97 % 1026,7 hPa 0,0 l/m 0,0 km/h (0 Bft) S 177 0 min 0,000 mm 0,0 UV-I 0 W/m 7,7 C 8,1 C 0,0 km/h (0 Bft) 94,34 %
16.10.2017 04:24 8,1 C 11,7 C 97 % 1026,8 hPa 0,0 l/m 0,0 km/h (0 Bft) S 177 0 min 0,000 mm 0,0 UV-I 0 W/m 7,7 C 8,1 C 0,0 km/h (0 Bft) 97,37 %
16.10.2017 04:26 7,9 C 11,7 C 96 % 1026,8 hPa 0,0 l/m 0,0 km/h (0 Bft) S 177 0 min 0,000 mm 0,0 UV-I 0 W/m 7,3 C 7,9 C 0,0 km/h (0 Bft) 98,00 %
16.10.2017 04:28 7,8 C 11,7 C 96 % 1026,8 hPa 0,0 l/m 0,0 km/h (0 Bft) S 177 0 min 0,000 mm 0,0 UV-I 0 W/m 7,2 C 7,8 C 0,0 km/h (0 Bft) 98,11 %
16.10.2017 04:30 7,8 C 11,7 C 97 % 1026,8 hPa 0,0 l/m 0,0 km/h (0 Bft) S 177 0 min 0,000 mm 0,0 UV-I 0 W/m 7,4 C 7,8 C 0,0 km/h (0 Bft) 97,14 %
16.10.2017 04:32 7,8 C 11,7 C 97 % 1026,8 hPa 0,0 l/m 0,0 km/h (0 Bft) S 177 0 min 0,000 mm 0,0 UV-I 0 W/m 7,4 C 7,8 C 0,0 km/h (0 Bft) 98,11 %
16.10.2017 04:34 7,8 C 11,7 C 97 % 1026,8 hPa 0,0 l/m 0,0 km/h (0 Bft) S 177 0 min 0,000 mm 0,0 UV-I 0 W/m 7,4 C 7,8 C 0,0 km/h (0 Bft) 97,87 %
16.10.2017 04:36 7,8 C 11,7 C 97 % 1026,9 hPa 0,0 l/m 0,0 km/h (0 Bft) S 177 0 min 0,000 mm 0,0 UV-I 0 W/m 7,4 C 7,8 C 0,0 km/h (0 Bft) 96,00 %
16.10.2017 04:38 7,8 C 11,7 C 97 % 1026,9 hPa 0,0 l/m 0,0 km/h (0 Bft) S 177 0 min 0,000 mm 0,0 UV-I 0 W/m 7,4 C 7,8 C 0,0 km/h (0 Bft) 97,92 %
16.10.2017 04:40 7,8 C 11,7 C 97 % 1026,9 hPa 0,0 l/m 0,0 km/h (0 Bft) S 177 0 min 0,000 mm 0,0 UV-I 0 W/m 7,4 C 7,8 C 0,0 km/h (0 Bft) 97,37 %
16.10.2017 04:42 7,8 C 11,7 C 97 % 1026,9 hPa 0,0 l/m 0,0 km/h (0 Bft) S 177 0 min 0,000 mm 0,0 UV-I 0 W/m 7,4 C 7,8 C 0,0 km/h (0 Bft) 97,87 %
16.10.2017 04:44 7,7 C 11,7 C 97 % 1026,9 hPa 0,0 l/m 0,0 km/h (0 Bft) S 177 0 min 0,000 mm 0,0 UV-I 0 W/m 7,3 C 7,7 C 0,0 km/h (0 Bft) 95,74 %
16.10.2017 04:46 7,6 C 11,7 C 96 % 1026,9 hPa 0,0 l/m 0,0 km/h (0 Bft) S 177 0 min 0,000 mm 0,0 UV-I 0 W/m 7,0 C 7,6 C 0,0 km/h (0 Bft) 95,74 %
16.10.2017 04:48 7,6 C 11,7 C 96 % 1026,9 hPa 0,0 l/m 0,0 km/h (0 Bft) S 177 0 min 0,000 mm 0,0 UV-I 0 W/m 7,0 C 7,6 C 0,0 km/h (0 Bft) 92,00 %
16.10.2017 04:50 7,6 C 11,7 C 96 % 1026,9 hPa 0,0 l/m 0,0 km/h (0 Bft) S 177 0 min 0,000 mm 0,0 UV-I 0 W/m 7,0 C 7,6 C 0,0 km/h (0 Bft) 93,62 %
16.10.2017 04:52 7,6 C 11,7 C 97 % 1027,0 hPa 0,0 l/m 0,0 km/h (0 Bft) S 177 0 min 0,000 mm 0,0 UV-I 0 W/m 7,2 C 7,6 C 0,0 km/h (0 Bft) 95,74 %
16.10.2017 04:54 7,7 C 11,7 C 97 % 1026,9 hPa 0,0 l/m 0,0 km/h (0 Bft) S 177 0 min 0,000 mm 0,0 UV-I 0 W/m 7,3 C 7,7 C 0,0 km/h (0 Bft) 94,34 %
16.10.2017 04:56 7,7 C 11,7 C 97 % 1026,9 hPa 0,0 l/m 0,0 km/h (0 Bft) S 177 0 min 0,000 mm 0,0 UV-I 0 W/m 7,3 C 7,7 C 0,0 km/h (0 Bft) 97,87 %
16.10.2017 04:58 7,7 C 11,7 C 97 % 1026,9 hPa 0,0 l/m 0,0 km/h (0 Bft) S 177 0 min 0,000 mm 0,0 UV-I 0 W/m 7,3 C 7,7 C 0,0 km/h (0 Bft) 97,37 %
16.10.2017 05:00 7,7 C 11,7 C 97 % 1027,0 hPa 0,0 l/m 0,0 km/h (0 Bft) S 177 0 min 0,000 mm 0,0 UV-I 0 W/m 7,3 C 7,7 C 0,0 km/h (0 Bft) 96,00 %
16.10.2017 05:02 7,7 C 11,7 C 97 % 1026,9 hPa 0,0 l/m 0,0 km/h (0 Bft) S 177 0 min 0,000 mm 0,0 UV-I 0 W/m 7,3 C 7,7 C 0,0 km/h (0 Bft) 97,37 %
16.10.2017 05:04 7,6 C 11,7 C 97 % 1027,0 hPa 0,0 l/m 0,0 km/h (0 Bft) S 177 0 min 0,000 mm 0,0 UV-I 0 W/m 7,2 C 7,6 C 0,0 km/h (0 Bft) 98,11 %
16.10.2017 05:06 7,5 C 11,7 C 96 % 1027,0 hPa 0,0 l/m 0,0 km/h (0 Bft) S 177 0 min 0,000 mm 0,0 UV-I 0 W/m 6,9 C 7,5 C 0,0 km/h (0 Bft) 94,34 %
16.10.2017 05:08 7,4 C 11,7 C 96 % 1027,0 hPa 0,0 l/m 0,5 km/h (0 Bft) S 177 0 min 0,000 mm 0,0 UV-I 0 W/m 6,8 C 7,4 C 1,6 km/h (1 Bft) 95,12 %
16.10.2017 05:10 7,3 C 11,7 C 97 % 1027,0 hPa 0,0 l/m 1,1 km/h (1 Bft) S 177 0 min 0,000 mm 0,0 UV-I 0 W/m 6,9 C 7,3 C 3,2 km/h (1 Bft) 97,87 %
16.10.2017 05:12 7,3 C 11,7 C 97 % 1027,0 hPa 0,0 l/m 0,3 km/h (0 Bft) S 177 0 min 0,000 mm 0,0 UV-I 0 W/m 6,9 C 7,3 C 1,6 km/h (1 Bft) 98,00 %
16.10.2017 05:14 7,3 C 11,7 C 97 % 1027,0 hPa 0,0 l/m 0,7 km/h (0 Bft) S 177 0 min 0,000 mm 0,0 UV-I 0 W/m 6,9 C 7,3 C 3,2 km/h (1 Bft) 95,74 %
16.10.2017 05:16 7,3 C 11,7 C 97 % 1027,0 hPa 0,0 l/m 0,0 km/h (0 Bft) S 177 0 min 0,000 mm 0,0 UV-I 0 W/m 6,9 C 7,3 C 0,0 km/h (0 Bft) 96,00 %
16.10.2017 05:18 7,4 C 11,7 C 97 % 1027,0 hPa 0,0 l/m 0,0 km/h (0 Bft) S 177 0 min 0,000 mm 0,0 UV-I 0 W/m 7,0 C 7,4 C 0,0 km/h (0 Bft) 97,22 %
16.10.2017 05:20 7,4 C 11,7 C 97 % 1027,0 hPa 0,0 l/m 0,0 km/h (0 Bft) S 177 0 min 0,000 mm 0,0 UV-I 0 W/m 7,0 C 7,4 C 0,0 km/h (0 Bft) 98,11 %
16.10.2017 05:22 7,4 C 11,7 C 97 % 1027,0 hPa 0,0 l/m 0,0 km/h (0 Bft) S 177 0 min 0,000 mm 0,0 UV-I 0 W/m 7,0 C 7,4 C 0,0 km/h (0 Bft) 97,87 %
16.10.2017 05:24 7,3 C 11,7 C 97 % 1027,0 hPa 0,0 l/m 0,0 km/h (0 Bft) S 177 0 min 0,000 mm 0,0 UV-I 0 W/m 6,9 C 7,3 C 0,0 km/h (0 Bft) 100,00 %
16.10.2017 05:26 7,4 C 11,7 C 97 % 1027,0 hPa 0,0 l/m 0,0 km/h (0 Bft) S 177 0 min 0,000 mm 0,0 UV-I 0 W/m 7,0 C 7,4 C 0,0 km/h (0 Bft) 100,00 %
16.10.2017 05:28 7,4 C 11,7 C 97 % 1027,0 hPa 0,0 l/m 0,0 km/h (0 Bft) S 177 0 min 0,000 mm 0,0 UV-I 0 W/m 7,0 C 7,4 C 0,0 km/h (0 Bft) 100,00 %
16.10.2017 05:30 7,4 C 11,7 C 97 % 1027,0 hPa 0,0 l/m 0,0 km/h (0 Bft) S 177 0 min 0,000 mm 0,0 UV-I 0 W/m 7,0 C 7,4 C 0,0 km/h (0 Bft) 100,00 %
16.10.2017 05:32 7,5 C 11,7 C 97 % 1027,1 hPa 0,0 l/m 0,0 km/h (0 Bft) S 177 0 min 0,000 mm 0,0 UV-I 0 W/m 7,1 C 7,5 C 0,0 km/h (0 Bft) 100,00 %
16.10.2017 05:34 7,5 C 11,7 C 97 % 1027,1 hPa 0,0 l/m 0,0 km/h (0 Bft) S 177 0 min 0,000 mm 0,0 UV-I 0 W/m 7,1 C 7,5 C 0,0 km/h (0 Bft) 100,00 %
16.10.2017 05:36 7,6 C 11,7 C 97 % 1027,1 hPa 0,0 l/m 0,0 km/h (0 Bft) S 177 0 min 0,000 mm 0,0 UV-I 0 W/m 7,2 C 7,6 C 0,0 km/h (0 Bft) 98,39 %
16.10.2017 05:38 7,6 C 11,7 C 97 % 1027,0 hPa 0,0 l/m 0,0 km/h (0 Bft) S 177 0 min 0,000 mm 0,0 UV-I 0 W/m 7,2 C 7,6 C 0,0 km/h (0 Bft) 100,00 %
16.10.2017 05:40 7,6 C 11,7 C 97 % 1027,1 hPa 0,0 l/m 0,0 km/h (0 Bft) S 177 0 min 0,000 mm 0,0 UV-I 0 W/m 7,2 C 7,6 C 0,0 km/h (0 Bft) 100,00 %
16.10.2017 05:42 7,6 C 11,7 C 97 % 1027,1 hPa 0,0 l/m 0,0 km/h (0 Bft) S 177 0 min 0,000 mm 0,0 UV-I 0 W/m 7,2 C 7,6 C 0,0 km/h (0 Bft) 100,00 %
16.10.2017 05:44 7,6 C 11,7 C 97 % 1027,0 hPa 0,0 l/m 1,0 km/h (0 Bft) S 177 0 min 0,000 mm 0,0 UV-I 0 W/m 7,2 C 7,6 C 3,2 km/h (1 Bft) 100,00 %
16.10.2017 05:46 7,5 C 11,7 C 97 % 1027,1 hPa 0,0 l/m 0,9 km/h (0 Bft) S 177 0 min 0,000 mm 0,0 UV-I 0 W/m 7,1 C 7,5 C 3,2 km/h (1 Bft) 98,11 %
16.10.2017 05:48 7,3 C 11,7 C 97 % 1027,1 hPa 0,0 l/m 0,1 km/h (0 Bft) S 177 0 min 0,000 mm 0,0 UV-I 0 W/m 6,9 C 7,3 C 1,6 km/h (1 Bft) 100,00 %
16.10.2017 05:50 7,2 C 11,7 C 96 % 1027,1 hPa 0,0 l/m 0,0 km/h (0 Bft) S 177 0 min 0,000 mm 0,0 UV-I 0 W/m 6,6 C 7,2 C 0,0 km/h (0 Bft) 100,00 %
16.10.2017 05:52 7,2 C 11,7 C 97 % 1027,0 hPa 0,0 l/m 0,0 km/h (0 Bft) S 177 0 min 0,000 mm 0,0 UV-I 0 W/m 6,8 C 7,2 C 1,6 km/h (1 Bft) 100,00 %
16.10.2017 05:54 7,2 C 11,7 C 97 % 1027,1 hPa 0,0 l/m 0,0 km/h (0 Bft) S 177 0 min 0,000 mm 0,0 UV-I 0 W/m 6,8 C 7,2 C 0,0 km/h (0 Bft) 100,00 %
16.10.2017 05:56 7,3 C 11,7 C 97 % 1027,0 hPa 0,0 l/m 1,9 km/h (1 Bft) S 177 0 min 0,000 mm 0,0 UV-I 0 W/m 6,9 C 7,3 C 3,2 km/h (1 Bft) 100,00 %
16.10.2017 05:58 7,3 C 11,7 C 97 % 1027,0 hPa 0,0 l/m 1,3 km/h (1 Bft) S 177 0 min 0,000 mm 0,0 UV-I 0 W/m 6,9 C 7,3 C 1,6 km/h (1 Bft) 100,00 %
16.10.2017 06:00 7,4 C 11,7 C 97 % 1027,0 hPa 0,0 l/m 0,2 km/h (0 Bft) S 177 0 min 0,000 mm 0,0 UV-I 0 W/m 7,0 C 7,4 C 1,6 km/h (1 Bft) 100,00 %
16.10.2017 06:02 7,5 C 11,7 C 97 % 1027,1 hPa 0,0 l/m 0,0 km/h (0 Bft) S 177 0 min 0,000 mm 0,0 UV-I 0 W/m 7,1 C 7,5 C 0,0 km/h (0 Bft) 98,00 %
16.10.2017 06:04 7,5 C 11,7 C 97 % 1027,1 hPa 0,0 l/m 0,0 km/h (0 Bft) S 177 0 min 0,000 mm 0,0 UV-I 0 W/m 7,1 C 7,5 C 0,0 km/h (0 Bft) 100,00 %
16.10.2017 06:06 7,6 C 11,7 C 97 % 1027,1 hPa 0,0 l/m 0,0 km/h (0 Bft) S 177 0 min 0,000 mm 0,0 UV-I 0 W/m 7,2 C 7,6 C 0,0 km/h (0 Bft) 100,00 %
16.10.2017 06:08 7,6 C 11,7 C 97 % 1027,1 hPa 0,0 l/m 0,0 km/h (0 Bft) S 177 0 min 0,000 mm 0,0 UV-I 0 W/m 7,2 C 7,6 C 0,0 km/h (0 Bft) 97,56 %
16.10.2017 06:10 7,7 C 11,7 C 97 % 1027,1 hPa 0,0 l/m 0,0 km/h (0 Bft) S 177 0 min 0,000 mm 0,0 UV-I 0 W/m 7,3 C 7,7 C 0,0 km/h (0 Bft) 98,00 %
16.10.2017 06:12 7,7 C 11,7 C 97 % 1027,1 hPa 0,0 l/m 0,0 km/h (0 Bft) S 177 0 min 0,000 mm 0,0 UV-I 0 W/m 7,3 C 7,7 C 0,0 km/h (0 Bft) 100,00 %
16.10.2017 06:14 7,7 C 11,7 C 97 % 1027,1 hPa 0,0 l/m 0,0 km/h (0 Bft) S 177 0 min 0,000 mm 0,0 UV-I 0 W/m 7,3 C 7,7 C 0,0 km/h (0 Bft) 100,00 %
16.10.2017 06:16 7,7 C 11,7 C 97 % 1027,1 hPa 0,0 l/m 0,0 km/h (0 Bft) S 177 0 min 0,000 mm 0,0 UV-I 0 W/m 7,3 C 7,7 C 0,0 km/h (0 Bft) 100,00 %
16.10.2017 06:18 7,7 C 11,7 C 97 % 1027,1 hPa 0,0 l/m 0,0 km/h (0 Bft) S 177 0 min 0,000 mm 0,0 UV-I 0 W/m 7,3 C 7,7 C 0,0 km/h (0 Bft) 100,00 %
16.10.2017 06:20 7,7 C 11,7 C 97 % 1027,1 hPa 0,0 l/m 0,0 km/h (0 Bft) S 177 0 min 0,000 mm 0,0 UV-I 0 W/m 7,3 C 7,7 C 0,0 km/h (0 Bft) 100,00 %
16.10.2017 06:22 7,6 C 11,7 C 97 % 1027,1 hPa 0,0 l/m 0,0 km/h (0 Bft) S 177 0 min 0,000 mm 0,0 UV-I 0 W/m 7,2 C 7,6 C 0,0 km/h (0 Bft) 97,37 %
16.10.2017 06:24 7,6 C 11,7 C 97 % 1027,1 hPa 0,0 l/m 0,0 km/h (0 Bft) S 177 0 min 0,000 mm 0,0 UV-I 0 W/m 7,2 C 7,6 C 0,0 km/h (0 Bft) 100,00 %
16.10.2017 06:26 7,6 C 11,7 C 97 % 1027,1 hPa 0,0 l/m 0,0 km/h (0 Bft) S 177 0 min 0,000 mm 0,0 UV-I 0 W/m 7,2 C 7,6 C 0,0 km/h (0 Bft) 98,11 %
16.10.2017 06:28 7,5 C 11,7 C 97 % 1027,1 hPa 0,0 l/m 0,0 km/h (0 Bft) S 177 0 min 0,000 mm 0,0 UV-I 0 W/m 7,1 C 7,5 C 0,0 km/h (0 Bft) 100,00 %
16.10.2017 06:30 7,5 C 11,7 C 97 % 1027,1 hPa 0,0 l/m 0,0 km/h (0 Bft) S 177 0 min 0,000 mm 0,0 UV-I 0 W/m 7,1 C 7,5 C 0,0 km/h (0 Bft) 97,87 %
16.10.2017 06:32 7,5 C 11,7 C 97 % 1027,1 hPa 0,0 l/m 0,0 km/h (0 Bft) S 177 0 min 0,000 mm 0,0 UV-I 0 W/m 7,1 C 7,5 C 0,0 km/h (0 Bft) 98,00 %
16.10.2017 06:34 7,4 C 11,7 C 97 % 1027,2 hPa 0,0 l/m 0,0 km/h (0 Bft) S 177 0 min 0,000 mm 0,0 UV-I 0 W/m 7,0 C 7,4 C 0,0 km/h (0 Bft) 100,00 %
16.10.2017 06:36 7,4 C 11,7 C 97 % 1027,1 hPa 0,0 l/m 0,0 km/h (0 Bft) S 177 0 min 0,000 mm 0,0 UV-I 0 W/m 7,0 C 7,4 C 0,0 km/h (0 Bft) 100,00 %
16.10.2017 06:38 7,4 C 11,7 C 97 % 1027,2 hPa 0,0 l/m 0,0 km/h (0 Bft) S 177 0 min 0,000 mm 0,0 UV-I 0 W/m 7,0 C 7,4 C 0,0 km/h (0 Bft) 100,00 %
16.10.2017 06:40 7,3 C 11,7 C 97 % 1027,2 hPa 0,0 l/m 0,0 km/h (0 Bft) S 177 0 min 0,000 mm 0,0 UV-I 0 W/m 6,9 C 7,3 C 0,0 km/h (0 Bft) 97,87 %
16.10.2017 06:42 7,3 C 11,7 C 97 % 1027,1 hPa 0,0 l/m 0,0 km/h (0 Bft) S 177 0 min 0,000 mm 0,0 UV-I 0 W/m 6,9 C 7,3 C 0,0 km/h (0 Bft) 100,00 %
16.10.2017 06:44 7,3 C 11,7 C 97 % 1027,1 hPa 0,0 l/m 0,3 km/h (0 Bft) S 177 0 min 0,000 mm 0,0 UV-I 0 W/m 6,9 C 7,3 C 1,6 km/h (1 Bft) 100,00 %
16.10.2017 06:46 7,3 C 11,7 C 97 % 1027,1 hPa 0,0 l/m 1,4 km/h (1 Bft) S 177 0 min 0,000 mm 0,0 UV-I 0 W/m 6,9 C 7,3 C 3,2 km/h (1 Bft) 100,00 %
16.10.2017 06:48 7,2 C 11,7 C 97 % 1027,0 hPa 0,0 l/m 2,2 km/h (1 Bft) S 177 0 min 0,000 mm 0,0 UV-I 0 W/m 6,8 C 7,2 C 3,2 km/h (1 Bft) 100,00 %
16.10.2017 06:50 7,1 C 11,7 C 97 % 1027,0 hPa 0,0 l/m 2,3 km/h (1 Bft) S 177 0 min 0,000 mm 0,0 UV-I 0 W/m 6,7 C 7,1 C 3,2 km/h (1 Bft) 100,00 %
16.10.2017 06:52 6,9 C 11,7 C 97 % 1027,0 hPa 0,0 l/m 1,1 km/h (1 Bft) S 177 0 min 0,000 mm 0,0 UV-I 0 W/m 6,5 C 6,9 C 1,6 km/h (1 Bft) 100,00 %
16.10.2017 06:54 6,9 C 11,7 C 97 % 1027,0 hPa 0,0 l/m 0,0 km/h (0 Bft) S 177 0 min 0,000 mm 0,0 UV-I 0 W/m 6,5 C 6,9 C 0,0 km/h (0 Bft) 100,00 %
16.10.2017 06:56 6,9 C 11,7 C 97 % 1027,0 hPa 0,0 l/m 0,0 km/h (0 Bft) S 177 0 min 0,000 mm 0,0 UV-I 0 W/m 6,5 C 6,9 C 0,0 km/h (0 Bft) 100,00 %
16.10.2017 06:58 6,9 C 11,7 C 97 % 1027,0 hPa 0,0 l/m 0,0 km/h (0 Bft) S 177 0 min 0,000 mm 0,0 UV-I 0 W/m 6,5 C 6,9 C 0,0 km/h (0 Bft) 95,74 %
16.10.2017 07:00 6,8 C 11,7 C 97 % 1027,0 hPa 0,0 l/m 0,0 km/h (0 Bft) S 177 0 min 0,000 mm 0,0 UV-I 0 W/m 6,4 C 6,8 C 0,0 km/h (0 Bft) 97,56 %
16.10.2017 07:02 6,8 C 11,7 C 97 % 1027,0 hPa 0,0 l/m 0,0 km/h (0 Bft) S 177 0 min 0,000 mm 0,0 UV-I 0 W/m 6,4 C 6,8 C 0,0 km/h (0 Bft) 97,62 %
16.10.2017 07:04 6,8 C 11,7 C 97 % 1027,0 hPa 0,0 l/m 0,0 km/h (0 Bft) S 177 0 min 0,000 mm 0,0 UV-I 0 W/m 6,4 C 6,8 C 0,0 km/h (0 Bft) 98,11 %
16.10.2017 07:06 6,7 C 11,7 C 97 % 1027,0 hPa 0,0 l/m 0,0 km/h (0 Bft) S 177 0 min 0,000 mm 0,0 UV-I 0 W/m 6,3 C 6,7 C 0,0 km/h (0 Bft) 94,00 %
16.10.2017 07:08 6,7 C 11,7 C 97 % 1027,0 hPa 0,0 l/m 0,7 km/h (0 Bft) S 177 0 min 0,000 mm 0,0 UV-I 1 W/m 6,3 C 6,7 C 1,6 km/h (1 Bft) 95,74 %
16.10.2017 07:10 6,8 C 11,7 C 97 % 1027,0 hPa 0,0 l/m 1,3 km/h (1 Bft) S 177 0 min 0,000 mm 0,0 UV-I 5 W/m 6,4 C 6,8 C 3,2 km/h (1 Bft) 100,00 %
16.10.2017 07:12 6,8 C 11,7 C 97 % 1027,0 hPa 0,0 l/m 2,6 km/h (1 Bft) S 177 0 min 0,000 mm 0,0 UV-I 5 W/m 6,4 C 6,8 C 3,2 km/h (1 Bft) 95,16 %
16.10.2017 07:14 6,9 C 11,7 C 97 % 1027,0 hPa 0,0 l/m 2,5 km/h (1 Bft) S 177 0 min 0,000 mm 0,0 UV-I 5 W/m 6,5 C 6,9 C 3,2 km/h (1 Bft) 96,23 %
16.10.2017 07:16 6,9 C 11,7 C 97 % 1027,0 hPa 0,0 l/m 1,5 km/h (1 Bft) S 177 0 min 0,000 mm 0,0 UV-I 5 W/m 6,5 C 6,9 C 1,6 km/h (1 Bft) 92,68 %
16.10.2017 07:18 7,0 C 11,7 C 97 % 1027,0 hPa 0,0 l/m 1,2 km/h (1 Bft) S 177 0 min 0,000 mm 0,0 UV-I 5 W/m 6,6 C 7,0 C 3,2 km/h (1 Bft) 94,00 %
16.10.2017 07:20 6,9 C 11,7 C 97 % 1027,0 hPa 0,0 l/m 0,0 km/h (0 Bft) S 177 0 min 0,000 mm 0,0 UV-I 7 W/m 6,5 C 6,9 C 0,0 km/h (0 Bft) 95,74 %
16.10.2017 07:22 6,8 C 11,7 C 97 % 1027,0 hPa 0,0 l/m 0,0 km/h (0 Bft) S 177 0 min 0,000 mm 0,0 UV-I 7 W/m 6,4 C 6,8 C 0,0 km/h (0 Bft) 95,74 %
16.10.2017 07:24 6,8 C 11,7 C 97 % 1027,1 hPa 0,0 l/m 0,0 km/h (0 Bft) S 177 0 min 0,000 mm 0,0 UV-I 9 W/m 6,4 C 6,8 C 0,0 km/h (0 Bft) 94,00 %
16.10.2017 07:26 6,8 C 11,7 C 97 % 1027,1 hPa 0,0 l/m 0,0 km/h (0 Bft) S 177 0 min 0,000 mm 0,0 UV-I 9 W/m 6,4 C 6,8 C 0,0 km/h (0 Bft) 94,74 %
16.10.2017 07:28 6,8 C 11,7 C 97 % 1027,2 hPa 0,0 l/m 0,0 km/h (0 Bft) S 177 0 min 0,000 mm 0,0 UV-I 11 W/m 6,4 C 6,8 C 1,6 km/h (1 Bft) 96,23 %
16.10.2017 07:30 6,7 C 11,7 C 97 % 1027,2 hPa 0,0 l/m 0,0 km/h (0 Bft) S 177 0 min 0,000 mm 0,0 UV-I 11 W/m 6,3 C 6,7 C 0,0 km/h (0 Bft) 95,12 %
16.10.2017 07:32 6,7 C 11,7 C 97 % 1027,2 hPa 0,0 l/m 0,0 km/h (0 Bft) S 177 0 min 0,000 mm 0,0 UV-I 12 W/m 6,3 C 6,7 C 0,0 km/h (0 Bft) 90,57 %
16.10.2017 07:34 6,7 C 11,7 C 97 % 1027,2 hPa 0,0 l/m 0,0 km/h (0 Bft) S 177 0 min 0,000 mm 0,0 UV-I 12 W/m 6,3 C 6,7 C 0,0 km/h (0 Bft) 93,62 %
16.10.2017 07:36 6,6 C 11,7 C 97 % 1027,2 hPa 0,0 l/m 0,0 km/h (0 Bft) S 177 2 min 0,000 mm 0,0 UV-I 13 W/m 6,2 C 6,6 C 0,0 km/h (0 Bft) 94,00 %
16.10.2017 07:38 6,6 C 11,7 C 97 % 1027,2 hPa 0,0 l/m 0,0 km/h (0 Bft) S 177 2 min 0,000 mm 0,0 UV-I 14 W/m 6,2 C 6,6 C 0,0 km/h (0 Bft) 94,74 %
16.10.2017 07:40 6,5 C 11,7 C 97 % 1027,2 hPa 0,0 l/m 0,0 km/h (0 Bft) S 177 0 min 0,000 mm 0,0 UV-I 15 W/m 6,1 C 6,5 C 0,0 km/h (0 Bft) 98,00 %
16.10.2017 07:42 6,6 C 11,7 C 97 % 1027,2 hPa 0,0 l/m 0,1 km/h (0 Bft) S 177 0 min 0,000 mm 0,0 UV-I 16 W/m 6,2 C 6,6 C 1,6 km/h (1 Bft) 95,74 %
16.10.2017 07:44 6,6 C 11,7 C 97 % 1027,2 hPa 0,0 l/m 0,3 km/h (0 Bft) S 177 0 min 0,000 mm 0,0 UV-I 16 W/m 6,2 C 6,6 C 1,6 km/h (1 Bft) 98,11 %
16.10.2017 07:46 6,6 C 11,7 C 97 % 1027,2 hPa 0,0 l/m 0,2 km/h (0 Bft) S 177 0 min 0,000 mm 0,0 UV-I 18 W/m 6,2 C 6,6 C 1,6 km/h (1 Bft) 97,56 %
16.10.2017 07:48 6,7 C 11,7 C 97 % 1027,2 hPa 0,0 l/m 0,0 km/h (0 Bft) S 177 0 min 0,000 mm 0,0 UV-I 18 W/m 6,3 C 6,7 C 1,6 km/h (1 Bft) 97,87 %
16.10.2017 07:50 6,7 C 11,7 C 97 % 1027,3 hPa 0,0 l/m 0,0 km/h (0 Bft) S 177 0 min 0,000 mm 0,0 UV-I 19 W/m 6,3 C 6,7 C 0,0 km/h (0 Bft) 96,00 %
16.10.2017 07:52 6,8 C 11,7 C 97 % 1027,2 hPa 0,0 l/m 0,0 km/h (0 Bft) S 177 0 min 0,000 mm 0,0 UV-I 20 W/m 6,4 C 6,8 C 0,0 km/h (0 Bft) 97,87 %
16.10.2017 07:54 6,8 C 11,7 C 97 % 1027,3 hPa 0,0 l/m 0,0 km/h (0 Bft) S 177 0 min 0,000 mm 0,0 UV-I 28 W/m 6,4 C 6,8 C 0,0 km/h (0 Bft) 95,74 %
16.10.2017 07:56 6,8 C 11,7 C 97 % 1027,3 hPa 0,0 l/m 0,0 km/h (0 Bft) S 177 2 min 0,000 mm 0,0 UV-I 42 W/m 6,4 C 6,8 C 0,0 km/h (0 Bft) 97,92 %
16.10.2017 07:58 6,8 C 11,7 C 97 % 1027,3 hPa 0,0 l/m 0,0 km/h (0 Bft) S 177 2 min 0,000 mm 0,0 UV-I 67 W/m 6,4 C 6,8 C 0,0 km/h (0 Bft) 97,37 %
16.10.2017 08:00 6,7 C 11,7 C 97 % 1027,2 hPa 0,0 l/m 0,0 km/h (0 Bft) S 177 2 min 0,000 mm 0,0 UV-I 71 W/m 6,3 C 6,7 C 0,0 km/h (0 Bft) 97,37 %
16.10.2017 08:02 6,7 C 11,7 C 97 % 1027,3 hPa 0,0 l/m 0,0 km/h (0 Bft) S 177 2 min 0,000 mm 0,0 UV-I 75 W/m 6,3 C 6,7 C 0,0 km/h (0 Bft) 96,92 %
16.10.2017 08:04 6,9 C 11,7 C 97 % 1027,3 hPa 0,0 l/m 0,0 km/h (0 Bft) S 177 2 min 0,000 mm 0,0 UV-I 79 W/m 6,5 C 6,9 C 0,0 km/h (0 Bft) 97,37 %
16.10.2017 08:06 7,1 C 11,7 C 97 % 1027,4 hPa 0,0 l/m 0,0 km/h (0 Bft) S 177 2 min 0,000 mm 0,0 UV-I 83 W/m 6,7 C 7,1 C 0,0 km/h (0 Bft) 98,11 %
16.10.2017 08:08 7,2 C 11,7 C 98 % 1027,3 hPa 0,0 l/m 0,0 km/h (0 Bft) S 177 2 min 0,000 mm 0,0 UV-I 87 W/m 6,9 C 7,2 C 0,0 km/h (0 Bft) 97,87 %
16.10.2017 08:10 7,2 C 11,7 C 97 % 1027,4 hPa 0,2 l/m 0,0 km/h (0 Bft) S 177 2 min 0,000 mm 0,0 UV-I 90 W/m 6,8 C 7,2 C 0,0 km/h (0 Bft) 97,14 %
16.10.2017 08:12 7,2 C 11,7 C 97 % 1027,3 hPa 0,0 l/m 0,0 km/h (0 Bft) S 177 2 min 0,000 mm 0,0 UV-I 95 W/m 6,8 C 7,2 C 0,0 km/h (0 Bft) 96,77 %
16.10.2017 08:14 7,2 C 11,7 C 97 % 1027,4 hPa 0,0 l/m 0,0 km/h (0 Bft) S 177 2 min 0,000 mm 0,0 UV-I 99 W/m 6,8 C 7,2 C 0,0 km/h (0 Bft) 97,37 %
16.10.2017 08:16 7,3 C 11,7 C 97 % 1027,3 hPa 0,0 l/m 0,0 km/h (0 Bft) S 177 2 min 0,000 mm 0,0 UV-I 104 W/m 6,9 C 7,3 C 0,0 km/h (0 Bft) 100,00 %
16.10.2017 08:18 7,3 C 11,7 C 97 % 1027,3 hPa 0,0 l/m 0,0 km/h (0 Bft) S 177 2 min 0,000 mm 0,0 UV-I 108 W/m 6,9 C 7,3 C 0,0 km/h (0 Bft) 100,00 %
16.10.2017 08:20 7,3 C 11,7 C 97 % 1027,3 hPa 0,0 l/m 0,0 km/h (0 Bft) S 177 2 min 0,000 mm 0,0 UV-I 113 W/m 6,9 C 7,3 C 0,0 km/h (0 Bft) 100,00 %
16.10.2017 08:22 7,3 C 11,7 C 97 % 1027,3 hPa 0,0 l/m 0,0 km/h (0 Bft) S 177 2 min 0,000 mm 0,0 UV-I 116 W/m 6,9 C 7,3 C 0,0 km/h (0 Bft) 100,00 %
16.10.2017 08:24 7,4 C 11,7 C 97 % 1027,3 hPa 0,0 l/m 0,0 km/h (0 Bft) S 177 2 min 0,000 mm 0,0 UV-I 121 W/m 7,0 C 7,4 C 0,0 km/h (0 Bft) 98,11 %
16.10.2017 08:26 7,7 C 11,7 C 97 % 1027,3 hPa 0,0 l/m 0,0 km/h (0 Bft) S 177 2 min 0,000 mm 0,0 UV-I 125 W/m 7,3 C 7,7 C 0,0 km/h (0 Bft) 95,74 %
16.10.2017 08:28 7,8 C 11,7 C 97 % 1027,3 hPa 0,0 l/m 0,0 km/h (0 Bft) S 177 2 min 0,000 mm 0,0 UV-I 129 W/m 7,4 C 7,8 C 0,0 km/h (0 Bft) 100,00 %
16.10.2017 08:30 7,8 C 11,7 C 97 % 1027,3 hPa 0,0 l/m 0,0 km/h (0 Bft) S 177 2 min 0,000 mm 0,0 UV-I 133 W/m 7,4 C 7,8 C 0,0 km/h (0 Bft) 97,44 %
16.10.2017 08:32 7,8 C 11,7 C 98 % 1027,3 hPa 0,0 l/m 0,0 km/h (0 Bft) S 177 2 min 0,000 mm 0,0 UV-I 138 W/m 7,5 C 7,8 C 0,0 km/h (0 Bft) 100,00 %
16.10.2017 08:34 7,9 C 11,7 C 98 % 1027,2 hPa 0,0 l/m 0,0 km/h (0 Bft) S 177 2 min 0,000 mm 0,0 UV-I 142 W/m 7,6 C 7,9 C 0,0 km/h (0 Bft) 100,00 %
16.10.2017 08:36 8,2 C 11,7 C 97 % 1027,2 hPa 0,0 l/m 0,0 km/h (0 Bft) S 177 2 min 0,000 mm 0,0 UV-I 147 W/m 7,8 C 8,2 C 0,0 km/h (0 Bft) 100,00 %
16.10.2017 08:38 8,4 C 11,7 C 98 % 1027,2 hPa 0,0 l/m 0,0 km/h (0 Bft) S 177 2 min 0,000 mm 0,0 UV-I 152 W/m 8,1 C 8,4 C 0,0 km/h (0 Bft) 100,00 %
16.10.2017 08:40 8,5 C 11,7 C 97 % 1027,3 hPa 0,0 l/m 0,0 km/h (0 Bft) S 177 2 min 0,000 mm 0,0 UV-I 157 W/m 8,1 C 8,5 C 0,0 km/h (0 Bft) 98,00 %
16.10.2017 08:42 8,7 C 11,7 C 98 % 1027,3 hPa 0,0 l/m 0,0 km/h (0 Bft) S 177 2 min 0,000 mm 0,0 UV-I 161 W/m 8,4 C 8,7 C 0,0 km/h (0 Bft) 100,00 %
16.10.2017 08:44 8,9 C 11,7 C 98 % 1027,3 hPa 0,0 l/m 0,0 km/h (0 Bft) S 177 2 min 0,000 mm 0,0 UV-I 165 W/m 8,6 C 8,9 C 0,0 km/h (0 Bft) 100,00 %
16.10.2017 08:46 9,2 C 11,7 C 98 % 1027,3 hPa 0,0 l/m 0,0 km/h (0 Bft) S 177 2 min 0,000 mm 0,0 UV-I 170 W/m 8,9 C 9,2 C 0,0 km/h (0 Bft) 97,87 %
16.10.2017 08:48 9,2 C 11,7 C 98 % 1027,4 hPa 0,0 l/m 0,0 km/h (0 Bft) S 177 2 min 0,000 mm 0,0 UV-I 174 W/m 8,9 C 9,2 C 0,0 km/h (0 Bft) 96,43 %
16.10.2017 08:50 9,3 C 11,7 C 98 % 1027,4 hPa 0,0 l/m 0,0 km/h (0 Bft) S 177 2 min 0,000 mm 0,0 UV-I 178 W/m 9,0 C 9,3 C 0,0 km/h (0 Bft) 94,74 %
16.10.2017 08:52 9,4 C 11,7 C 98 % 1027,4 hPa 0,0 l/m 0,0 km/h (0 Bft) S 177 2 min 0,000 mm 0,0 UV-I 182 W/m 9,1 C 9,4 C 0,0 km/h (0 Bft) 100,00 %
16.10.2017 08:54 9,5 C 11,7 C 98 % 1027,5 hPa 0,0 l/m 0,0 km/h (0 Bft) S 177 2 min 0,000 mm 0,0 UV-I 186 W/m 9,2 C 9,5 C 0,0 km/h (0 Bft) 100,00 %
16.10.2017 08:56 9,6 C 11,7 C 98 % 1027,4 hPa 0,0 l/m 0,3 km/h (0 Bft) S 177 2 min 0,000 mm 0,0 UV-I 191 W/m 9,3 C 9,6 C 1,6 km/h (1 Bft) 100,00 %
16.10.2017 08:58 9,6 C 11,7 C 98 % 1027,5 hPa 0,0 l/m 1,5 km/h (1 Bft) S 177 2 min 0,000 mm 0,0 UV-I 196 W/m 9,3 C 9,6 C 1,6 km/h (1 Bft) 100,00 %
16.10.2017 09:00 9,6 C 11,7 C 97 % 1027,4 hPa 0,0 l/m 0,7 km/h (0 Bft) S 177 2 min 0,000 mm 0,0 UV-I 200 W/m 9,1 C 9,6 C 1,6 km/h (1 Bft) 98,00 %
16.10.2017 09:02 9,8 C 11,7 C 97 % 1027,4 hPa 0,0 l/m 1,0 km/h (0 Bft) S 177 2 min 0,051 mm 0,0 UV-I 205 W/m 9,3 C 9,8 C 3,2 km/h (1 Bft) 100,00 %
16.10.2017 09:04 9,9 C 11,7 C 97 % 1027,5 hPa 0,0 l/m 0,3 km/h (0 Bft) S 177 2 min 0,000 mm 0,0 UV-I 208 W/m 9,4 C 9,9 C 1,6 km/h (1 Bft) 100,00 %
16.10.2017 09:06 10,0 C 11,7 C 97 % 1027,4 hPa 0,0 l/m 0,0 km/h (0 Bft) S 177 2 min 0,000 mm 0,0 UV-I 213 W/m 9,5 C 10,0 C 0,0 km/h (0 Bft) 97,87 %
16.10.2017 09:08 10,2 C 11,7 C 97 % 1027,5 hPa 0,0 l/m 0,0 km/h (0 Bft) S 177 2 min 0,000 mm 0,0 UV-I 218 W/m 9,7 C 10,2 C 0,0 km/h (0 Bft) 98,11 %
16.10.2017 09:10 10,2 C 11,7 C 97 % 1027,5 hPa 0,0 l/m 0,2 km/h (0 Bft) S 177 2 min 0,000 mm 0,0 UV-I 223 W/m 9,7 C 10,2 C 1,6 km/h (1 Bft) 97,44 %
16.10.2017 09:12 10,2 C 11,7 C 97 % 1027,5 hPa 0,0 l/m 1,1 km/h (1 Bft) S 177 2 min 0,000 mm 0,3 UV-I 229 W/m 9,7 C 10,2 C 3,2 km/h (1 Bft) 98,18 %
16.10.2017 09:14 10,3 C 11,7 C 97 % 1027,5 hPa 0,0 l/m 1,3 km/h (1 Bft) S 177 2 min 0,000 mm 0,5 UV-I 233 W/m 9,8 C 10,3 C 1,6 km/h (1 Bft) 97,44 %
16.10.2017 09:16 10,4 C 11,7 C 97 % 1027,5 hPa 0,0 l/m 1,1 km/h (1 Bft) S 177 2 min 0,000 mm 0,5 UV-I 238 W/m 9,9 C 10,4 C 3,2 km/h (1 Bft) 93,62 %
16.10.2017 09:18 10,5 C 11,7 C 97 % 1027,5 hPa 0,0 l/m 0,1 km/h (0 Bft) S 177 2 min 0,000 mm 0,5 UV-I 242 W/m 10,0 C 10,5 C 1,6 km/h (1 Bft) 98,00 %
16.10.2017 09:20 10,6 C 11,7 C 97 % 1027,5 hPa 0,0 l/m 0,8 km/h (0 Bft) S 177 2 min 0,000 mm 0,5 UV-I 246 W/m 10,1 C 10,6 C 3,2 km/h (1 Bft) 94,00 %
16.10.2017 09:22 10,7 C 11,7 C 97 % 1027,5 hPa 0,0 l/m 1,8 km/h (1 Bft) S 177 2 min 0,000 mm 0,5 UV-I 252 W/m 10,2 C 10,7 C 3,2 km/h (1 Bft) 97,87 %
16.10.2017 09:24 10,8 C 11,7 C 97 % 1027,5 hPa 0,0 l/m 1,6 km/h (1 Bft) S 177 2 min 0,000 mm 0,6 UV-I 257 W/m 10,3 C 10,8 C 3,2 km/h (1 Bft) 94,00 %
16.10.2017 09:26 10,8 C 11,7 C 96 % 1027,5 hPa 0,0 l/m 2,3 km/h (1 Bft) S 177 2 min 0,000 mm 0,6 UV-I 262 W/m 10,2 C 10,8 C 3,2 km/h (1 Bft) 97,73 %
16.10.2017 09:28 10,9 C 11,7 C 96 % 1027,5 hPa 0,0 l/m 2,9 km/h (1 Bft) S 169 2 min 0,000 mm 0,6 UV-I 266 W/m 10,3 C 10,9 C 3,2 km/h (1 Bft) 98,00 %
16.10.2017 09:30 11,0 C 11,7 C 96 % 1027,5 hPa 0,0 l/m 2,6 km/h (1 Bft) S 169 2 min 0,000 mm 0,6 UV-I 271 W/m 10,4 C 11,0 C 3,2 km/h (1 Bft) 97,56 %
16.10.2017 09:32 11,1 C 11,7 C 95 % 1027,6 hPa 0,0 l/m 1,7 km/h (1 Bft) O 101 2 min 0,000 mm 0,6 UV-I 276 W/m 10,3 C 11,1 C 3,2 km/h (1 Bft) 98,11 %
16.10.2017 09:34 11,1 C 11,7 C 95 % 1027,5 hPa 0,0 l/m 2,4 km/h (1 Bft) O 101 2 min 0,000 mm 0,7 UV-I 281 W/m 10,3 C 11,1 C 3,2 km/h (1 Bft) 97,37 %
16.10.2017 09:36 11,2 C 11,7 C 95 % 1027,5 hPa 0,0 l/m 1,3 km/h (1 Bft) O 101 2 min 0,000 mm 0,7 UV-I 288 W/m 10,4 C 11,2 C 3,2 km/h (1 Bft) 100,00 %
16.10.2017 09:38 11,4 C 11,7 C 95 % 1027,5 hPa 0,0 l/m 1,4 km/h (1 Bft) O 85 2 min 0,000 mm 0,7 UV-I 292 W/m 10,6 C 11,4 C 3,2 km/h (1 Bft) 100,00 %
16.10.2017 09:40 11,4 C 11,7 C 95 % 1027,6 hPa 0,0 l/m 2,5 km/h (1 Bft) O 85 2 min 0,000 mm 0,7 UV-I 300 W/m 10,6 C 11,4 C 3,2 km/h (1 Bft) 97,37 %
16.10.2017 09:42 11,4 C 11,7 C 94 % 1027,5 hPa 0,0 l/m 1,3 km/h (1 Bft) O-NO 68 2 min 0,000 mm 0,8 UV-I 305 W/m 10,5 C 11,4 C 4,8 km/h (1 Bft) 97,87 %
16.10.2017 09:44 11,5 C 11,7 C 94 % 1027,5 hPa 0,0 l/m 2,5 km/h (1 Bft) O-NO 61 2 min 0,000 mm 0,8 UV-I 312 W/m 10,6 C 11,5 C 4,8 km/h (1 Bft) 100,00 %
16.10.2017 09:46 11,6 C 11,7 C 94 % 1027,5 hPa 0,0 l/m 2,5 km/h (1 Bft) O-NO 61 2 min 0,000 mm 0,8 UV-I 319 W/m 10,7 C 11,6 C 3,2 km/h (1 Bft) 97,62 %
16.10.2017 09:48 11,7 C 11,7 C 94 % 1027,5 hPa 0,0 l/m 2,5 km/h (1 Bft) O-NO 61 2 min 0,000 mm 0,8 UV-I 325 W/m 10,8 C 11,7 C 4,8 km/h (1 Bft) 100,00 %
16.10.2017 09:50 11,8 C 11,7 C 94 % 1027,5 hPa 0,0 l/m 1,8 km/h (1 Bft) O-NO 61 2 min 0,000 mm 0,8 UV-I 331 W/m 10,9 C 11,8 C 3,2 km/h (1 Bft) 96,00 %
16.10.2017 09:52 11,8 C 11,7 C 93 % 1027,5 hPa 0,0 l/m 2,9 km/h (1 Bft) O-NO 61 2 min 0,000 mm 0,9 UV-I 338 W/m 10,7 C 11,8 C 4,8 km/h (1 Bft) 100,00 %
16.10.2017 09:54 11,8 C 11,7 C 93 % 1027,4 hPa 0,0 l/m 3,2 km/h (1 Bft) O-NO 61 2 min 0,000 mm 0,9 UV-I 344 W/m 10,7 C 11,8 C 4,8 km/h (1 Bft) 97,44 %
16.10.2017 09:56 12,1 C 11,7 C 93 % 1027,4 hPa 0,0 l/m 2,6 km/h (1 Bft) O-NO 61 2 min 0,000 mm 0,9 UV-I 349 W/m 11,0 C 12,1 C 4,8 km/h (1 Bft) 100,00 %
16.10.2017 09:58 12,1 C 11,7 C 93 % 1027,5 hPa 0,0 l/m 2,9 km/h (1 Bft) O-NO 61 2 min 0,000 mm 0,9 UV-I 355 W/m 11,0 C 12,1 C 4,8 km/h (1 Bft) 100,00 %
16.10.2017 10:00 12,2 C 11,7 C 93 % 1027,5 hPa 0,0 l/m 2,7 km/h (1 Bft) O-NO 61 2 min 0,127 mm 1,0 UV-I 359 W/m 11,1 C 12,2 C 3,2 km/h (1 Bft) 97,87 %
16.10.2017 10:02 12,3 C 11,7 C 92 % 1027,5 hPa 0,0 l/m 2,8 km/h (1 Bft) O-NO 61 2 min 0,000 mm 1,0 UV-I 363 W/m 11,0 C 12,3 C 3,2 km/h (1 Bft) 100,00 %
16.10.2017 10:04 12,3 C 11,7 C 92 % 1027,5 hPa 0,0 l/m 1,5 km/h (1 Bft) O-NO 61 2 min 0,000 mm 1,0 UV-I 367 W/m 11,0 C 12,3 C 3,2 km/h (1 Bft) 100,00 %
16.10.2017 10:06 12,3 C 11,7 C 92 % 1027,6 hPa 0,0 l/m 2,9 km/h (1 Bft) O-NO 61 2 min 0,000 mm 1,0 UV-I 370 W/m 11,0 C 12,3 C 4,8 km/h (1 Bft) 98,00 %
16.10.2017 10:08 12,3 C 11,7 C 91 % 1027,5 hPa 0,0 l/m 0,9 km/h (0 Bft) O-NO 61 2 min 0,000 mm 1,1 UV-I 376 W/m 10,9 C 12,3 C 3,2 km/h (1 Bft) 100,00 %
16.10.2017 10:10 12,3 C 11,7 C 91 % 1027,5 hPa 0,0 l/m 0,6 km/h (0 Bft) O-NO 61 2 min 0,000 mm 1,1 UV-I 379 W/m 10,9 C 12,3 C 3,2 km/h (1 Bft) 100,00 %
16.10.2017 10:12 12,4 C 11,7 C 90 % 1027,5 hPa 0,0 l/m 2,2 km/h (1 Bft) O-NO 61 2 min 0,000 mm 1,1 UV-I 384 W/m 10,8 C 12,4 C 3,2 km/h (1 Bft) 96,43 %
16.10.2017 10:14 12,4 C 11,7 C 90 % 1027,5 hPa 0,0 l/m 1,6 km/h (1 Bft) O-NO 61 2 min 0,000 mm 1,2 UV-I 389 W/m 10,8 C 12,4 C 3,2 km/h (1 Bft) 97,56 %
16.10.2017 10:16 12,6 C 11,7 C 90 % 1027,5 hPa 0,0 l/m 1,4 km/h (1 Bft) O-NO 61 2 min 0,000 mm 1,2 UV-I 394 W/m 11,0 C 12,6 C 3,2 km/h (1 Bft) 97,87 %
16.10.2017 10:18 12,7 C 11,7 C 91 % 1027,5 hPa 0,0 l/m 0,0 km/h (0 Bft) O-NO 61 2 min 0,000 mm 1,2 UV-I 397 W/m 11,3 C 12,7 C 1,6 km/h (1 Bft) 100,00 %
16.10.2017 10:20 12,8 C 11,7 C 90 % 1027,6 hPa 0,0 l/m 0,4 km/h (0 Bft) O-NO 61 2 min 0,000 mm 1,2 UV-I 402 W/m 11,2 C 12,8 C 3,2 km/h (1 Bft) 97,87 %
16.10.2017 10:22 12,8 C 11,7 C 90 % 1027,6 hPa 0,0 l/m 1,4 km/h (1 Bft) O-NO 61 2 min 0,000 mm 1,3 UV-I 405 W/m 11,2 C 12,8 C 3,2 km/h (1 Bft) 98,00 %
16.10.2017 10:24 12,9 C 11,7 C 90 % 1027,6 hPa 0,0 l/m 2,4 km/h (1 Bft) O-NO 61 2 min 0,000 mm 1,3 UV-I 410 W/m 11,3 C 12,9 C 4,8 km/h (1 Bft) 100,00 %
16.10.2017 10:26 12,9 C 11,7 C 89 % 1027,6 hPa 0,0 l/m 2,5 km/h (1 Bft) O-NO 61 2 min 0,000 mm 1,3 UV-I 414 W/m 11,1 C 12,9 C 3,2 km/h (1 Bft) 100,00 %
16.10.2017 10:28 13,0 C 11,7 C 89 % 1027,6 hPa 0,0 l/m 2,4 km/h (1 Bft) O-NO 61 2 min 0,000 mm 1,4 UV-I 418 W/m 11,2 C 13,0 C 3,2 km/h (1 Bft) 100,00 %
16.10.2017 10:30 13,2 C 11,7 C 90 % 1027,6 hPa 0,0 l/m 0,4 km/h (0 Bft) O-NO 61 2 min 0,000 mm 1,4 UV-I 421 W/m 11,6 C 13,2 C 1,6 km/h (1 Bft) 98,00 %
16.10.2017 10:32 13,2 C 11,7 C 88 % 1027,5 hPa 0,0 l/m 0,2 km/h (0 Bft) O-NO 61 2 min 0,000 mm 1,4 UV-I 425 W/m 11,3 C 13,2 C 1,6 km/h (1 Bft) 100,00 %
16.10.2017 10:34 13,2 C 11,7 C 88 % 1027,5 hPa 0,0 l/m 1,4 km/h (1 Bft) O-NO 61 2 min 0,000 mm 1,5 UV-I 428 W/m 11,3 C 13,2 C 3,2 km/h (1 Bft) 100,00 %
16.10.2017 10:36 13,3 C 11,7 C 88 % 1027,5 hPa 0,0 l/m 1,7 km/h (1 Bft) O-NO 57 2 min 0,000 mm 1,5 UV-I 431 W/m 11,4 C 13,3 C 3,2 km/h (1 Bft) 100,00 %
16.10.2017 10:38 13,3 C 11,7 C 88 % 1027,5 hPa 0,0 l/m 1,4 km/h (1 Bft) O-NO 57 2 min 0,000 mm 1,5 UV-I 435 W/m 11,4 C 13,3 C 3,2 km/h (1 Bft) 100,00 %
16.10.2017 10:40 13,3 C 11,7 C 88 % 1027,5 hPa 0,0 l/m 0,3 km/h (0 Bft) O-NO 57 2 min 0,000 mm 1,5 UV-I 440 W/m 11,4 C 13,3 C 3,2 km/h (1 Bft) 98,00 %
16.10.2017 10:42 13,4 C 11,7 C 89 % 1027,5 hPa 0,0 l/m 0,2 km/h (0 Bft) O-NO 57 2 min 0,000 mm 1,6 UV-I 443 W/m 11,6 C 13,4 C 1,6 km/h (1 Bft) 95,12 %
16.10.2017 10:44 13,6 C 11,7 C 89 % 1027,5 hPa 0,0 l/m 1,1 km/h (1 Bft) O-NO 57 2 min 0,000 mm 1,6 UV-I 446 W/m 11,8 C 13,6 C 4,8 km/h (1 Bft) 95,74 %
16.10.2017 10:46 13,6 C 11,7 C 89 % 1027,5 hPa 0,0 l/m 3,4 km/h (1 Bft) NO 40 2 min 0,000 mm 1,6 UV-I 449 W/m 11,8 C 13,6 C 6,4 km/h (2 Bft) 97,87 %
16.10.2017 10:48 13,8 C 11,7 C 89 % 1027,5 hPa 0,0 l/m 2,6 km/h (1 Bft) NO 42 2 min 0,000 mm 1,6 UV-I 453 W/m 12,0 C 13,8 C 4,8 km/h (1 Bft) 98,00 %
16.10.2017 10:50 13,9 C 11,7 C 89 % 1027,5 hPa 0,0 l/m 2,5 km/h (1 Bft) NO 50 2 min 0,000 mm 1,6 UV-I 456 W/m 12,1 C 13,9 C 6,4 km/h (2 Bft) 97,37 %
16.10.2017 10:52 14,1 C 11,7 C 88 % 1027,5 hPa 0,0 l/m 3,0 km/h (1 Bft) NO 50 2 min 0,000 mm 1,7 UV-I 460 W/m 12,1 C 14,1 C 4,8 km/h (1 Bft) 98,00 %
16.10.2017 10:54 14,1 C 11,7 C 88 % 1027,5 hPa 0,0 l/m 2,7 km/h (1 Bft) NO 50 2 min 0,000 mm 1,7 UV-I 463 W/m 12,1 C 14,1 C 4,8 km/h (1 Bft) 95,74 %
16.10.2017 10:56 14,1 C 11,7 C 87 % 1027,5 hPa 0,0 l/m 2,3 km/h (1 Bft) NO 45 2 min 0,000 mm 1,7 UV-I 464 W/m 12,0 C 14,1 C 4,8 km/h (1 Bft) 97,37 %
16.10.2017 10:58 14,1 C 11,7 C 87 % 1027,5 hPa 0,0 l/m 3,1 km/h (1 Bft) NO 44 2 min 0,000 mm 1,7 UV-I 466 W/m 12,0 C 14,1 C 6,4 km/h (2 Bft) 98,39 %
16.10.2017 11:00 14,1 C 11,7 C 87 % 1027,4 hPa 0,0 l/m 4,9 km/h (1 Bft) NO 53 2 min 0,203 mm 1,8 UV-I 470 W/m 12,0 C 14,1 C 6,4 km/h (2 Bft) 97,37 %
16.10.2017 11:02 14,2 C 11,7 C 88 % 1027,5 hPa 0,0 l/m 3,9 km/h (1 Bft) NO 53 2 min 0,000 mm 1,8 UV-I 474 W/m 12,2 C 14,2 C 6,4 km/h (2 Bft) 98,11 %
16.10.2017 11:04 14,2 C 11,7 C 87 % 1027,5 hPa 0,0 l/m 3,5 km/h (1 Bft) NO 53 2 min 0,000 mm 1,8 UV-I 476 W/m 12,1 C 14,2 C 4,8 km/h (1 Bft) 98,00 %
16.10.2017 11:06 14,2 C 11,7 C 87 % 1027,5 hPa 0,0 l/m 0,8 km/h (0 Bft) NO 53 2 min 0,000 mm 1,8 UV-I 478 W/m 12,1 C 14,2 C 4,8 km/h (1 Bft) 97,44 %
16.10.2017 11:08 14,2 C 11,7 C 87 % 1027,5 hPa 0,0 l/m 1,4 km/h (1 Bft) N-NO 15 2 min 0,000 mm 1,8 UV-I 480 W/m 12,1 C 14,2 C 4,8 km/h (1 Bft) 97,87 %
16.10.2017 11:10 14,2 C 11,7 C 88 % 1027,5 hPa 0,0 l/m 3,4 km/h (1 Bft) N-NO 13 2 min 0,000 mm 1,9 UV-I 483 W/m 12,2 C 14,2 C 4,8 km/h (1 Bft) 98,21 %
16.10.2017 11:12 14,2 C 11,7 C 87 % 1027,5 hPa 0,0 l/m 2,6 km/h (1 Bft) N-NO 22 2 min 0,000 mm 1,9 UV-I 486 W/m 12,1 C 14,2 C 4,8 km/h (1 Bft) 100,00 %
16.10.2017 11:14 14,2 C 11,7 C 87 % 1027,4 hPa 0,0 l/m 3,5 km/h (1 Bft) NO 38 2 min 0,000 mm 1,9 UV-I 488 W/m 12,1 C 14,2 C 4,8 km/h (1 Bft) 100,00 %
16.10.2017 11:16 14,4 C 11,7 C 86 % 1027,5 hPa 0,0 l/m 4,3 km/h (1 Bft) NO 53 2 min 0,000 mm 1,9 UV-I 491 W/m 12,1 C 14,4 C 4,8 km/h (1 Bft) 100,00 %
16.10.2017 11:18 14,6 C 11,7 C 86 % 1027,4 hPa 0,0 l/m 1,7 km/h (1 Bft) NO 53 2 min 0,000 mm 1,9 UV-I 494 W/m 12,3 C 14,6 C 4,8 km/h (1 Bft) 100,00 %
16.10.2017 11:20 14,6 C 11,7 C 87 % 1027,5 hPa 0,0 l/m 1,6 km/h (1 Bft) NO 53 2 min 0,000 mm 2,0 UV-I 496 W/m 12,5 C 14,6 C 3,2 km/h (1 Bft) 100,00 %
16.10.2017 11:22 14,7 C 11,7 C 87 % 1027,5 hPa 0,0 l/m 1,6 km/h (1 Bft) N-NO 26 2 min 0,000 mm 2,0 UV-I 497 W/m 12,6 C 14,7 C 6,4 km/h (2 Bft) 100,00 %
16.10.2017 11:24 14,8 C 11,7 C 87 % 1027,5 hPa 0,0 l/m 3,5 km/h (1 Bft) N-NO 27 2 min 0,000 mm 2,0 UV-I 499 W/m 12,7 C 14,8 C 6,4 km/h (2 Bft) 100,00 %
16.10.2017 11:26 14,8 C 11,7 C 85 % 1027,4 hPa 0,0 l/m 1,0 km/h (0 Bft) N-NO 27 2 min 0,000 mm 2,0 UV-I 502 W/m 12,3 C 14,8 C 1,6 km/h (1 Bft) 100,00 %
16.10.2017 11:28 14,9 C 11,7 C 85 % 1027,5 hPa 0,0 l/m 0,3 km/h (0 Bft) N-NO 27 2 min 0,000 mm 2,1 UV-I 504 W/m 12,4 C 14,9 C 1,6 km/h (1 Bft) 98,00 %
16.10.2017 11:30 15,0 C 11,7 C 86 % 1027,4 hPa 0,0 l/m 0,2 km/h (0 Bft) N-NO 27 2 min 0,000 mm 2,1 UV-I 507 W/m 12,7 C 15,0 C 1,6 km/h (1 Bft) 100,00 %
16.10.2017 11:32 15,0 C 11,7 C 85 % 1027,4 hPa 0,0 l/m 0,4 km/h (0 Bft) N-NO 27 2 min 0,000 mm 2,1 UV-I 508 W/m 12,5 C 15,0 C 1,6 km/h (1 Bft) 100,00 %
16.10.2017 11:34 15,1 C 11,7 C 86 % 1027,4 hPa 0,0 l/m 1,4 km/h (1 Bft) N-NO 27 2 min 0,000 mm 2,1 UV-I 511 W/m 12,8 C 15,1 C 3,2 km/h (1 Bft) 100,00 %
16.10.2017 11:36 15,1 C 11,7 C 84 % 1027,4 hPa 0,0 l/m 0,2 km/h (0 Bft) N-NO 27 2 min 0,000 mm 2,1 UV-I 513 W/m 12,4 C 15,1 C 1,6 km/h (1 Bft) 100,00 %
16.10.2017 11:38 15,2 C 11,7 C 84 % 1027,4 hPa 0,0 l/m 3,4 km/h (1 Bft) NO 51 2 min 0,000 mm 2,2 UV-I 515 W/m 12,5 C 15,2 C 4,8 km/h (1 Bft) 97,37 %
16.10.2017 11:40 15,4 C 11,7 C 85 % 1027,4 hPa 0,0 l/m 4,6 km/h (1 Bft) NO 34 2 min 0,000 mm 2,2 UV-I 518 W/m 12,9 C 15,4 C 6,4 km/h (2 Bft) 100,00 %
16.10.2017 11:42 15,5 C 11,7 C 85 % 1027,3 hPa 0,0 l/m 3,5 km/h (1 Bft) NO 46 2 min 0,000 mm 2,2 UV-I 519 W/m 13,0 C 15,5 C 6,4 km/h (2 Bft) 100,00 %
16.10.2017 11:44 15,7 C 11,7 C 84 % 1027,3 hPa 0,0 l/m 3,8 km/h (1 Bft) N-NO 30 2 min 0,000 mm 2,2 UV-I 521 W/m 13,0 C 15,7 C 4,8 km/h (1 Bft) 100,00 %
16.10.2017 11:46 15,9 C 11,7 C 84 % 1027,3 hPa 0,0 l/m 4,2 km/h (1 Bft) N-NO 32 2 min 0,000 mm 2,0 UV-I 522 W/m 13,2 C 15,9 C 6,4 km/h (2 Bft) 100,00 %
16.10.2017 11:48 15,9 C 11,7 C 82 % 1027,3 hPa 0,0 l/m 4,5 km/h (1 Bft) O-NO 57 2 min 0,000 mm 2,2 UV-I 486 W/m 12,8 C 15,9 C 8,0 km/h (2 Bft) 100,00 %
16.10.2017 11:50 15,9 C 11,7 C 81 % 1027,3 hPa 0,0 l/m 4,7 km/h (1 Bft) N-NO 30 2 min 0,000 mm 2,2 UV-I 527 W/m 12,6 C 15,9 C 8,0 km/h (2 Bft) 100,00 %
16.10.2017 11:52 15,9 C 11,7 C 81 % 1027,3 hPa 0,0 l/m 3,3 km/h (1 Bft) NO 38 2 min 0,000 mm 2,2 UV-I 528 W/m 12,6 C 15,9 C 6,4 km/h (2 Bft) 98,11 %
16.10.2017 11:54 15,9 C 11,7 C 82 % 1027,3 hPa 0,0 l/m 2,4 km/h (1 Bft) NO 38 2 min 0,000 mm 2,2 UV-I 529 W/m 12,8 C 15,9 C 4,8 km/h (1 Bft) 100,00 %
16.10.2017 11:56 15,9 C 11,7 C 82 % 1027,3 hPa 0,0 l/m 3,0 km/h (1 Bft) NO 43 2 min 0,000 mm 1,9 UV-I 531 W/m 12,8 C 15,9 C 4,8 km/h (1 Bft) 100,00 %
16.10.2017 11:58 15,9 C 11,7 C 82 % 1027,3 hPa 0,0 l/m 4,3 km/h (1 Bft) NO 42 2 min 0,000 mm 1,6 UV-I 532 W/m 12,8 C 15,9 C 6,4 km/h (2 Bft) 97,87 %
16.10.2017 12:00 15,9 C 11,7 C 80 % 1027,3 hPa 0,0 l/m 1,0 km/h (0 Bft) NO 42 2 min 0,254 mm 1,8 UV-I 534 W/m 12,5 C 15,9 C 3,2 km/h (1 Bft) 100,00 %
16.10.2017 12:02 15,9 C 11,7 C 82 % 1027,3 hPa 0,0 l/m 3,5 km/h (1 Bft) NO 53 2 min 0,000 mm 2,3 UV-I 534 W/m 12,8 C 15,9 C 6,4 km/h (2 Bft) 100,00 %
16.10.2017 12:04 16,1 C 11,7 C 82 % 1027,3 hPa 0,0 l/m 3,4 km/h (1 Bft) O-NO 62 2 min 0,000 mm 2,3 UV-I 536 W/m 13,0 C 16,1 C 6,4 km/h (2 Bft) 100,00 %
16.10.2017 12:06 16,2 C 11,7 C 82 % 1027,3 hPa 0,0 l/m 0,6 km/h (0 Bft) O-NO 62 2 min 0,000 mm 2,0 UV-I 538 W/m 13,1 C 16,2 C 3,2 km/h (1 Bft) 100,00 %
16.10.2017 12:08 16,3 C 11,7 C 83 % 1027,2 hPa 0,0 l/m 2,7 km/h (1 Bft) N-NO 17 2 min 0,000 mm 1,9 UV-I 538 W/m 13,4 C 16,3 C 6,4 km/h (2 Bft) 97,37 %
16.10.2017 12:10 16,3 C 11,7 C 81 % 1027,2 hPa 0,0 l/m 1,2 km/h (1 Bft) N-NO 16 2 min 0,000 mm 1,4 UV-I 540 W/m 13,0 C 16,3 C 3,2 km/h (1 Bft) 100,00 %
16.10.2017 12:12 16,4 C 11,7 C 81 % 1027,2 hPa 0,0 l/m 0,1 km/h (0 Bft) N-NO 16 2 min 0,000 mm 2,3 UV-I 538 W/m 13,1 C 16,4 C 1,6 km/h (1 Bft) 100,00 %
16.10.2017 12:14 16,6 C 11,7 C 82 % 1027,2 hPa 0,0 l/m 1,3 km/h (1 Bft) N 5 2 min 0,000 mm 1,7 UV-I 538 W/m 13,5 C 16,6 C 4,8 km/h (1 Bft) 100,00 %
16.10.2017 12:16 16,6 C 11,7 C 81 % 1027,2 hPa 0,0 l/m 0,9 km/h (0 Bft) N-NW 331 2 min 0,000 mm 1,3 UV-I 539 W/m 13,3 C 16,6 C 4,8 km/h (1 Bft) 100,00 %
16.10.2017 12:18 16,7 C 11,7 C 82 % 1027,3 hPa 0,0 l/m 2,0 km/h (1 Bft) NW 309 2 min 0,000 mm 2,0 UV-I 526 W/m 13,6 C 16,7 C 6,4 km/h (2 Bft) 100,00 %
16.10.2017 12:20 16,7 C 11,7 C 81 % 1027,2 hPa 0,0 l/m 1,4 km/h (1 Bft) NW 307 2 min 0,000 mm 2,0 UV-I 543 W/m 13,4 C 16,7 C 4,8 km/h (1 Bft) 100,00 %
16.10.2017 12:22 16,7 C 11,7 C 82 % 1027,2 hPa 0,0 l/m 0,8 km/h (0 Bft) NW 309 2 min 0,000 mm 2,2 UV-I 541 W/m 13,6 C 16,7 C 3,2 km/h (1 Bft) 100,00 %
16.10.2017 12:24 16,7 C 11,7 C 80 % 1027,2 hPa 0,0 l/m 1,4 km/h (1 Bft) NW 310 2 min 0,000 mm 2,4 UV-I 545 W/m 13,2 C 16,7 C 3,2 km/h (1 Bft) 97,87 %
16.10.2017 12:26 16,8 C 11,7 C 80 % 1027,1 hPa 0,0 l/m 1,5 km/h (1 Bft) N-NO 32 2 min 0,000 mm 2,3 UV-I 543 W/m 13,3 C 16,8 C 4,8 km/h (1 Bft) 97,44 %
16.10.2017 12:28 16,9 C 11,7 C 79 % 1027,1 hPa 0,0 l/m 3,8 km/h (1 Bft) N-NO 30 2 min 0,000 mm 2,4 UV-I 546 W/m 13,2 C 16,9 C 8,0 km/h (2 Bft) 96,23 %
16.10.2017 12:30 16,8 C 11,7 C 78 % 1027,0 hPa 0,0 l/m 1,6 km/h (1 Bft) N-NO 30 2 min 0,000 mm 2,5 UV-I 547 W/m 12,9 C 16,8 C 4,8 km/h (1 Bft) 98,00 %
16.10.2017 12:32 16,9 C 11,7 C 78 % 1027,0 hPa 0,0 l/m 1,7 km/h (1 Bft) O-NO 59 2 min 0,000 mm 2,5 UV-I 538 W/m 13,0 C 16,9 C 4,8 km/h (1 Bft) 97,87 %
16.10.2017 12:34 17,1 C 11,7 C 80 % 1027,0 hPa 0,0 l/m 1,6 km/h (1 Bft) N-NO 19 2 min 0,000 mm 2,5 UV-I 548 W/m 13,6 C 17,1 C 6,4 km/h (2 Bft) 95,74 %
16.10.2017 12:36 17,2 C 11,7 C 80 % 1026,9 hPa 0,0 l/m 2,7 km/h (1 Bft) O-NO 73 2 min 0,000 mm 2,5 UV-I 548 W/m 13,7 C 17,2 C 6,4 km/h (2 Bft) 95,74 %
16.10.2017 12:38 17,2 C 11,7 C 77 % 1026,9 hPa 0,0 l/m 4,6 km/h (1 Bft) O-NO 74 2 min 0,000 mm 2,5 UV-I 549 W/m 13,1 C 17,2 C 6,4 km/h (2 Bft) 94,29 %
16.10.2017 12:40 17,3 C 11,7 C 77 % 1026,9 hPa 0,0 l/m 3,3 km/h (1 Bft) O-NO 74 2 min 0,000 mm 2,5 UV-I 548 W/m 13,2 C 17,3 C 4,8 km/h (1 Bft) 98,11 %
16.10.2017 12:42 17,3 C 11,7 C 77 % 1026,9 hPa 0,0 l/m 3,5 km/h (1 Bft) O-NO 59 2 min 0,000 mm 2,5 UV-I 548 W/m 13,2 C 17,3 C 4,8 km/h (1 Bft) 97,56 %
16.10.2017 12:44 17,5 C 11,7 C 79 % 1026,9 hPa 0,0 l/m 3,2 km/h (1 Bft) NO 54 2 min 0,000 mm 2,5 UV-I 549 W/m 13,8 C 17,5 C 6,4 km/h (2 Bft) 97,92 %
16.10.2017 12:46 17,6 C 11,7 C 79 % 1026,9 hPa 0,0 l/m 4,3 km/h (1 Bft) O-NO 57 2 min 0,000 mm 2,5 UV-I 548 W/m 13,9 C 17,6 C 6,4 km/h (2 Bft) 96,23 %
16.10.2017 12:48 17,7 C 11,7 C 78 % 1026,9 hPa 0,0 l/m 2,4 km/h (1 Bft) O-NO 57 2 min 0,000 mm 2,5 UV-I 548 W/m 13,8 C 17,7 C 4,8 km/h (1 Bft) 98,00 %
16.10.2017 12:50 17,5 C 11,7 C 76 % 1026,8 hPa 0,0 l/m 0,6 km/h (0 Bft) O-NO 57 2 min 0,000 mm 2,5 UV-I 519 W/m 13,2 C 17,5 C 3,2 km/h (1 Bft) 97,87 %
16.10.2017 12:52 17,4 C 11,7 C 76 % 1026,8 hPa 0,0 l/m 2,2 km/h (1 Bft) O-NO 67 2 min 0,000 mm 2,5 UV-I 536 W/m 13,1 C 17,4 C 4,8 km/h (1 Bft) 93,62 %
16.10.2017 12:54 17,6 C 11,7 C 78 % 1026,8 hPa 0,0 l/m 2,1 km/h (1 Bft) NO 56 2 min 0,000 mm 2,5 UV-I 548 W/m 13,7 C 17,6 C 6,4 km/h (2 Bft) 100,00 %
16.10.2017 12:56 17,7 C 11,7 C 77 % 1026,8 hPa 0,0 l/m 2,7 km/h (1 Bft) NO 40 2 min 0,000 mm 2,5 UV-I 548 W/m 13,6 C 17,7 C 4,8 km/h (1 Bft) 100,00 %
16.10.2017 12:58 17,7 C 11,7 C 76 % 1026,7 hPa 0,0 l/m 4,0 km/h (1 Bft) O-NO 61 2 min 0,000 mm 2,5 UV-I 548 W/m 13,4 C 17,7 C 6,4 km/h (2 Bft) 100,00 %
16.10.2017 13:00 17,9 C 11,7 C 78 % 1026,7 hPa 0,0 l/m 3,7 km/h (1 Bft) NO 41 2 min 0,279 mm 2,5 UV-I 547 W/m 14,0 C 17,9 C 4,8 km/h (1 Bft) 100,00 %
16.10.2017 13:02 17,8 C 11,7 C 76 % 1026,7 hPa 0,0 l/m 2,4 km/h (1 Bft) NO 41 2 min 0,000 mm 2,5 UV-I 543 W/m 13,5 C 17,8 C 4,8 km/h (1 Bft) 98,00 %
16.10.2017 13:04 17,9 C 11,7 C 78 % 1026,7 hPa 0,0 l/m 4,0 km/h (1 Bft) NO 56 2 min 0,000 mm 2,5 UV-I 538 W/m 14,0 C 17,9 C 6,4 km/h (2 Bft) 100,00 %
16.10.2017 13:06 18,0 C 11,7 C 75 % 1026,7 hPa 0,0 l/m 3,9 km/h (1 Bft) O 83 2 min 0,000 mm 2,5 UV-I 544 W/m 13,5 C 18,0 C 6,4 km/h (2 Bft) 100,00 %
16.10.2017 13:08 18,1 C 11,7 C 76 % 1026,7 hPa 0,0 l/m 3,3 km/h (1 Bft) O-NO 69 2 min 0,000 mm 2,5 UV-I 543 W/m 13,8 C 18,1 C 4,8 km/h (1 Bft) 100,00 %
16.10.2017 13:10 18,2 C 11,7 C 75 % 1026,6 hPa 0,0 l/m 3,0 km/h (1 Bft) NO 46 2 min 0,000 mm 2,5 UV-I 542 W/m 13,7 C 18,2 C 6,4 km/h (2 Bft) 100,00 %
16.10.2017 13:13 18,3 C 11,7 C 76 % 1026,6 hPa 0,0 l/m 3,3 km/h (1 Bft) NO 39 3 min 0,000 mm 2,4 UV-I 541 W/m 14,0 C 18,3 C 6,4 km/h (2 Bft) 100,00 %
16.10.2017 13:14 18,3 C 11,7 C 76 % 1026,6 hPa 0,0 l/m 2,3 km/h (1 Bft) NO 53 1 min 0,000 mm 2,4 UV-I 540 W/m 14,0 C 18,3 C 4,8 km/h (1 Bft) 96,30 %
16.10.2017 13:16 18,3 C 11,7 C 77 % 1026,6 hPa 0,0 l/m 2,9 km/h (1 Bft) NO 34 2 min 0,000 mm 2,4 UV-I 538 W/m 14,2 C 18,3 C 4,8 km/h (1 Bft) 100,00 %
16.10.2017 13:18 18,5 C 11,7 C 75 % 1026,5 hPa 0,0 l/m 1,1 km/h (1 Bft) NO 34 2 min 0,000 mm 2,4 UV-I 544 W/m 14,0 C 18,5 C 3,2 km/h (1 Bft) 100,00 %
16.10.2017 13:20 18,7 C 11,7 C 74 % 1026,5 hPa 0,0 l/m 2,2 km/h (1 Bft) O-NO 75 2 min 0,000 mm 2,4 UV-I 520 W/m 14,0 C 18,7 C 6,4 km/h (2 Bft) 98,00 %
16.10.2017 13:22 18,7 C 11,7 C 74 % 1026,5 hPa 0,0 l/m 4,2 km/h (1 Bft) NO 52 2 min 0,000 mm 2,4 UV-I 536 W/m 14,0 C 18,7 C 6,4 km/h (2 Bft) 100,00 %
16.10.2017 13:24 18,6 C 11,7 C 75 % 1026,5 hPa 0,0 l/m 3,5 km/h (1 Bft) NO 52 2 min 0,000 mm 2,4 UV-I 529 W/m 14,1 C 18,6 C 4,8 km/h (1 Bft) 98,11 %
16.10.2017 13:26 18,6 C 11,7 C 74 % 1026,5 hPa 0,0 l/m 2,5 km/h (1 Bft) NO 45 2 min 0,000 mm 2,4 UV-I 534 W/m 13,9 C 18,6 C 4,8 km/h (1 Bft) 100,00 %
16.10.2017 13:28 18,6 C 11,7 C 73 % 1026,5 hPa 0,0 l/m 3,1 km/h (1 Bft) NO 44 2 min 0,000 mm 2,4 UV-I 533 W/m 13,7 C 18,6 C 4,8 km/h (1 Bft) 100,00 %
16.10.2017 13:30 18,8 C 11,7 C 77 % 1026,5 hPa 0,0 l/m 3,9 km/h (1 Bft) N-NO 24 2 min 0,000 mm 2,4 UV-I 533 W/m 14,7 C 18,8 C 8,0 km/h (2 Bft) 100,00 %
16.10.2017 13:32 18,7 C 11,7 C 75 % 1026,5 hPa 0,0 l/m 0,2 km/h (0 Bft) N-NO 24 2 min 0,000 mm 2,4 UV-I 532 W/m 14,2 C 18,7 C 1,6 km/h (1 Bft) 100,00 %
16.10.2017 13:34 18,7 C 11,7 C 74 % 1026,5 hPa 0,0 l/m 0,8 km/h (0 Bft) N-NO 24 2 min 0,000 mm 2,3 UV-I 533 W/m 14,0 C 18,7 C 3,2 km/h (1 Bft) 95,74 %
16.10.2017 13:36 18,7 C 11,7 C 74 % 1026,5 hPa 0,0 l/m 1,2 km/h (1 Bft) N 9 2 min 0,000 mm 2,3 UV-I 529 W/m 14,0 C 18,7 C 4,8 km/h (1 Bft) 98,00 %
16.10.2017 13:38 18,7 C 11,7 C 74 % 1026,5 hPa 0,0 l/m 3,7 km/h (1 Bft) N-NO 30 2 min 0,000 mm 2,3 UV-I 527 W/m 14,0 C 18,7 C 6,4 km/h (2 Bft) 100,00 %
16.10.2017 13:40 18,8 C 11,7 C 75 % 1026,4 hPa 0,0 l/m 3,0 km/h (1 Bft) N-NO 28 2 min 0,000 mm 2,3 UV-I 526 W/m 14,3 C 18,8 C 6,4 km/h (2 Bft) 100,00 %
16.10.2017 13:42 18,9 C 11,7 C 74 % 1026,4 hPa 0,0 l/m 2,2 km/h (1 Bft) N-NO 28 2 min 0,000 mm 2,3 UV-I 523 W/m 14,2 C 18,9 C 4,8 km/h (1 Bft) 100,00 %
16.10.2017 13:44 19,2 C 11,7 C 73 % 1026,4 hPa 0,0 l/m 1,0 km/h (0 Bft) N-NO 28 2 min 0,000 mm 2,3 UV-I 522 W/m 14,2 C 19,2 C 3,2 km/h (1 Bft) 100,00 %
16.10.2017 13:46 19,2 C 11,7 C 72 % 1026,3 hPa 0,0 l/m 2,9 km/h (1 Bft) N-NO 28 2 min 0,000 mm 2,3 UV-I 520 W/m 14,0 C 19,2 C 4,8 km/h (1 Bft) 100,00 %
16.10.2017 13:48 19,2 C 11,7 C 72 % 1026,3 hPa 0,0 l/m 0,2 km/h (0 Bft) N-NO 28 2 min 0,000 mm 2,3 UV-I 522 W/m 14,0 C 19,2 C 1,6 km/h (1 Bft) 100,00 %
16.10.2017 13:50 19,2 C 11,7 C 70 % 1026,2 hPa 0,0 l/m 2,2 km/h (1 Bft) O 96 2 min 0,000 mm 2,3 UV-I 520 W/m 13,6 C 19,2 C 4,8 km/h (1 Bft) 100,00 %
16.10.2017 13:52 19,1 C 11,7 C 71 % 1026,3 hPa 0,0 l/m 2,4 km/h (1 Bft) NO 46 2 min 0,000 mm 2,2 UV-I 519 W/m 13,7 C 19,1 C 6,4 km/h (2 Bft) 100,00 %
16.10.2017 13:54 19,1 C 11,7 C 72 % 1026,3 hPa 0,0 l/m 4,1 km/h (1 Bft) NO 45 2 min 0,000 mm 2,2 UV-I 515 W/m 13,9 C 19,1 C 6,4 km/h (2 Bft) 100,00 %
16.10.2017 13:56 19,3 C 11,7 C 76 % 1026,3 hPa 0,0 l/m 1,9 km/h (1 Bft) NO 45 2 min 0,000 mm 2,2 UV-I 511 W/m 15,0 C 19,3 C 4,8 km/h (1 Bft) 100,00 %
16.10.2017 13:58 19,4 C 11,7 C 73 % 1026,3 hPa 0,0 l/m 2,3 km/h (1 Bft) NO 45 2 min 0,000 mm 2,2 UV-I 508 W/m 14,4 C 19,4 C 4,8 km/h (1 Bft) 97,56 %
16.10.2017 14:00 19,5 C 11,7 C 72 % 1026,2 hPa 0,0 l/m 3,2 km/h (1 Bft) NO 45 2 min 0,000 mm 2,2 UV-I 506 W/m 14,3 C 19,5 C 4,8 km/h (1 Bft) 100,00 %
16.10.2017 14:02 19,6 C 11,7 C 72 % 1026,2 hPa 0,0 l/m 2,6 km/h (1 Bft) NO 45 2 min 0,305 mm 2,2 UV-I 504 W/m 14,4 C 19,6 C 4,8 km/h (1 Bft) 97,56 %
16.10.2017 14:04 19,5 C 11,7 C 71 % 1026,2 hPa 0,0 l/m 1,0 km/h (0 Bft) NO 45 2 min 0,000 mm 2,1 UV-I 503 W/m 14,1 C 19,5 C 1,6 km/h (1 Bft) 100,00 %
16.10.2017 14:06 19,4 C 11,7 C 69 % 1026,2 hPa 0,0 l/m 1,5 km/h (1 Bft) NO 45 2 min 0,000 mm 2,1 UV-I 500 W/m 13,6 C 19,4 C 3,2 km/h (1 Bft) 100,00 %
16.10.2017 14:08 19,4 C 11,7 C 68 % 1026,2 hPa 0,0 l/m 0,9 km/h (0 Bft) NO 45 2 min 0,000 mm 2,1 UV-I 499 W/m 13,3 C 19,4 C 3,2 km/h (1 Bft) 100,00 %
16.10.2017 14:10 19,4 C 11,7 C 68 % 1026,1 hPa 0,0 l/m 0,1 km/h (0 Bft) NO 45 2 min 0,000 mm 2,1 UV-I 498 W/m 13,3 C 19,4 C 1,6 km/h (1 Bft) 100,00 %
16.10.2017 14:12 19,5 C 11,7 C 70 % 1026,1 hPa 0,0 l/m 1,0 km/h (0 Bft) NO 45 2 min 0,000 mm 2,1 UV-I 493 W/m 13,9 C 19,5 C 3,2 km/h (1 Bft) 100,00 %
16.10.2017 14:14 19,6 C 11,7 C 70 % 1026,1 hPa 0,0 l/m 3,2 km/h (1 Bft) O-NO 65 2 min 0,000 mm 2,1 UV-I 491 W/m 14,0 C 19,6 C 4,8 km/h (1 Bft) 98,00 %
16.10.2017 14:16 19,6 C 11,7 C 67 % 1026,0 hPa 0,0 l/m 1,6 km/h (1 Bft) O-NO 70 2 min 0,000 mm 1,4 UV-I 488 W/m 13,3 C 19,6 C 3,2 km/h (1 Bft) 97,37 %
16.10.2017 14:18 19,6 C 11,7 C 68 % 1026,0 hPa 0,0 l/m 1,2 km/h (1 Bft) O-NO 70 2 min 0,000 mm 2,0 UV-I 486 W/m 13,5 C 19,6 C 3,2 km/h (1 Bft) 96,23 %
16.10.2017 14:20 19,7 C 11,7 C 67 % 1026,0 hPa 0,0 l/m 0,1 km/h (0 Bft) O-NO 70 2 min 0,000 mm 2,0 UV-I 483 W/m 13,4 C 19,7 C 1,6 km/h (1 Bft) 95,74 %
16.10.2017 14:22 19,8 C 11,7 C 70 % 1026,0 hPa 0,0 l/m 0,4 km/h (0 Bft) O-NO 68 2 min 0,000 mm 2,0 UV-I 471 W/m 14,2 C 19,8 C 1,6 km/h (1 Bft) 97,44 %
16.10.2017 14:24 19,9 C 11,7 C 69 % 1025,9 hPa 0,0 l/m 1,6 km/h (1 Bft) NO 38 2 min 0,000 mm 1,9 UV-I 478 W/m 14,0 C 19,9 C 3,2 km/h (1 Bft) 98,00 %
16.10.2017 14:26 19,9 C 11,7 C 66 % 1025,9 hPa 0,0 l/m 1,1 km/h (1 Bft) NO 38 2 min 0,000 mm 1,9 UV-I 476 W/m 13,4 C 19,9 C 3,2 km/h (1 Bft) 98,00 %
16.10.2017 14:28 19,9 C 11,7 C 66 % 1025,9 hPa 0,0 l/m 0,9 km/h (0 Bft) NO 38 2 min 0,000 mm 1,9 UV-I 473 W/m 13,4 C 19,9 C 3,2 km/h (1 Bft) 97,87 %
16.10.2017 14:30 19,9 C 11,7 C 67 % 1025,9 hPa 0,0 l/m 0,1 km/h (0 Bft) NO 38 2 min 0,000 mm 1,9 UV-I 469 W/m 13,6 C 19,9 C 1,6 km/h (1 Bft) 97,56 %
16.10.2017 14:32 20,0 C 11,7 C 67 % 1025,9 hPa 0,0 l/m 0,4 km/h (0 Bft) N-NO 23 2 min 0,000 mm 1,9 UV-I 467 W/m 13,7 C 20,0 C 3,2 km/h (1 Bft) 98,11 %
16.10.2017 14:34 20,1 C 11,7 C 69 % 1025,9 hPa 0,0 l/m 0,4 km/h (0 Bft) N-NO 23 2 min 0,000 mm 1,8 UV-I 464 W/m 14,2 C 20,1 C 1,6 km/h (1 Bft) 95,74 %
16.10.2017 14:36 20,3 C 11,7 C 67 % 1025,8 hPa 0,0 l/m 0,4 km/h (0 Bft) N-NO 23 2 min 0,000 mm 1,8 UV-I 459 W/m 14,0 C 20,3 C 1,6 km/h (1 Bft) 96,00 %
16.10.2017 14:38 20,4 C 11,7 C 66 % 1025,9 hPa 0,0 l/m 1,9 km/h (1 Bft) NO 49 2 min 0,000 mm 1,8 UV-I 456 W/m 13,8 C 20,4 C 6,4 km/h (2 Bft) 97,37 %
16.10.2017 14:40 20,6 C 11,7 C 68 % 1025,8 hPa 0,0 l/m 3,5 km/h (1 Bft) NO 48 2 min 0,000 mm 1,8 UV-I 454 W/m 14,5 C 20,6 C 4,8 km/h (1 Bft) 97,87 %
16.10.2017 14:42 20,4 C 11,7 C 65 % 1025,8 hPa 0,0 l/m 2,3 km/h (1 Bft) NO 48 2 min 0,000 mm 1,7 UV-I 451 W/m 13,6 C 20,4 C 3,2 km/h (1 Bft) 97,87 %
16.10.2017 14:44 20,4 C 11,7 C 66 % 1025,8 hPa 0,0 l/m 1,1 km/h (1 Bft) NO 48 2 min 0,000 mm 1,7 UV-I 446 W/m 13,8 C 20,4 C 4,8 km/h (1 Bft) 98,11 %
16.10.2017 14:46 20,4 C 11,7 C 64 % 1025,8 hPa 0,0 l/m 0,0 km/h (0 Bft) NO 48 2 min 0,000 mm 1,7 UV-I 443 W/m 13,4 C 20,4 C 0,0 km/h (0 Bft) 97,87 %
16.10.2017 14:48 20,4 C 11,7 C 65 % 1025,8 hPa 0,0 l/m 0,9 km/h (0 Bft) NO 48 2 min 0,000 mm 1,7 UV-I 429 W/m 13,6 C 20,4 C 4,8 km/h (1 Bft) 97,87 %
16.10.2017 14:50 20,4 C 11,7 C 63 % 1025,8 hPa 0,0 l/m 2,1 km/h (1 Bft) NO 48 2 min 0,000 mm 1,6 UV-I 436 W/m 13,1 C 20,4 C 3,2 km/h (1 Bft) 100,00 %
16.10.2017 14:52 20,4 C 11,7 C 62 % 1025,8 hPa 0,0 l/m 0,2 km/h (0 Bft) NO 48 2 min 0,000 mm 1,6 UV-I 432 W/m 12,9 C 20,4 C 1,6 km/h (1 Bft) 97,37 %
16.10.2017 14:54 20,4 C 11,7 C 63 % 1025,8 hPa 0,0 l/m 0,1 km/h (0 Bft) NO 48 2 min 0,000 mm 1,6 UV-I 428 W/m 13,1 C 20,4 C 1,6 km/h (1 Bft) 100,00 %
16.10.2017 14:56 20,6 C 11,7 C 64 % 1025,9 hPa 0,0 l/m 2,2 km/h (1 Bft) NO 46 2 min 0,000 mm 1,5 UV-I 424 W/m 13,5 C 20,6 C 4,8 km/h (1 Bft) 100,00 %
16.10.2017 14:58 20,6 C 11,7 C 63 % 1025,8 hPa 0,0 l/m 0,8 km/h (0 Bft) NO 46 2 min 0,000 mm 1,5 UV-I 420 W/m 13,3 C 20,6 C 3,2 km/h (1 Bft) 100,00 %
16.10.2017 15:00 20,7 C 11,7 C 63 % 1025,9 hPa 0,0 l/m 0,3 km/h (0 Bft) NO 46 2 min 0,280 mm 1,5 UV-I 416 W/m 13,4 C 20,7 C 1,6 km/h (1 Bft) 97,92 %
16.10.2017 15:02 20,7 C 11,7 C 66 % 1025,8 hPa 0,0 l/m 1,2 km/h (1 Bft) NO 46 2 min 0,000 mm 1,5 UV-I 412 W/m 14,1 C 20,7 C 3,2 km/h (1 Bft) 97,87 %
16.10.2017 15:04 20,7 C 11,7 C 63 % 1025,8 hPa 0,0 l/m 1,1 km/h (1 Bft) NO 46 2 min 0,000 mm 1,4 UV-I 410 W/m 13,4 C 20,7 C 4,8 km/h (1 Bft) 100,00 %
16.10.2017 15:06 20,9 C 11,7 C 67 % 1025,7 hPa 0,0 l/m 2,9 km/h (1 Bft) NO 46 2 min 0,000 mm 1,4 UV-I 406 W/m 14,5 C 20,9 C 4,8 km/h (1 Bft) 100,00 %
16.10.2017 15:08 20,9 C 11,7 C 65 % 1025,7 hPa 0,0 l/m 2,3 km/h (1 Bft) NO 40 2 min 0,000 mm 1,4 UV-I 317 W/m 14,1 C 20,9 C 6,4 km/h (2 Bft) 100,00 %
16.10.2017 15:10 20,7 C 11,7 C 63 % 1025,8 hPa 0,0 l/m 1,2 km/h (1 Bft) NO 38 2 min 0,000 mm 1,4 UV-I 374 W/m 13,4 C 20,7 C 4,8 km/h (1 Bft) 100,00 %
16.10.2017 15:12 20,6 C 11,7 C 63 % 1025,7 hPa 0,0 l/m 0,6 km/h (0 Bft) NO 38 2 min 0,000 mm 1,3 UV-I 394 W/m 13,3 C 20,6 C 3,2 km/h (1 Bft) 100,00 %
16.10.2017 15:14 20,6 C 11,7 C 63 % 1025,7 hPa 0,0 l/m 1,2 km/h (1 Bft) NO 38 2 min 0,000 mm 1,3 UV-I 389 W/m 13,3 C 20,6 C 3,2 km/h (1 Bft) 100,00 %
16.10.2017 15:16 20,6 C 11,7 C 63 % 1025,6 hPa 0,0 l/m 1,4 km/h (1 Bft) NO 38 2 min 0,000 mm 1,3 UV-I 385 W/m 13,3 C 20,6 C 3,2 km/h (1 Bft) 100,00 %
16.10.2017 15:18 20,5 C 11,7 C 64 % 1025,6 hPa 0,0 l/m 1,3 km/h (1 Bft) NO 38 2 min 0,000 mm 1,3 UV-I 381 W/m 13,5 C 20,5 C 3,2 km/h (1 Bft) 100,00 %
16.10.2017 15:20 20,5 C 11,7 C 66 % 1025,6 hPa 0,0 l/m 0,0 km/h (0 Bft) NO 38 2 min 0,000 mm 1,3 UV-I 377 W/m 13,9 C 20,5 C 0,0 km/h (0 Bft) 100,00 %
16.10.2017 15:22 20,6 C 11,7 C 62 % 1025,6 hPa 0,0 l/m 0,4 km/h (0 Bft) NO 38 2 min 0,000 mm 1,2 UV-I 374 W/m 13,1 C 20,6 C 3,2 km/h (1 Bft) 100,00 %
16.10.2017 15:24 20,6 C 11,7 C 65 % 1025,6 hPa 0,0 l/m 0,2 km/h (0 Bft) NO 38 2 min 0,000 mm 1,2 UV-I 369 W/m 13,8 C 20,6 C 1,6 km/h (1 Bft) 100,00 %
16.10.2017 15:26 20,7 C 11,7 C 63 % 1025,6 hPa 0,0 l/m 0,3 km/h (0 Bft) NO 38 2 min 0,000 mm 1,2 UV-I 365 W/m 13,4 C 20,7 C 1,6 km/h (1 Bft) 100,00 %
16.10.2017 15:28 20,8 C 11,7 C 65 % 1025,5 hPa 0,0 l/m 0,6 km/h (0 Bft) NO 38 2 min 0,000 mm 1,2 UV-I 360 W/m 14,0 C 20,8 C 1,6 km/h (1 Bft) 100,00 %
16.10.2017 15:30 20,8 C 11,7 C 61 % 1025,5 hPa 0,0 l/m 0,4 km/h (0 Bft) NO 38 2 min 0,000 mm 1,1 UV-I 350 W/m 13,0 C 20,8 C 1,6 km/h (1 Bft) 100,00 %
16.10.2017 15:32 20,8 C 11,7 C 62 % 1025,5 hPa 0,0 l/m 1,2 km/h (1 Bft) NO 38 2 min 0,000 mm 1,1 UV-I 351 W/m 13,2 C 20,8 C 3,2 km/h (1 Bft) 100,00 %
16.10.2017 15:34 20,9 C 11,7 C 66 % 1025,5 hPa 0,0 l/m 0,7 km/h (0 Bft) NO 38 2 min 0,000 mm 1,1 UV-I 347 W/m 14,3 C 20,9 C 3,2 km/h (1 Bft) 98,00 %
16.10.2017 15:36 20,9 C 11,7 C 64 % 1025,5 hPa 0,0 l/m 2,0 km/h (1 Bft) NO 38 2 min 0,000 mm 0,8 UV-I 344 W/m 13,8 C 20,9 C 3,2 km/h (1 Bft) 97,73 %
16.10.2017 15:38 21,0 C 11,7 C 63 % 1025,5 hPa 0,0 l/m 2,0 km/h (1 Bft) NO 38 2 min 0,000 mm 1,0 UV-I 340 W/m 13,7 C 21,0 C 3,2 km/h (1 Bft) 100,00 %
16.10.2017 15:40 21,0 C 11,7 C 62 % 1025,5 hPa 0,0 l/m 1,8 km/h (1 Bft) NO 38 2 min 0,000 mm 1,0 UV-I 332 W/m 13,4 C 21,0 C 3,2 km/h (1 Bft) 100,00 %
16.10.2017 15:42 21,0 C 11,7 C 62 % 1025,5 hPa 0,0 l/m 1,0 km/h (0 Bft) NO 38 2 min 0,000 mm 1,0 UV-I 328 W/m 13,4 C 21,0 C 1,6 km/h (1 Bft) 98,00 %
16.10.2017 15:44 21,0 C 11,7 C 62 % 1025,6 hPa 0,0 l/m 1,4 km/h (1 Bft) N-NW 339 2 min 0,000 mm 1,0 UV-I 326 W/m 13,4 C 21,0 C 3,2 km/h (1 Bft) 100,00 %
16.10.2017 15:46 20,9 C 11,7 C 61 % 1025,5 hPa 0,0 l/m 0,7 km/h (0 Bft) N-NW 339 2 min 0,000 mm 0,9 UV-I 320 W/m 13,1 C 20,9 C 1,6 km/h (1 Bft) 100,00 %
16.10.2017 15:48 20,8 C 11,7 C 62 % 1025,5 hPa 0,0 l/m 0,1 km/h (0 Bft) N-NW 339 2 min 0,000 mm 0,9 UV-I 314 W/m 13,2 C 20,8 C 1,6 km/h (1 Bft) 100,00 %
16.10.2017 15:50 20,8 C 11,7 C 65 % 1025,5 hPa 0,0 l/m 1,6 km/h (1 Bft) N-NW 339 2 min 0,000 mm 0,9 UV-I 309 W/m 14,0 C 20,8 C 3,2 km/h (1 Bft) 100,00 %
16.10.2017 15:52 20,8 C 11,7 C 64 % 1025,5 hPa 0,0 l/m 2,0 km/h (1 Bft) N-NW 339 2 min 0,000 mm 0,9 UV-I 304 W/m 13,7 C 20,8 C 3,2 km/h (1 Bft) 100,00 %
16.10.2017 15:54 20,8 C 11,7 C 63 % 1025,5 hPa 0,0 l/m 1,3 km/h (1 Bft) N-NW 339 2 min 0,000 mm 0,8 UV-I 264 W/m 13,5 C 20,8 C 3,2 km/h (1 Bft) 100,00 %
16.10.2017 15:56 20,8 C 11,7 C 63 % 1025,4 hPa 0,0 l/m 0,3 km/h (0 Bft) N-NW 339 2 min 0,000 mm 0,8 UV-I 281 W/m 13,5 C 20,8 C 1,6 km/h (1 Bft) 98,00 %
16.10.2017 15:58 20,8 C 11,7 C 64 % 1025,4 hPa 0,0 l/m 0,1 km/h (0 Bft) N-NW 339 2 min 0,000 mm 0,8 UV-I 292 W/m 13,7 C 20,8 C 1,6 km/h (1 Bft) 97,87 %
16.10.2017 16:00 20,8 C 11,7 C 62 % 1025,4 hPa 0,0 l/m 0,5 km/h (0 Bft) N-NW 339 2 min 0,203 mm 0,8 UV-I 287 W/m 13,2 C 20,8 C 1,6 km/h (1 Bft) 95,74 %
16.10.2017 16:02 20,8 C 11,7 C 62 % 1025,4 hPa 0,0 l/m 0,0 km/h (0 Bft) N-NW 339 2 min 0,000 mm 0,7 UV-I 279 W/m 13,2 C 20,8 C 0,0 km/h (0 Bft) 97,92 %
16.10.2017 16:04 20,8 C 11,7 C 62 % 1025,4 hPa 0,0 l/m 0,0 km/h (0 Bft) N-NW 339 2 min 0,000 mm 0,7 UV-I 276 W/m 13,2 C 20,8 C 1,6 km/h (1 Bft) 100,00 %
16.10.2017 16:06 20,8 C 11,7 C 62 % 1025,4 hPa 0,0 l/m 0,3 km/h (0 Bft) N-NW 339 2 min 0,000 mm 0,7 UV-I 271 W/m 13,2 C 20,8 C 1,6 km/h (1 Bft) 100,00 %
16.10.2017 16:08 20,8 C 11,7 C 63 % 1025,4 hPa 0,0 l/m 0,1 km/h (0 Bft) N-NW 339 2 min 0,000 mm 0,7 UV-I 266 W/m 13,5 C 20,8 C 1,6 km/h (1 Bft) 96,00 %
16.10.2017 16:10 20,9 C 11,7 C 63 % 1025,4 hPa 0,0 l/m 0,7 km/h (0 Bft) N-NW 339 2 min 0,000 mm 0,7 UV-I 262 W/m 13,6 C 20,9 C 1,6 km/h (1 Bft) 98,11 %
16.10.2017 16:12 20,9 C 11,7 C 64 % 1025,4 hPa 0,0 l/m 0,5 km/h (0 Bft) N-NW 339 2 min 0,000 mm 0,6 UV-I 256 W/m 13,8 C 20,9 C 3,2 km/h (1 Bft) 92,11 %
16.10.2017 16:14 20,8 C 11,7 C 62 % 1025,4 hPa 0,0 l/m 0,1 km/h (0 Bft) N-NW 339 2 min 0,000 mm 0,6 UV-I 251 W/m 13,2 C 20,8 C 1,6 km/h (1 Bft) 95,74 %
16.10.2017 16:16 20,7 C 11,7 C 63 % 1025,4 hPa 0,0 l/m 0,8 km/h (0 Bft) N-NW 339 2 min 0,000 mm 0,6 UV-I 248 W/m 13,4 C 20,7 C 3,2 km/h (1 Bft) 94,34 %
16.10.2017 16:18 20,7 C 11,7 C 63 % 1025,3 hPa 0,0 l/m 1,3 km/h (1 Bft) N-NW 344 2 min 0,000 mm 0,6 UV-I 242 W/m 13,4 C 20,7 C 3,2 km/h (1 Bft) 94,00 %
16.10.2017 16:20 20,8 C 11,7 C 64 % 1025,4 hPa 0,0 l/m 1,2 km/h (1 Bft) N-NW 344 2 min 0,000 mm 0,6 UV-I 238 W/m 13,7 C 20,8 C 3,2 km/h (1 Bft) 100,00 %
16.10.2017 16:22 20,8 C 11,7 C 63 % 1025,4 hPa 0,0 l/m 2,2 km/h (1 Bft) O-NO 61 2 min 0,000 mm 0,5 UV-I 233 W/m 13,5 C 20,8 C 4,8 km/h (1 Bft) 92,00 %
16.10.2017 16:24 20,7 C 11,7 C 65 % 1025,4 hPa 0,0 l/m 0,8 km/h (0 Bft) O-NO 61 2 min 0,000 mm 0,5 UV-I 228 W/m 13,9 C 20,7 C 3,2 km/h (1 Bft) 96,00 %
16.10.2017 16:26 20,7 C 11,7 C 66 % 1025,4 hPa 0,0 l/m 0,8 km/h (0 Bft) O-NO 61 2 min 0,000 mm 0,5 UV-I 223 W/m 14,1 C 20,7 C 3,2 km/h (1 Bft) 95,74 %
16.10.2017 16:28 20,6 C 11,7 C 64 % 1025,4 hPa 0,0 l/m 1,6 km/h (1 Bft) O-NO 61 2 min 0,000 mm 0,5 UV-I 217 W/m 13,5 C 20,6 C 3,2 km/h (1 Bft) 92,31 %
16.10.2017 16:30 20,6 C 11,7 C 64 % 1025,4 hPa 0,0 l/m 1,3 km/h (1 Bft) O-NO 61 2 min 0,000 mm 0,5 UV-I 205 W/m 13,5 C 20,6 C 3,2 km/h (1 Bft) 95,38 %
16.10.2017 16:32 20,6 C 11,7 C 68 % 1025,4 hPa 0,0 l/m 2,2 km/h (1 Bft) O-NO 61 2 min 0,000 mm 0,2 UV-I 207 W/m 14,5 C 20,6 C 3,2 km/h (1 Bft) 93,62 %
16.10.2017 16:34 20,5 C 11,7 C 65 % 1025,4 hPa 0,0 l/m 2,2 km/h (1 Bft) O 92 2 min 0,000 mm 0,0 UV-I 204 W/m 13,7 C 20,5 C 4,8 km/h (1 Bft) 96,00 %
16.10.2017 16:36 20,6 C 11,7 C 66 % 1025,4 hPa 0,0 l/m 1,9 km/h (1 Bft) O 92 2 min 0,000 mm 0,0 UV-I 197 W/m 14,0 C 20,6 C 3,2 km/h (1 Bft) 94,74 %
16.10.2017 16:38 20,6 C 11,7 C 67 % 1025,3 hPa 0,0 l/m 0,0 km/h (0 Bft) O 92 2 min 0,000 mm 0,0 UV-I 192 W/m 14,3 C 20,6 C 1,6 km/h (1 Bft) 95,74 %
16.10.2017 16:40 20,4 C 11,7 C 69 % 1025,3 hPa 0,0 l/m 0,0 km/h (0 Bft) O 92 2 min 0,000 mm 0,0 UV-I 187 W/m 14,5 C 20,4 C 0,0 km/h (0 Bft) 96,00 %
16.10.2017 16:42 20,3 C 11,7 C 68 % 1025,3 hPa 0,0 l/m 0,0 km/h (0 Bft) O 92 2 min 0,000 mm 0,0 UV-I 183 W/m 14,2 C 20,3 C 0,0 km/h (0 Bft) 96,23 %
16.10.2017 16:44 20,3 C 11,7 C 67 % 1025,3 hPa 0,0 l/m 0,0 km/h (0 Bft) O 92 2 min 0,000 mm 0,0 UV-I 178 W/m 14,0 C 20,3 C 0,0 km/h (0 Bft) 97,87 %
16.10.2017 16:46 20,3 C 11,7 C 66 % 1025,3 hPa 0,0 l/m 0,0 km/h (0 Bft) O 92 2 min 0,000 mm 0,0 UV-I 173 W/m 13,7 C 20,3 C 0,0 km/h (0 Bft) 100,00 %
16.10.2017 16:48 20,3 C 11,7 C 67 % 1025,3 hPa 0,0 l/m 0,0 km/h (0 Bft) O 92 2 min 0,000 mm 0,0 UV-I 168 W/m 14,0 C 20,3 C 0,0 km/h (0 Bft) 94,00 %
16.10.2017 16:50 20,3 C 11,7 C 66 % 1025,3 hPa 0,0 l/m 0,0 km/h (0 Bft) O 92 2 min 0,000 mm 0,0 UV-I 163 W/m 13,7 C 20,3 C 0,0 km/h (0 Bft) 98,00 %
16.10.2017 16:52 20,3 C 11,7 C 66 % 1025,3 hPa 0,0 l/m 0,0 km/h (0 Bft) O 92 2 min 0,000 mm 0,0 UV-I 159 W/m 13,7 C 20,3 C 0,0 km/h (0 Bft) 96,00 %
16.10.2017 16:54 20,3 C 11,7 C 66 % 1025,3 hPa 0,0 l/m 0,0 km/h (0 Bft) O 92 2 min 0,000 mm 0,0 UV-I 153 W/m 13,7 C 20,3 C 0,0 km/h (0 Bft) 97,50 %
16.10.2017 16:56 20,2 C 11,7 C 68 % 1025,2 hPa 0,0 l/m 0,0 km/h (0 Bft) O 92 2 min 0,000 mm 0,0 UV-I 149 W/m 14,1 C 20,2 C 0,0 km/h (0 Bft) 97,22 %
16.10.2017 16:58 20,2 C 11,7 C 67 % 1025,2 hPa 0,0 l/m 0,0 km/h (0 Bft) O 92 2 min 0,000 mm 0,0 UV-I 143 W/m 13,9 C 20,2 C 0,0 km/h (0 Bft) 98,39 %
16.10.2017 17:00 20,2 C 11,7 C 66 % 1025,2 hPa 0,0 l/m 0,0 km/h (0 Bft) O 92 2 min 0,127 mm 0,0 UV-I 139 W/m 13,6 C 20,2 C 0,0 km/h (0 Bft) 95,74 %
16.10.2017 17:02 20,2 C 11,7 C 68 % 1025,2 hPa 0,0 l/m 0,0 km/h (0 Bft) O 92 2 min 0,000 mm 0,0 UV-I 135 W/m 14,1 C 20,2 C 0,0 km/h (0 Bft) 95,12 %
16.10.2017 17:04 20,1 C 11,7 C 69 % 1025,2 hPa 0,0 l/m 0,4 km/h (0 Bft) O 92 2 min 0,000 mm 0,0 UV-I 131 W/m 14,2 C 20,1 C 4,8 km/h (1 Bft) 96,43 %
16.10.2017 17:06 19,9 C 11,7 C 70 % 1025,2 hPa 0,0 l/m 2,5 km/h (1 Bft) O 92 2 min 0,000 mm 0,0 UV-I 125 W/m 14,3 C 19,9 C 3,2 km/h (1 Bft) 100,00 %
16.10.2017 17:08 19,8 C 11,7 C 71 % 1025,2 hPa 0,0 l/m 2,2 km/h (1 Bft) O 92 2 min 0,000 mm 0,0 UV-I 121 W/m 14,4 C 19,8 C 3,2 km/h (1 Bft) 94,00 %
16.10.2017 17:10 19,7 C 11,7 C 70 % 1025,2 hPa 0,0 l/m 1,9 km/h (1 Bft) O 92 2 min 0,000 mm 0,0 UV-I 117 W/m 14,1 C 19,7 C 3,2 km/h (1 Bft) 98,00 %
16.10.2017 17:12 19,7 C 11,7 C 69 % 1025,2 hPa 0,0 l/m 2,6 km/h (1 Bft) O 92 2 min 0,000 mm 0,0 UV-I 112 W/m 13,8 C 19,7 C 3,2 km/h (1 Bft) 97,56 %
16.10.2017 17:14 19,8 C 11,7 C 67 % 1025,1 hPa 0,0 l/m 2,6 km/h (1 Bft) O 92 2 min 0,000 mm 0,0 UV-I 107 W/m 13,5 C 19,8 C 4,8 km/h (1 Bft) 97,87 %
16.10.2017 17:16 19,9 C 11,7 C 67 % 1025,1 hPa 0,0 l/m 2,2 km/h (1 Bft) O 92 2 min 0,000 mm 0,0 UV-I 103 W/m 13,6 C 19,9 C 3,2 km/h (1 Bft) 98,00 %
16.10.2017 17:18 19,9 C 11,7 C 66 % 1025,1 hPa 0,0 l/m 1,7 km/h (1 Bft) O 92 2 min 0,000 mm 0,0 UV-I 99 W/m 13,4 C 19,9 C 3,2 km/h (1 Bft) 97,87 %
16.10.2017 17:20 19,9 C 11,7 C 67 % 1025,1 hPa 0,0 l/m 1,6 km/h (1 Bft) O 92 2 min 0,000 mm 0,0 UV-I 95 W/m 13,6 C 19,9 C 3,2 km/h (1 Bft) 97,37 %
16.10.2017 17:22 19,8 C 11,7 C 69 % 1025,1 hPa 0,0 l/m 0,9 km/h (0 Bft) O 92 2 min 0,000 mm 0,0 UV-I 90 W/m 13,9 C 19,8 C 3,2 km/h (1 Bft) 98,00 %
16.10.2017 17:24 19,6 C 11,7 C 71 % 1025,2 hPa 0,0 l/m 0,3 km/h (0 Bft) O 92 2 min 0,000 mm 0,0 UV-I 86 W/m 14,2 C 19,6 C 1,6 km/h (1 Bft) 95,74 %
16.10.2017 17:26 19,3 C 11,7 C 74 % 1025,2 hPa 0,0 l/m 0,5 km/h (0 Bft) O 92 2 min 0,000 mm 0,0 UV-I 81 W/m 14,5 C 19,3 C 1,6 km/h (1 Bft) 97,56 %
16.10.2017 17:28 19,1 C 11,7 C 76 % 1025,2 hPa 0,0 l/m 0,0 km/h (0 Bft) O 92 2 min 0,000 mm 0,0 UV-I 76 W/m 14,8 C 19,1 C 0,0 km/h (0 Bft) 98,00 %
16.10.2017 17:30 18,8 C 11,7 C 76 % 1025,2 hPa 0,0 l/m 0,0 km/h (0 Bft) O 92 2 min 0,000 mm 0,0 UV-I 72 W/m 14,5 C 18,8 C 0,0 km/h (0 Bft) 100,00 %
16.10.2017 17:32 18,7 C 11,7 C 77 % 1025,1 hPa 0,0 l/m 0,0 km/h (0 Bft) O 92 2 min 0,000 mm 0,0 UV-I 69 W/m 14,6 C 18,7 C 0,0 km/h (0 Bft) 100,00 %
16.10.2017 17:34 18,5 C 11,7 C 78 % 1025,2 hPa 0,0 l/m 0,0 km/h (0 Bft) O 92 2 min 0,000 mm 0,0 UV-I 64 W/m 14,6 C 18,5 C 0,0 km/h (0 Bft) 100,00 %
16.10.2017 17:36 18,3 C 11,7 C 78 % 1025,1 hPa 0,0 l/m 0,0 km/h (0 Bft) O 92 2 min 0,000 mm 0,0 UV-I 59 W/m 14,4 C 18,3 C 0,0 km/h (0 Bft) 100,00 %
16.10.2017 17:38 18,2 C 11,7 C 78 % 1025,2 hPa 0,0 l/m 0,0 km/h (0 Bft) O 92 2 min 0,000 mm 0,0 UV-I 55 W/m 14,3 C 18,2 C 0,0 km/h (0 Bft) 100,00 %
16.10.2017 17:40 18,0 C 11,7 C 79 % 1025,1 hPa 0,0 l/m 0,0 km/h (0 Bft) O 92 2 min 0,000 mm 0,0 UV-I 52 W/m 14,3 C 18,0 C 1,6 km/h (1 Bft) 100,00 %
16.10.2017 17:42 17,9 C 11,7 C 79 % 1025,1 hPa 0,0 l/m 0,0 km/h (0 Bft) O 92 2 min 0,000 mm 0,0 UV-I 47 W/m 14,2 C 17,9 C 0,0 km/h (0 Bft) 100,00 %
16.10.2017 17:44 17,7 C 11,7 C 80 % 1025,1 hPa 0,0 l/m 0,0 km/h (0 Bft) O 92 2 min 0,000 mm 0,0 UV-I 43 W/m 14,2 C 17,7 C 0,0 km/h (0 Bft) 100,00 %
16.10.2017 17:46 17,6 C 11,7 C 80 % 1025,1 hPa 0,0 l/m 1,1 km/h (1 Bft) O 92 2 min 0,000 mm 0,0 UV-I 40 W/m 14,1 C 17,6 C 3,2 km/h (1 Bft) 100,00 %
16.10.2017 17:48 17,3 C 11,7 C 81 % 1025,1 hPa 0,0 l/m 2,8 km/h (1 Bft) O 92 2 min 0,000 mm 0,0 UV-I 37 W/m 14,0 C 17,3 C 3,2 km/h (1 Bft) 95,74 %
16.10.2017 17:50 17,1 C 11,7 C 81 % 1025,0 hPa 0,0 l/m 2,4 km/h (1 Bft) O 92 2 min 0,000 mm 0,0 UV-I 33 W/m 13,8 C 17,1 C 3,2 km/h (1 Bft) 100,00 %
16.10.2017 17:52 16,8 C 11,7 C 82 % 1025,1 hPa 0,0 l/m 2,5 km/h (1 Bft) O 92 2 min 0,000 mm 0,0 UV-I 31 W/m 13,7 C 16,8 C 3,2 km/h (1 Bft) 100,00 %
16.10.2017 17:54 16,6 C 11,7 C 83 % 1025,1 hPa 0,0 l/m 0,9 km/h (0 Bft) O 92 2 min 0,000 mm 0,0 UV-I 28 W/m 13,7 C 16,6 C 3,2 km/h (1 Bft) 100,00 %
16.10.2017 17:56 16,6 C 11,7 C 83 % 1025,1 hPa 0,0 l/m 0,0 km/h (0 Bft) O 92 2 min 0,000 mm 0,0 UV-I 26 W/m 13,7 C 16,6 C 0,0 km/h (0 Bft) 98,00 %
16.10.2017 17:58 16,6 C 11,7 C 84 % 1025,1 hPa 0,0 l/m 0,0 km/h (0 Bft) O 92 2 min 0,000 mm 0,0 UV-I 23 W/m 13,9 C 16,6 C 0,0 km/h (0 Bft) 100,00 %
16.10.2017 18:00 16,6 C 11,7 C 84 % 1025,1 hPa 0,0 l/m 0,0 km/h (0 Bft) O 92 2 min 0,051 mm 0,0 UV-I 20 W/m 13,9 C 16,6 C 0,0 km/h (0 Bft) 97,37 %
16.10.2017 18:02 16,4 C 11,7 C 84 % 1025,1 hPa 0,0 l/m 0,0 km/h (0 Bft) O 92 2 min 0,000 mm 0,0 UV-I 19 W/m 13,7 C 16,4 C 0,0 km/h (0 Bft) 100,00 %
16.10.2017 18:04 16,3 C 11,7 C 84 % 1025,1 hPa 0,0 l/m 0,0 km/h (0 Bft) O 92 0 min 0,000 mm 0,0 UV-I 17 W/m 13,6 C 16,3 C 0,0 km/h (0 Bft) 97,87 %
16.10.2017 18:06 16,2 C 11,7 C 84 % 1025,1 hPa 0,0 l/m 0,0 km/h (0 Bft) O 92 0 min 0,000 mm 0,0 UV-I 13 W/m 13,5 C 16,2 C 0,0 km/h (0 Bft) 100,00 %
16.10.2017 18:08 16,1 C 11,7 C 84 % 1025,1 hPa 0,0 l/m 0,0 km/h (0 Bft) O 92 0 min 0,000 mm 0,0 UV-I 12 W/m 13,4 C 16,1 C 0,0 km/h (0 Bft) 100,00 %
16.10.2017 18:10 15,9 C 11,7 C 84 % 1025,2 hPa 0,0 l/m 0,0 km/h (0 Bft) O 92 0 min 0,000 mm 0,0 UV-I 11 W/m 13,2 C 15,9 C 0,0 km/h (0 Bft) 97,87 %
16.10.2017 18:12 15,8 C 11,7 C 84 % 1025,2 hPa 0,0 l/m 0,0 km/h (0 Bft) O 92 0 min 0,000 mm 0,0 UV-I 11 W/m 13,1 C 15,8 C 0,0 km/h (0 Bft) 100,00 %
16.10.2017 18:14 15,6 C 11,7 C 85 % 1025,2 hPa 0,0 l/m 0,3 km/h (0 Bft) O 92 0 min 0,000 mm 0,0 UV-I 9 W/m 13,1 C 15,6 C 3,2 km/h (1 Bft) 100,00 %
16.10.2017 18:16 15,4 C 11,7 C 85 % 1025,2 hPa 0,0 l/m 1,7 km/h (1 Bft) O 92 0 min 0,000 mm 0,0 UV-I 9 W/m 12,9 C 15,4 C 3,2 km/h (1 Bft) 98,11 %
16.10.2017 18:18 15,4 C 11,7 C 85 % 1025,2 hPa 0,0 l/m 2,1 km/h (1 Bft) O 92 0 min 0,000 mm 0,0 UV-I 8 W/m 12,9 C 15,4 C 3,2 km/h (1 Bft) 100,00 %
16.10.2017 18:20 15,3 C 11,7 C 86 % 1025,2 hPa 0,0 l/m 0,6 km/h (0 Bft) O 92 0 min 0,000 mm 0,0 UV-I 7 W/m 13,0 C 15,3 C 1,6 km/h (1 Bft) 98,00 %
16.10.2017 18:22 15,3 C 11,7 C 86 % 1025,3 hPa 0,0 l/m 0,5 km/h (0 Bft) O 92 0 min 0,000 mm 0,0 UV-I 7 W/m 13,0 C 15,3 C 1,6 km/h (1 Bft) 100,00 %
16.10.2017 18:24 15,2 C 11,7 C 86 % 1025,3 hPa 0,0 l/m 2,8 km/h (1 Bft) O 92 0 min 0,000 mm 0,0 UV-I 6 W/m 12,9 C 15,2 C 4,8 km/h (1 Bft) 100,00 %
16.10.2017 18:26 15,0 C 11,7 C 86 % 1025,3 hPa 0,0 l/m 3,6 km/h (1 Bft) O 92 0 min 0,000 mm 0,0 UV-I 5 W/m 12,7 C 15,0 C 4,8 km/h (1 Bft) 100,00 %
16.10.2017 18:28 14,9 C 11,7 C 86 % 1025,3 hPa 0,0 l/m 3,5 km/h (1 Bft) O 92 0 min 0,000 mm 0,0 UV-I 5 W/m 12,6 C 14,9 C 4,8 km/h (1 Bft) 97,87 %
16.10.2017 18:30 14,8 C 11,7 C 86 % 1025,3 hPa 0,0 l/m 3,1 km/h (1 Bft) O 92 0 min 0,000 mm 0,0 UV-I 5 W/m 12,5 C 14,8 C 4,8 km/h (1 Bft) 98,00 %
16.10.2017 18:32 14,7 C 11,7 C 87 % 1025,3 hPa 0,0 l/m 2,1 km/h (1 Bft) O 92 0 min 0,000 mm 0,0 UV-I 3 W/m 12,6 C 14,7 C 3,2 km/h (1 Bft) 97,87 %
16.10.2017 18:34 14,6 C 11,7 C 87 % 1025,3 hPa 0,0 l/m 2,8 km/h (1 Bft) O 92 0 min 0,000 mm 0,0 UV-I 0 W/m 12,5 C 14,6 C 3,2 km/h (1 Bft) 92,31 %
16.10.2017 18:36 14,5 C 11,7 C 88 % 1025,3 hPa 0,0 l/m 1,1 km/h (1 Bft) O 92 0 min 0,000 mm 0,0 UV-I 0 W/m 12,5 C 14,5 C 3,2 km/h (1 Bft) 96,92 %
16.10.2017 18:38 14,5 C 11,7 C 88 % 1025,3 hPa 0,0 l/m 1,0 km/h (0 Bft) O 92 0 min 0,000 mm 0,0 UV-I 0 W/m 12,5 C 14,5 C 3,2 km/h (1 Bft) 97,87 %
16.10.2017 18:40 14,4 C 11,7 C 88 % 1025,3 hPa 0,0 l/m 2,6 km/h (1 Bft) O 92 0 min 0,000 mm 0,0 UV-I 0 W/m 12,4 C 14,4 C 3,2 km/h (1 Bft) 97,56 %
16.10.2017 18:42 14,3 C 11,7 C 88 % 1025,4 hPa 0,0 l/m 1,4 km/h (1 Bft) O 92 0 min 0,000 mm 0,0 UV-I 0 W/m 12,3 C 14,3 C 1,6 km/h (1 Bft) 96,23 %
16.10.2017 18:44 14,3 C 11,7 C 88 % 1025,3 hPa 0,0 l/m 0,2 km/h (0 Bft) O 92 0 min 0,000 mm 0,0 UV-I 0 W/m 12,3 C 14,3 C 1,6 km/h (1 Bft) 97,87 %
16.10.2017 18:46 14,4 C 11,7 C 88 % 1025,3 hPa 0,0 l/m 0,0 km/h (0 Bft) O 92 0 min 0,000 mm 0,0 UV-I 0 W/m 12,4 C 14,4 C 0,0 km/h (0 Bft) 98,00 %
16.10.2017 18:48 14,4 C 11,7 C 88 % 1025,3 hPa 0,0 l/m 0,0 km/h (0 Bft) O 92 0 min 0,000 mm 0,0 UV-I 0 W/m 12,4 C 14,4 C 0,0 km/h (0 Bft) 97,37 %
16.10.2017 18:50 14,3 C 11,7 C 87 % 1025,3 hPa 0,0 l/m 0,0 km/h (0 Bft) O 92 0 min 0,000 mm 0,0 UV-I 0 W/m 12,2 C 14,3 C 0,0 km/h (0 Bft) 98,00 %
16.10.2017 18:52 14,2 C 11,7 C 87 % 1025,3 hPa 0,0 l/m 0,0 km/h (0 Bft) O 92 0 min 0,000 mm 0,0 UV-I 0 W/m 12,1 C 14,2 C 1,6 km/h (1 Bft) 97,62 %
16.10.2017 18:54 14,1 C 11,7 C 87 % 1025,3 hPa 0,0 l/m 0,0 km/h (0 Bft) O 92 0 min 0,000 mm 0,0 UV-I 0 W/m 12,0 C 14,1 C 0,0 km/h (0 Bft) 97,62 %
16.10.2017 18:56 13,9 C 11,7 C 87 % 1025,3 hPa 0,0 l/m 0,3 km/h (0 Bft) O 92 0 min 0,000 mm 0,0 UV-I 0 W/m 11,8 C 13,9 C 1,6 km/h (1 Bft) 96,88 %
16.10.2017 18:58 13,8 C 11,7 C 88 % 1025,3 hPa 0,0 l/m 0,5 km/h (0 Bft) O 92 0 min 0,000 mm 0,0 UV-I 0 W/m 11,8 C 13,8 C 1,6 km/h (1 Bft) 97,44 %
16.10.2017 19:00 13,8 C 11,7 C 89 % 1025,3 hPa 0,0 l/m 0,0 km/h (0 Bft) O 92 0 min 0,000 mm 0,0 UV-I 0 W/m 12,0 C 13,8 C 1,6 km/h (1 Bft) 98,00 %
16.10.2017 19:02 13,9 C 11,7 C 90 % 1025,3 hPa 0,0 l/m 0,0 km/h (0 Bft) O 92 0 min 0,000 mm 0,0 UV-I 0 W/m 12,3 C 13,9 C 0,0 km/h (0 Bft) 98,00 %
16.10.2017 19:04 13,9 C 11,7 C 89 % 1025,3 hPa 0,0 l/m 1,0 km/h (0 Bft) O 92 0 min 0,000 mm 0,0 UV-I 0 W/m 12,1 C 13,9 C 1,6 km/h (1 Bft) 93,62 %
16.10.2017 19:06 13,9 C 11,7 C 89 % 1025,3 hPa 0,0 l/m 2,7 km/h (1 Bft) O 92 0 min 0,000 mm 0,0 UV-I 0 W/m 12,1 C 13,9 C 3,2 km/h (1 Bft) 97,37 %
16.10.2017 19:08 13,9 C 11,7 C 89 % 1025,3 hPa 0,0 l/m 3,3 km/h (1 Bft) O 92 0 min 0,000 mm 0,0 UV-I 0 W/m 12,1 C 13,9 C 4,8 km/h (1 Bft) 98,00 %
16.10.2017 19:10 13,9 C 11,7 C 89 % 1025,3 hPa 0,0 l/m 2,5 km/h (1 Bft) O 92 0 min 0,000 mm 0,0 UV-I 0 W/m 12,1 C 13,9 C 3,2 km/h (1 Bft) 95,74 %
16.10.2017 19:12 13,9 C 11,7 C 89 % 1025,3 hPa 0,0 l/m 2,1 km/h (1 Bft) O 92 0 min 0,000 mm 0,0 UV-I 0 W/m 12,1 C 13,9 C 3,2 km/h (1 Bft) 98,00 %
16.10.2017 19:14 13,8 C 11,7 C 88 % 1025,4 hPa 0,0 l/m 0,6 km/h (0 Bft) O 92 0 min 0,000 mm 0,0 UV-I 0 W/m 11,8 C 13,8 C 1,6 km/h (1 Bft) 100,00 %
16.10.2017 19:16 13,7 C 11,7 C 88 % 1025,4 hPa 0,0 l/m 0,1 km/h (0 Bft) O 92 0 min 0,000 mm 0,0 UV-I 0 W/m 11,7 C 13,7 C 1,6 km/h (1 Bft) 95,74 %
16.10.2017 19:18 13,6 C 11,7 C 88 % 1025,4 hPa 0,0 l/m 0,0 km/h (0 Bft) O 92 0 min 0,000 mm 0,0 UV-I 0 W/m 11,6 C 13,6 C 1,6 km/h (1 Bft) 100,00 %
16.10.2017 19:20 13,5 C 11,7 C 89 % 1025,4 hPa 0,0 l/m 0,0 km/h (0 Bft) O 92 0 min 0,000 mm 0,0 UV-I 0 W/m 11,7 C 13,5 C 0,0 km/h (0 Bft) 97,87 %
16.10.2017 19:22 13,4 C 11,7 C 90 % 1025,4 hPa 0,0 l/m 0,0 km/h (0 Bft) O 92 0 min 0,000 mm 0,0 UV-I 0 W/m 11,8 C 13,4 C 0,0 km/h (0 Bft) 97,92 %
16.10.2017 19:24 13,4 C 11,7 C 90 % 1025,4 hPa 0,0 l/m 0,0 km/h (0 Bft) O 92 0 min 0,000 mm 0,0 UV-I 0 W/m 11,8 C 13,4 C 0,0 km/h (0 Bft) 97,87 %
16.10.2017 19:26 13,5 C 11,7 C 91 % 1025,4 hPa 0,0 l/m 0,0 km/h (0 Bft) O 92 0 min 0,000 mm 0,0 UV-I 0 W/m 12,1 C 13,5 C 0,0 km/h (0 Bft) 100,00 %
16.10.2017 19:28 13,5 C 11,7 C 91 % 1025,5 hPa 0,0 l/m 0,0 km/h (0 Bft) O 92 0 min 0,000 mm 0,0 UV-I 0 W/m 12,1 C 13,5 C 0,0 km/h (0 Bft) 98,00 %
16.10.2017 19:30 13,5 C 11,7 C 91 % 1025,5 hPa 0,0 l/m 0,0 km/h (0 Bft) O 92 0 min 0,000 mm 0,0 UV-I 0 W/m 12,1 C 13,5 C 0,0 km/h (0 Bft) 100,00 %
16.10.2017 19:32 13,6 C 11,7 C 91 % 1025,5 hPa 0,0 l/m 0,0 km/h (0 Bft) O 92 0 min 0,000 mm 0,0 UV-I 0 W/m 12,2 C 13,6 C 0,0 km/h (0 Bft) 100,00 %
16.10.2017 19:34 13,4 C 11,7 C 90 % 1025,5 hPa 0,0 l/m 0,0 km/h (0 Bft) O 92 0 min 0,000 mm 0,0 UV-I 0 W/m 11,8 C 13,4 C 0,0 km/h (0 Bft) 97,22 %
16.10.2017 19:36 13,4 C 11,7 C 91 % 1025,5 hPa 0,0 l/m 0,4 km/h (0 Bft) O 92 0 min 0,000 mm 0,0 UV-I 0 W/m 12,0 C 13,4 C 3,2 km/h (1 Bft) 98,11 %
16.10.2017 19:38 13,3 C 11,7 C 90 % 1025,5 hPa 0,0 l/m 2,4 km/h (1 Bft) O 92 0 min 0,000 mm 0,0 UV-I 0 W/m 11,7 C 13,3 C 3,2 km/h (1 Bft) 100,00 %
16.10.2017 19:40 13,1 C 11,7 C 90 % 1025,4 hPa 0,0 l/m 2,9 km/h (1 Bft) O 92 0 min 0,000 mm 0,0 UV-I 0 W/m 11,5 C 13,1 C 3,2 km/h (1 Bft) 100,00 %
16.10.2017 19:43 13,0 C 11,7 C 90 % 1025,5 hPa 0,0 l/m 2,7 km/h (1 Bft) O 92 0 min 0,000 mm 0,0 UV-I 0 W/m 11,4 C 13,0 C 3,2 km/h (1 Bft) 100,00 %
16.10.2017 19:44 13,0 C 11,7 C 91 % 1025,5 hPa 0,0 l/m 3,1 km/h (1 Bft) O 92 0 min 0,000 mm 0,0 UV-I 0 W/m 11,6 C 13,0 C 3,2 km/h (1 Bft) 100,00 %
16.10.2017 19:46 13,0 C 11,7 C 91 % 1025,5 hPa 0,0 l/m 3,2 km/h (1 Bft) O 92 0 min 0,000 mm 0,0 UV-I 0 W/m 11,6 C 13,0 C 4,8 km/h (1 Bft) 100,00 %
16.10.2017 19:48 13,1 C 11,7 C 91 % 1025,5 hPa 0,0 l/m 2,6 km/h (1 Bft) O 92 0 min 0,000 mm 0,0 UV-I 0 W/m 11,7 C 13,1 C 4,8 km/h (1 Bft) 100,00 %
16.10.2017 19:50 13,2 C 11,7 C 92 % 1025,5 hPa 0,0 l/m 3,3 km/h (1 Bft) SO 146 0 min 0,000 mm 0,0 UV-I 0 W/m 11,9 C 13,2 C 4,8 km/h (1 Bft) 100,00 %
16.10.2017 19:52 13,2 C 11,7 C 91 % 1025,5 hPa 0,0 l/m 4,4 km/h (1 Bft) S-SO 147 0 min 0,000 mm 0,0 UV-I 0 W/m 11,8 C 13,2 C 4,8 km/h (1 Bft) 100,00 %
16.10.2017 19:54 13,3 C 11,7 C 91 % 1025,5 hPa 0,0 l/m 3,9 km/h (1 Bft) S-SO 147 0 min 0,000 mm 0,0 UV-I 0 W/m 11,9 C 13,3 C 4,8 km/h (1 Bft) 100,00 %
16.10.2017 19:56 13,3 C 11,7 C 91 % 1025,5 hPa 0,0 l/m 3,6 km/h (1 Bft) S-SO 147 0 min 0,000 mm 0,0 UV-I 0 W/m 11,9 C 13,3 C 4,8 km/h (1 Bft) 100,00 %
16.10.2017 19:58 13,3 C 11,7 C 91 % 1025,5 hPa 0,0 l/m 4,1 km/h (1 Bft) S-SO 147 0 min 0,000 mm 0,0 UV-I 0 W/m 11,9 C 13,3 C 4,8 km/h (1 Bft) 100,00 %
16.10.2017 20:00 13,3 C 11,7 C 91 % 1025,5 hPa 0,0 l/m 4,6 km/h (1 Bft) S-SO 155 0 min 0,000 mm 0,0 UV-I 0 W/m 11,9 C 13,3 C 4,8 km/h (1 Bft) 100,00 %
16.10.2017 20:02 13,3 C 11,7 C 91 % 1025,5 hPa 0,0 l/m 4,4 km/h (1 Bft) S-SO 156 0 min 0,000 mm 0,0 UV-I 0 W/m 11,9 C 13,3 C 8,0 km/h (2 Bft) 100,00 %
16.10.2017 20:04 13,2 C 11,7 C 90 % 1025,5 hPa 0,0 l/m 4,1 km/h (1 Bft) S-SO 157 0 min 0,000 mm 0,0 UV-I 0 W/m 11,6 C 13,2 C 4,8 km/h (1 Bft) 100,00 %
16.10.2017 20:06 13,1 C 11,7 C 90 % 1025,4 hPa 0,0 l/m 3,1 km/h (1 Bft) S-SO 157 0 min 0,000 mm 0,0 UV-I 0 W/m 11,5 C 13,1 C 4,8 km/h (1 Bft) 96,97 %
16.10.2017 20:08 12,9 C 11,7 C 90 % 1025,5 hPa 0,0 l/m 1,8 km/h (1 Bft) S-SO 157 0 min 0,000 mm 0,0 UV-I 0 W/m 11,3 C 12,9 C 3,2 km/h (1 Bft) 100,00 %
16.10.2017 20:10 12,8 C 11,7 C 90 % 1025,5 hPa 0,0 l/m 0,4 km/h (0 Bft) S-SO 157 0 min 0,000 mm 0,0 UV-I 0 W/m 11,2 C 12,8 C 1,6 km/h (1 Bft) 100,00 %
16.10.2017 20:12 12,7 C 11,7 C 90 % 1025,5 hPa 0,0 l/m 0,8 km/h (0 Bft) S-SO 157 0 min 0,000 mm 0,0 UV-I 0 W/m 11,1 C 12,7 C 1,6 km/h (1 Bft) 97,87 %
16.10.2017 20:14 12,6 C 11,7 C 91 % 1025,5 hPa 0,0 l/m 0,4 km/h (0 Bft) S-SO 157 0 min 0,000 mm 0,0 UV-I 0 W/m 11,2 C 12,6 C 1,6 km/h (1 Bft) 100,00 %
16.10.2017 20:16 12,6 C 11,7 C 91 % 1025,5 hPa 0,0 l/m 2,5 km/h (1 Bft) S-SO 157 0 min 0,000 mm 0,0 UV-I 0 W/m 11,2 C 12,6 C 4,8 km/h (1 Bft) 100,00 %
16.10.2017 20:18 12,6 C 11,7 C 92 % 1025,5 hPa 0,0 l/m 3,5 km/h (1 Bft) S-SO 157 0 min 0,000 mm 0,0 UV-I 0 W/m 11,3 C 12,6 C 4,8 km/h (1 Bft) 100,00 %
16.10.2017 20:20 12,6 C 11,7 C 92 % 1025,5 hPa 0,0 l/m 3,0 km/h (1 Bft) S-SO 157 0 min 0,000 mm 0,0 UV-I 0 W/m 11,3 C 12,6 C 4,8 km/h (1 Bft) 95,74 %
16.10.2017 20:22 12,4 C 11,7 C 91 % 1025,5 hPa 0,0 l/m 1,2 km/h (1 Bft) S-SO 157 0 min 0,000 mm 0,0 UV-I 0 W/m 11,0 C 12,4 C 3,2 km/h (1 Bft) 97,87 %
16.10.2017 20:24 12,4 C 11,7 C 92 % 1025,5 hPa 0,0 l/m 1,6 km/h (1 Bft) S-SO 160 0 min 0,000 mm 0,0 UV-I 0 W/m 11,1 C 12,4 C 3,2 km/h (1 Bft) 98,00 %
16.10.2017 20:26 12,4 C 11,7 C 92 % 1025,5 hPa 0,0 l/m 1,4 km/h (1 Bft) S-SO 160 0 min 0,000 mm 0,0 UV-I 0 W/m 11,1 C 12,4 C 3,2 km/h (1 Bft) 98,11 %
16.10.2017 20:28 12,6 C 11,7 C 92 % 1025,5 hPa 0,0 l/m 1,7 km/h (1 Bft) S-SO 160 0 min 0,000 mm 0,0 UV-I 0 W/m 11,3 C 12,6 C 3,2 km/h (1 Bft) 97,87 %
16.10.2017 20:30 12,7 C 11,7 C 92 % 1025,5 hPa 0,0 l/m 1,1 km/h (1 Bft) S-SO 160 0 min 0,000 mm 0,0 UV-I 0 W/m 11,4 C 12,7 C 3,2 km/h (1 Bft) 97,37 %
16.10.2017 20:32 12,8 C 11,7 C 92 % 1025,5 hPa 0,0 l/m 1,8 km/h (1 Bft) S-SO 160 0 min 0,000 mm 0,0 UV-I 0 W/m 11,5 C 12,8 C 3,2 km/h (1 Bft) 97,73 %
16.10.2017 20:34 12,8 C 11,7 C 92 % 1025,5 hPa 0,0 l/m 2,4 km/h (1 Bft) S-SO 160 0 min 0,000 mm 0,0 UV-I 0 W/m 11,5 C 12,8 C 3,2 km/h (1 Bft) 97,37 %
16.10.2017 20:36 12,9 C 11,7 C 92 % 1025,5 hPa 0,0 l/m 2,6 km/h (1 Bft) S-SO 160 0 min 0,000 mm 0,0 UV-I 0 W/m 11,6 C 12,9 C 3,2 km/h (1 Bft) 96,43 %
16.10.2017 20:38 12,9 C 11,7 C 91 % 1025,5 hPa 0,0 l/m 2,1 km/h (1 Bft) S-SO 160 0 min 0,000 mm 0,0 UV-I 0 W/m 11,5 C 12,9 C 3,2 km/h (1 Bft) 98,11 %
16.10.2017 20:40 12,8 C 11,7 C 91 % 1025,5 hPa 0,0 l/m 1,7 km/h (1 Bft) S-SO 160 0 min 0,000 mm 0,0 UV-I 0 W/m 11,4 C 12,8 C 3,2 km/h (1 Bft) 95,74 %
16.10.2017 20:42 12,8 C 11,7 C 91 % 1025,4 hPa 0,0 l/m 1,1 km/h (1 Bft) S-SO 160 0 min 0,000 mm 0,0 UV-I 0 W/m 11,4 C 12,8 C 3,2 km/h (1 Bft) 97,87 %
16.10.2017 20:44 12,8 C 11,7 C 91 % 1025,4 hPa 0,0 l/m 4,5 km/h (1 Bft) S-SO 161 0 min 0,000 mm 0,0 UV-I 0 W/m 11,4 C 12,8 C 8,0 km/h (2 Bft) 100,00 %
16.10.2017 20:46 12,8 C 11,7 C 91 % 1025,5 hPa 0,0 l/m 2,6 km/h (1 Bft) S-SO 161 0 min 0,000 mm 0,0 UV-I 0 W/m 11,4 C 12,8 C 3,2 km/h (1 Bft) 95,35 %
16.10.2017 20:48 12,7 C 11,7 C 91 % 1025,4 hPa 0,0 l/m 2,4 km/h (1 Bft) S-SO 161 0 min 0,000 mm 0,0 UV-I 0 W/m 11,3 C 12,7 C 6,4 km/h (2 Bft) 97,87 %
16.10.2017 20:50 12,7 C 11,7 C 91 % 1025,5 hPa 0,0 l/m 2,5 km/h (1 Bft) S-SO 161 0 min 0,000 mm 0,0 UV-I 0 W/m 11,3 C 12,7 C 6,4 km/h (2 Bft) 96,00 %
16.10.2017 20:52 12,5 C 11,7 C 91 % 1025,4 hPa 0,0 l/m 3,7 km/h (1 Bft) S-SO 162 0 min 0,000 mm 0,0 UV-I 0 W/m 11,1 C 12,5 C 6,4 km/h (2 Bft) 97,22 %
16.10.2017 20:54 12,4 C 11,7 C 91 % 1025,5 hPa 0,0 l/m 3,5 km/h (1 Bft) S-SO 162 0 min 0,000 mm 0,0 UV-I 0 W/m 11,0 C 12,4 C 6,4 km/h (2 Bft) 98,00 %
16.10.2017 20:56 12,4 C 11,7 C 92 % 1025,4 hPa 0,0 l/m 2,9 km/h (1 Bft) S-SO 162 0 min 0,000 mm 0,0 UV-I 0 W/m 11,1 C 12,4 C 6,4 km/h (2 Bft) 97,87 %
16.10.2017 20:58 12,4 C 11,7 C 91 % 1025,4 hPa 0,0 l/m 2,9 km/h (1 Bft) S-SO 162 0 min 0,000 mm 0,0 UV-I 0 W/m 11,0 C 12,4 C 3,2 km/h (1 Bft) 96,00 %
16.10.2017 21:00 12,4 C 11,7 C 92 % 1025,4 hPa 0,0 l/m 3,3 km/h (1 Bft) S-SO 162 0 min 0,000 mm 0,0 UV-I 0 W/m 11,1 C 12,4 C 6,4 km/h (2 Bft) 96,00 %
16.10.2017 21:02 12,3 C 11,7 C 91 % 1025,5 hPa 0,0 l/m 3,1 km/h (1 Bft) S-SO 162 0 min 0,000 mm 0,0 UV-I 0 W/m 10,9 C 12,3 C 3,2 km/h (1 Bft) 95,12 %
16.10.2017 21:04 12,3 C 11,7 C 92 % 1025,5 hPa 0,0 l/m 2,8 km/h (1 Bft) S-SO 162 0 min 0,000 mm 0,0 UV-I 0 W/m 11,0 C 12,3 C 3,2 km/h (1 Bft) 90,57 %
16.10.2017 21:06 12,3 C 11,7 C 92 % 1025,4 hPa 0,0 l/m 1,7 km/h (1 Bft) S-SO 162 0 min 0,000 mm 0,0 UV-I 0 W/m 11,0 C 12,3 C 3,2 km/h (1 Bft) 95,12 %
16.10.2017 21:08 12,2 C 11,7 C 92 % 1025,5 hPa 0,0 l/m 2,2 km/h (1 Bft) S-SO 162 0 min 0,000 mm 0,0 UV-I 0 W/m 10,9 C 12,2 C 3,2 km/h (1 Bft) 96,00 %
16.10.2017 21:10 12,3 C 11,7 C 92 % 1025,5 hPa 0,0 l/m 2,6 km/h (1 Bft) S-SO 162 0 min 0,000 mm 0,0 UV-I 0 W/m 11,0 C 12,3 C 3,2 km/h (1 Bft) 96,00 %
16.10.2017 21:12 12,3 C 11,7 C 92 % 1025,5 hPa 0,0 l/m 2,8 km/h (1 Bft) S-SO 165 0 min 0,000 mm 0,0 UV-I 0 W/m 11,0 C 12,3 C 6,4 km/h (2 Bft) 94,74 %
16.10.2017 21:14 12,4 C 11,7 C 93 % 1025,5 hPa 0,0 l/m 3,2 km/h (1 Bft) S-SO 165 0 min 0,000 mm 0,0 UV-I 0 W/m 11,3 C 12,4 C 6,4 km/h (2 Bft) 94,00 %
16.10.2017 21:16 12,4 C 11,7 C 92 % 1025,5 hPa 0,0 l/m 3,1 km/h (1 Bft) S-SO 165 0 min 0,000 mm 0,0 UV-I 0 W/m 11,1 C 12,4 C 3,2 km/h (1 Bft) 92,45 %
16.10.2017 21:18 12,4 C 11,7 C 92 % 1025,5 hPa 0,0 l/m 4,7 km/h (1 Bft) S-SO 166 0 min 0,000 mm 0,0 UV-I 0 W/m 11,1 C 12,4 C 6,4 km/h (2 Bft) 95,12 %
16.10.2017 21:20 12,3 C 11,7 C 92 % 1025,5 hPa 0,0 l/m 5,1 km/h (1 Bft) S-SO 166 0 min 0,000 mm 0,0 UV-I 0 W/m 11,0 C 12,3 C 6,4 km/h (2 Bft) 96,00 %
16.10.2017 21:22 12,3 C 11,7 C 92 % 1025,5 hPa 0,0 l/m 3,5 km/h (1 Bft) S-SO 166 0 min 0,000 mm 0,0 UV-I 0 W/m 11,0 C 12,3 C 4,8 km/h (1 Bft) 95,74 %
16.10.2017 21:24 12,3 C 11,7 C 92 % 1025,5 hPa 0,0 l/m 1,5 km/h (1 Bft) S-SO 166 0 min 0,000 mm 0,0 UV-I 0 W/m 11,0 C 12,3 C 4,8 km/h (1 Bft) 95,45 %
16.10.2017 21:26 12,2 C 11,7 C 92 % 1025,6 hPa 0,0 l/m 1,5 km/h (1 Bft) S-SO 166 0 min 0,000 mm 0,0 UV-I 0 W/m 10,9 C 12,2 C 4,8 km/h (1 Bft) 93,62 %
16.10.2017 21:28 12,1 C 11,7 C 92 % 1025,6 hPa 0,0 l/m 1,2 km/h (1 Bft) S-SO 166 0 min 0,000 mm 0,0 UV-I 0 W/m 10,8 C 12,1 C 4,8 km/h (1 Bft) 95,74 %
16.10.2017 21:30 12,1 C 11,7 C 93 % 1025,6 hPa 0,0 l/m 2,8 km/h (1 Bft) S-SO 166 0 min 0,000 mm 0,0 UV-I 0 W/m 11,0 C 12,1 C 4,8 km/h (1 Bft) 97,22 %
16.10.2017 21:32 12,1 C 11,7 C 93 % 1025,6 hPa 0,0 l/m 1,3 km/h (1 Bft) S-SO 166 0 min 0,000 mm 0,0 UV-I 0 W/m 11,0 C 12,1 C 4,8 km/h (1 Bft) 96,61 %
16.10.2017 21:34 11,9 C 11,7 C 93 % 1025,6 hPa 0,0 l/m 2,3 km/h (1 Bft) S-SO 166 0 min 0,000 mm 0,0 UV-I 0 W/m 10,8 C 11,9 C 4,8 km/h (1 Bft) 93,88 %
16.10.2017 21:36 11,9 C 11,7 C 93 % 1025,6 hPa 0,0 l/m 2,7 km/h (1 Bft) S-SO 166 0 min 0,000 mm 0,0 UV-I 0 W/m 10,8 C 11,9 C 4,8 km/h (1 Bft) 97,87 %
16.10.2017 21:38 11,9 C 11,7 C 93 % 1025,6 hPa 0,0 l/m 2,7 km/h (1 Bft) S-SO 166 0 min 0,000 mm 0,0 UV-I 0 W/m 10,8 C 11,9 C 4,8 km/h (1 Bft) 97,87 %
16.10.2017 21:40 11,9 C 11,7 C 93 % 1025,6 hPa 0,0 l/m 4,1 km/h (1 Bft) S-SO 166 0 min 0,000 mm 0,0 UV-I 0 W/m 10,8 C 11,9 C 6,4 km/h (2 Bft) 97,37 %
16.10.2017 21:42 11,9 C 11,7 C 93 % 1025,6 hPa 0,0 l/m 3,9 km/h (1 Bft) S 175 0 min 0,000 mm 0,0 UV-I 0 W/m 10,8 C 11,9 C 4,8 km/h (1 Bft) 100,00 %
16.10.2017 21:44 11,9 C 11,7 C 93 % 1025,6 hPa 0,0 l/m 3,5 km/h (1 Bft) S 175 0 min 0,000 mm 0,0 UV-I 0 W/m 10,8 C 11,9 C 4,8 km/h (1 Bft) 100,00 %
16.10.2017 21:46 11,9 C 11,7 C 93 % 1025,6 hPa 0,0 l/m 3,4 km/h (1 Bft) S 175 0 min 0,000 mm 0,0 UV-I 0 W/m 10,8 C 11,9 C 4,8 km/h (1 Bft) 100,00 %
16.10.2017 21:48 11,9 C 11,7 C 93 % 1025,6 hPa 0,0 l/m 3,1 km/h (1 Bft) S 175 0 min 0,000 mm 0,0 UV-I 0 W/m 10,8 C 11,9 C 4,8 km/h (1 Bft) 98,00 %
16.10.2017 21:50 11,8 C 11,7 C 93 % 1025,7 hPa 0,0 l/m 3,0 km/h (1 Bft) S 175 0 min 0,000 mm 0,0 UV-I 0 W/m 10,7 C 11,8 C 4,8 km/h (1 Bft) 100,00 %
16.10.2017 21:52 11,8 C 11,7 C 93 % 1025,7 hPa 0,0 l/m 2,1 km/h (1 Bft) S 175 0 min 0,000 mm 0,0 UV-I 0 W/m 10,7 C 11,8 C 4,8 km/h (1 Bft) 96,08 %
16.10.2017 21:54 11,8 C 11,7 C 93 % 1025,6 hPa 0,0 l/m 3,1 km/h (1 Bft) S 175 0 min 0,000 mm 0,0 UV-I 0 W/m 10,7 C 11,8 C 4,8 km/h (1 Bft) 97,56 %
16.10.2017 21:56 11,8 C 11,7 C 93 % 1025,6 hPa 0,0 l/m 3,2 km/h (1 Bft) S 175 0 min 0,000 mm 0,0 UV-I 0 W/m 10,7 C 11,8 C 4,8 km/h (1 Bft) 100,00 %
16.10.2017 21:58 11,9 C 11,7 C 93 % 1025,6 hPa 0,0 l/m 3,2 km/h (1 Bft) S 175 0 min 0,000 mm 0,0 UV-I 0 W/m 10,8 C 11,9 C 4,8 km/h (1 Bft) 100,00 %
16.10.2017 22:00 11,9 C 11,7 C 93 % 1025,6 hPa 0,0 l/m 3,6 km/h (1 Bft) S 175 0 min 0,000 mm 0,0 UV-I 0 W/m 10,8 C 11,9 C 4,8 km/h (1 Bft) 98,11 %
16.10.2017 22:02 11,9 C 11,7 C 93 % 1025,7 hPa 0,0 l/m 3,0 km/h (1 Bft) S 175 0 min 0,000 mm 0,0 UV-I 0 W/m 10,8 C 11,9 C 4,8 km/h (1 Bft) 100,00 %
16.10.2017 22:04 11,8 C 11,7 C 92 % 1025,6 hPa 0,0 l/m 0,7 km/h (0 Bft) S 175 0 min 0,000 mm 0,0 UV-I 0 W/m 10,5 C 11,8 C 3,2 km/h (1 Bft) 100,00 %
16.10.2017 22:06 11,7 C 11,7 C 92 % 1025,6 hPa 0,0 l/m 0,9 km/h (0 Bft) S 175 0 min 0,000 mm 0,0 UV-I 0 W/m 10,4 C 11,7 C 3,2 km/h (1 Bft) 100,00 %
16.10.2017 22:08 11,6 C 11,7 C 92 % 1025,7 hPa 0,0 l/m 1,6 km/h (1 Bft) S 175 0 min 0,000 mm 0,0 UV-I 0 W/m 10,3 C 11,6 C 3,2 km/h (1 Bft) 100,00 %
16.10.2017 22:10 11,4 C 11,7 C 92 % 1025,7 hPa 0,0 l/m 1,0 km/h (0 Bft) S 175 0 min 0,000 mm 0,0 UV-I 0 W/m 10,1 C 11,4 C 3,2 km/h (1 Bft) 100,00 %
16.10.2017 22:12 11,3 C 11,7 C 92 % 1025,6 hPa 0,0 l/m 1,8 km/h (1 Bft) S 175 0 min 0,000 mm 0,0 UV-I 0 W/m 10,0 C 11,3 C 3,2 km/h (1 Bft) 100,00 %
16.10.2017 22:14 11,2 C 11,7 C 92 % 1025,6 hPa 0,0 l/m 1,1 km/h (1 Bft) S 175 0 min 0,000 mm 0,0 UV-I 0 W/m 9,9 C 11,2 C 3,2 km/h (1 Bft) 100,00 %
16.10.2017 22:16 11,2 C 11,7 C 92 % 1025,7 hPa 0,0 l/m 0,7 km/h (0 Bft) S 175 0 min 0,000 mm 0,0 UV-I 0 W/m 9,9 C 11,2 C 1,6 km/h (1 Bft) 100,00 %
16.10.2017 22:18 11,1 C 11,7 C 93 % 1025,7 hPa 0,0 l/m 0,8 km/h (0 Bft) S 175 0 min 0,000 mm 0,0 UV-I 0 W/m 10,0 C 11,1 C 1,6 km/h (1 Bft) 100,00 %
16.10.2017 22:20 11,1 C 11,7 C 93 % 1025,7 hPa 0,0 l/m 1,9 km/h (1 Bft) S 175 0 min 0,000 mm 0,0 UV-I 0 W/m 10,0 C 11,1 C 3,2 km/h (1 Bft) 97,87 %
16.10.2017 22:22 11,1 C 11,7 C 93 % 1025,8 hPa 0,0 l/m 2,7 km/h (1 Bft) S 175 0 min 0,000 mm 0,0 UV-I 0 W/m 10,0 C 11,1 C 3,2 km/h (1 Bft) 100,00 %
16.10.2017 22:24 11,1 C 11,7 C 93 % 1025,8 hPa 0,0 l/m 2,9 km/h (1 Bft) S 175 0 min 0,000 mm 0,0 UV-I 0 W/m 10,0 C 11,1 C 4,8 km/h (1 Bft) 100,00 %
16.10.2017 22:26 11,1 C 11,7 C 92 % 1025,8 hPa 0,0 l/m 2,4 km/h (1 Bft) S 175 0 min 0,000 mm 0,0 UV-I 0 W/m 9,8 C 11,1 C 3,2 km/h (1 Bft) 100,00 %
16.10.2017 22:28 10,9 C 11,7 C 92 % 1025,8 hPa 0,0 l/m 1,4 km/h (1 Bft) S 175 0 min 0,000 mm 0,0 UV-I 0 W/m 9,7 C 10,9 C 3,2 km/h (1 Bft) 100,00 %
16.10.2017 22:30 10,8 C 11,7 C 92 % 1025,8 hPa 0,0 l/m 0,5 km/h (0 Bft) S 175 0 min 0,000 mm 0,0 UV-I 0 W/m 9,6 C 10,8 C 1,6 km/h (1 Bft) 100,00 %
16.10.2017 22:32 10,8 C 11,7 C 92 % 1025,8 hPa 0,0 l/m 0,0 km/h (0 Bft) S 175 0 min 0,000 mm 0,0 UV-I 0 W/m 9,6 C 10,8 C 0,0 km/h (0 Bft) 100,00 %
16.10.2017 22:34 10,8 C 11,7 C 93 % 1025,8 hPa 0,0 l/m 0,0 km/h (0 Bft) S 175 0 min 0,000 mm 0,0 UV-I 0 W/m 9,7 C 10,8 C 0,0 km/h (0 Bft) 97,37 %
16.10.2017 22:36 10,7 C 11,7 C 93 % 1025,8 hPa 0,0 l/m 0,2 km/h (0 Bft) S 175 0 min 0,000 mm 0,0 UV-I 0 W/m 9,6 C 10,7 C 1,6 km/h (1 Bft) 100,00 %
16.10.2017 22:38 10,7 C 11,7 C 93 % 1025,8 hPa 0,0 l/m 0,7 km/h (0 Bft) S 175 0 min 0,000 mm 0,0 UV-I 0 W/m 9,6 C 10,7 C 1,6 km/h (1 Bft) 97,73 %
16.10.2017 22:40 10,7 C 11,7 C 93 % 1025,7 hPa 0,0 l/m 0,3 km/h (0 Bft) S 175 0 min 0,000 mm 0,0 UV-I 0 W/m 9,6 C 10,7 C 1,6 km/h (1 Bft) 100,00 %
16.10.2017 22:42 10,7 C 11,7 C 93 % 1025,7 hPa 0,0 l/m 0,6 km/h (0 Bft) S 175 0 min 0,000 mm 0,0 UV-I 0 W/m 9,6 C 10,7 C 1,6 km/h (1 Bft) 100,00 %
16.10.2017 22:44 10,7 C 11,7 C 93 % 1025,7 hPa 0,0 l/m 0,7 km/h (0 Bft) S 175 0 min 0,000 mm 0,0 UV-I 0 W/m 9,6 C 10,7 C 1,6 km/h (1 Bft) 100,00 %
16.10.2017 22:46 10,7 C 11,7 C 93 % 1025,8 hPa 0,0 l/m 0,8 km/h (0 Bft) S 175 0 min 0,000 mm 0,0 UV-I 0 W/m 9,6 C 10,7 C 1,6 km/h (1 Bft) 100,00 %
16.10.2017 22:48 10,7 C 11,7 C 93 % 1025,8 hPa 0,0 l/m 0,9 km/h (0 Bft) S 175 0 min 0,000 mm 0,0 UV-I 0 W/m 9,6 C 10,7 C 1,6 km/h (1 Bft) 100,00 %
16.10.2017 22:50 10,7 C 11,7 C 93 % 1025,8 hPa 0,0 l/m 0,8 km/h (0 Bft) S 175 0 min 0,000 mm 0,0 UV-I 0 W/m 9,6 C 10,7 C 1,6 km/h (1 Bft) 98,00 %
16.10.2017 22:52 10,7 C 11,7 C 93 % 1025,8 hPa 0,0 l/m 1,0 km/h (0 Bft) S 175 0 min 0,000 mm 0,0 UV-I 0 W/m 9,6 C 10,7 C 1,6 km/h (1 Bft) 97,87 %
16.10.2017 22:54 10,7 C 11,7 C 94 % 1025,8 hPa 0,0 l/m 0,3 km/h (0 Bft) S 175 0 min 0,000 mm 0,0 UV-I 0 W/m 9,8 C 10,7 C 1,6 km/h (1 Bft) 100,00 %
16.10.2017 22:56 10,7 C 11,7 C 93 % 1025,8 hPa 0,0 l/m 0,0 km/h (0 Bft) S 175 0 min 0,000 mm 0,0 UV-I 0 W/m 9,6 C 10,7 C 0,0 km/h (0 Bft) 100,00 %
16.10.2017 22:58 10,8 C 11,7 C 93 % 1025,9 hPa 0,0 l/m 0,0 km/h (0 Bft) S 175 0 min 0,000 mm 0,0 UV-I 0 W/m 9,7 C 10,8 C 0,0 km/h (0 Bft) 100,00 %
16.10.2017 23:00 10,7 C 11,7 C 93 % 1025,9 hPa 0,0 l/m 0,0 km/h (0 Bft) S 175 0 min 0,000 mm 0,0 UV-I 0 W/m 9,6 C 10,7 C 0,0 km/h (0 Bft) 100,00 %
16.10.2017 23:02 10,7 C 11,7 C 93 % 1025,8 hPa 0,0 l/m 0,0 km/h (0 Bft) S 175 0 min 0,000 mm 0,0 UV-I 0 W/m 9,6 C 10,7 C 0,0 km/h (0 Bft) 100,00 %
16.10.2017 23:04 10,7 C 11,7 C 93 % 1025,8 hPa 0,0 l/m 0,0 km/h (0 Bft) S 175 0 min 0,000 mm 0,0 UV-I 0 W/m 9,6 C 10,7 C 0,0 km/h (0 Bft) 97,87 %
16.10.2017 23:06 10,7 C 11,7 C 93 % 1025,8 hPa 0,0 l/m 0,7 km/h (0 Bft) S 175 0 min 0,000 mm 0,0 UV-I 0 W/m 9,6 C 10,7 C 1,6 km/h (1 Bft) 100,00 %
16.10.2017 23:08 10,4 C 11,7 C 92 % 1025,8 hPa 0,0 l/m 1,9 km/h (1 Bft) S 175 0 min 0,000 mm 0,0 UV-I 0 W/m 9,2 C 10,4 C 3,2 km/h (1 Bft) 100,00 %
16.10.2017 23:10 10,2 C 11,7 C 92 % 1025,8 hPa 0,0 l/m 2,7 km/h (1 Bft) S 175 0 min 0,000 mm 0,0 UV-I 0 W/m 9,0 C 10,2 C 3,2 km/h (1 Bft) 100,00 %
16.10.2017 23:12 10,1 C 11,7 C 92 % 1025,8 hPa 0,0 l/m 2,4 km/h (1 Bft) S 175 0 min 0,000 mm 0,0 UV-I 0 W/m 8,9 C 10,1 C 3,2 km/h (1 Bft) 100,00 %
16.10.2017 23:14 10,2 C 11,7 C 94 % 1025,8 hPa 0,0 l/m 2,0 km/h (1 Bft) S 175 0 min 0,000 mm 0,0 UV-I 0 W/m 9,3 C 10,2 C 3,2 km/h (1 Bft) 100,00 %
16.10.2017 23:16 10,4 C 11,7 C 94 % 1025,8 hPa 0,0 l/m 2,4 km/h (1 Bft) S 175 0 min 0,000 mm 0,0 UV-I 0 W/m 9,5 C 10,4 C 4,8 km/h (1 Bft) 100,00 %
16.10.2017 23:18 10,6 C 11,7 C 94 % 1025,8 hPa 0,0 l/m 3,0 km/h (1 Bft) S 175 0 min 0,000 mm 0,0 UV-I 0 W/m 9,7 C 10,6 C 4,8 km/h (1 Bft) 98,00 %
16.10.2017 23:20 10,7 C 11,7 C 94 % 1025,8 hPa 0,0 l/m 1,4 km/h (1 Bft) S 175 0 min 0,000 mm 0,0 UV-I 0 W/m 9,8 C 10,7 C 3,2 km/h (1 Bft) 97,87 %
16.10.2017 23:22 10,7 C 11,7 C 94 % 1025,8 hPa 0,0 l/m 1,4 km/h (1 Bft) S 175 0 min 0,000 mm 0,0 UV-I 0 W/m 9,8 C 10,7 C 3,2 km/h (1 Bft) 97,73 %
16.10.2017 23:24 10,5 C 11,7 C 93 % 1025,7 hPa 0,0 l/m 0,1 km/h (0 Bft) S 175 0 min 0,000 mm 0,0 UV-I 0 W/m 9,4 C 10,5 C 1,6 km/h (1 Bft) 95,45 %
16.10.2017 23:26 10,4 C 11,7 C 93 % 1025,8 hPa 0,0 l/m 0,0 km/h (0 Bft) S 175 0 min 0,000 mm 0,0 UV-I 0 W/m 9,3 C 10,4 C 0,0 km/h (0 Bft) 98,00 %
16.10.2017 23:28 10,4 C 11,7 C 93 % 1025,8 hPa 0,0 l/m 0,0 km/h (0 Bft) S 175 0 min 0,000 mm 0,0 UV-I 0 W/m 9,3 C 10,4 C 0,0 km/h (0 Bft) 97,87 %
16.10.2017 23:30 10,3 C 11,7 C 93 % 1025,8 hPa 0,0 l/m 0,0 km/h (0 Bft) S 175 0 min 0,000 mm 0,0 UV-I 0 W/m 9,2 C 10,3 C 0,0 km/h (0 Bft) 97,22 %
16.10.2017 23:32 10,2 C 11,7 C 93 % 1025,8 hPa 0,0 l/m 0,0 km/h (0 Bft) S 175 0 min 0,000 mm 0,0 UV-I 0 W/m 9,1 C 10,2 C 0,0 km/h (0 Bft) 96,15 %
16.10.2017 23:34 10,2 C 11,7 C 93 % 1025,8 hPa 0,0 l/m 0,6 km/h (0 Bft) S 175 0 min 0,000 mm 0,0 UV-I 0 W/m 9,1 C 10,2 C 3,2 km/h (1 Bft) 97,87 %
16.10.2017 23:36 10,2 C 11,7 C 94 % 1025,7 hPa 0,0 l/m 2,4 km/h (1 Bft) S 175 0 min 0,000 mm 0,0 UV-I 0 W/m 9,3 C 10,2 C 4,8 km/h (1 Bft) 96,00 %
16.10.2017 23:38 10,2 C 11,7 C 94 % 1025,7 hPa 0,0 l/m 4,1 km/h (1 Bft) S 175 0 min 0,000 mm 0,0 UV-I 0 W/m 9,3 C 10,2 C 4,8 km/h (1 Bft) 94,00 %
16.10.2017 23:40 10,1 C 11,7 C 93 % 1025,7 hPa 0,0 l/m 3,1 km/h (1 Bft) S 175 0 min 0,000 mm 0,0 UV-I 0 W/m 9,0 C 10,1 C 4,8 km/h (1 Bft) 96,77 %
16.10.2017 23:42 9,9 C 11,7 C 93 % 1025,7 hPa 0,0 l/m 1,6 km/h (1 Bft) S 175 0 min 0,000 mm 0,0 UV-I 0 W/m 8,8 C 9,9 C 3,2 km/h (1 Bft) 98,18 %
16.10.2017 23:44 9,8 C 11,7 C 93 % 1025,7 hPa 0,0 l/m 0,2 km/h (0 Bft) S 175 0 min 0,000 mm 0,0 UV-I 0 W/m 8,7 C 9,8 C 1,6 km/h (1 Bft) 97,87 %
16.10.2017 23:46 9,8 C 11,7 C 94 % 1025,7 hPa 0,0 l/m 0,0 km/h (0 Bft) S 175 0 min 0,000 mm 0,0 UV-I 0 W/m 8,9 C 9,8 C 0,0 km/h (0 Bft) 98,00 %
16.10.2017 23:48 9,8 C 11,7 C 94 % 1025,8 hPa 0,0 l/m 0,0 km/h (0 Bft) S 175 0 min 0,000 mm 0,0 UV-I 0 W/m 8,9 C 9,8 C 0,0 km/h (0 Bft) 97,87 %
16.10.2017 23:50 9,7 C 11,7 C 94 % 1025,7 hPa 0,0 l/m 0,0 km/h (0 Bft) S 175 0 min 0,000 mm 0,0 UV-I 0 W/m 8,8 C 9,7 C 0,0 km/h (0 Bft) 96,00 %
16.10.2017 23:52 9,7 C 11,7 C 94 % 1025,7 hPa 0,0 l/m 0,0 km/h (0 Bft) S 175 0 min 0,000 mm 0,0 UV-I 0 W/m 8,8 C 9,7 C 0,0 km/h (0 Bft) 97,87 %
16.10.2017 23:54 9,6 C 11,7 C 93 % 1025,7 hPa 0,0 l/m 0,0 km/h (0 Bft) S 175 0 min 0,000 mm 0,0 UV-I 0 W/m 8,5 C 9,6 C 0,0 km/h (0 Bft) 93,62 %
16.10.2017 23:56 9,5 C 11,7 C 94 % 1025,7 hPa 0,0 l/m 0,0 km/h (0 Bft) S 175 0 min 0,000 mm 0,0 UV-I 0 W/m 8,6 C 9,5 C 0,0 km/h (0 Bft) 97,37 %
16.10.2017 23:58 9,5 C 11,7 C 94 % 1025,7 hPa 0,0 l/m 0,0 km/h (0 Bft) S 175 0 min 0,000 mm 0,0 UV-I 0 W/m 8,6 C 9,5 C 0,0 km/h (0 Bft) 98,00 %
_ Min-Zeit 07:40 00:00 15:30 17:50 - 00:56 - - - - - - 07:40 07:40 00:58 07:32
Minimum _ 6,5 C 11,7 C 61 % 1025,0 hPa - 0,0 km/h (0 Bft) - - - - - - 6,1 C 6,5 C 0,0 km/h (0 Bft) 90,57 %
_ Max-Zeit 15:38 00:00 08:08 09:32 08:10 21:20 - - 13:13 14:02 12:30 12:38 13:56 15:38 03:02 00:00
Maximum _ 21,0 C 11,7 C 98 % 1027,6 hPa 0,2 l/m 5,1 km/h
S-SO (1 Bft)
- - 3 min 0,305 mm 2,5 UV-I 549 W/m 15,0 C 21,0 C 8,0 km/h
S-SW (2 Bft)
100,00 %
Durchschnitt _ 12,7 C 11,7 C 88 % 1026,3 hPa #0,2 l/m 1,4 km/h (1 Bft) S - #10:12 h #1,880 mm 1,6 UV-I 308 W/m 10,5 C 12,7 C 2,7 km/h (1 Bft) 98,17 %